<?xml version="1.0" encoding="UTF-8" standalone="no" ?>
<gpx xmlns="http://www.topografix.com/GPX/1/1" xmlns:xsi="http://www.w3.org/2001/XMLSchema-instance" xsi:schemaLocation="http://www.topografix.com/GPX/1/1 http://www.topografix.com/GPX/1/1/gpx.xsd" version="1.1" creator="VisuGPX - https://www.visugpx.com">
  <metadata>
    <name>Sceau St Angel - Brantôme 50 km</name>
    <desc><![CDATA[petite sortie relativement roulante]]></desc>
  </metadata>
  <trk>
    <name><![CDATA[Sceau St Angel - Brantôme 50 km_1]]></name>
    <trkseg>
      <trkpt lat="45.48541" lon="0.69063">
        <ele>241</ele>
        <time>2012-11-25T07:34:50Z</time>
      </trkpt>
      <trkpt lat="45.48541" lon="0.69063">
        <ele>241</ele>
        <time>2012-11-25T07:34:56Z</time>
      </trkpt>
      <trkpt lat="45.48545" lon="0.69065">
        <ele>241</ele>
        <time>2012-11-25T07:35:44Z</time>
      </trkpt>
      <trkpt lat="45.48537" lon="0.69068">
        <ele>241</ele>
        <time>2012-11-25T07:36:12Z</time>
      </trkpt>
      <trkpt lat="45.48536" lon="0.69062">
        <ele>241</ele>
        <time>2012-11-25T07:36:17Z</time>
      </trkpt>
      <trkpt lat="45.48534" lon="0.6907">
        <ele>241</ele>
        <time>2012-11-25T07:36:36Z</time>
      </trkpt>
      <trkpt lat="45.48531" lon="0.69084">
        <ele>242</ele>
        <time>2012-11-25T07:36:42Z</time>
      </trkpt>
      <trkpt lat="45.48522" lon="0.69091">
        <ele>242</ele>
        <time>2012-11-25T07:36:48Z</time>
      </trkpt>
      <trkpt lat="45.48515" lon="0.69103">
        <ele>242</ele>
        <time>2012-11-25T07:36:53Z</time>
      </trkpt>
      <trkpt lat="45.48505" lon="0.69124">
        <ele>243</ele>
        <time>2012-11-25T07:37:00Z</time>
      </trkpt>
      <trkpt lat="45.48496" lon="0.69137">
        <ele>241</ele>
        <time>2012-11-25T07:37:05Z</time>
      </trkpt>
      <trkpt lat="45.48481" lon="0.69159">
        <ele>241</ele>
        <time>2012-11-25T07:37:12Z</time>
      </trkpt>
      <trkpt lat="45.48471" lon="0.69171">
        <ele>242</ele>
        <time>2012-11-25T07:37:16Z</time>
      </trkpt>
      <trkpt lat="45.48465" lon="0.69182">
        <ele>241</ele>
        <time>2012-11-25T07:37:19Z</time>
      </trkpt>
      <trkpt lat="45.48455" lon="0.69196">
        <ele>241</ele>
        <time>2012-11-25T07:37:23Z</time>
      </trkpt>
      <trkpt lat="45.48445" lon="0.69212">
        <ele>241</ele>
        <time>2012-11-25T07:37:27Z</time>
      </trkpt>
      <trkpt lat="45.48436" lon="0.69226">
        <ele>241</ele>
        <time>2012-11-25T07:37:30Z</time>
      </trkpt>
      <trkpt lat="45.4842" lon="0.6926">
        <ele>240</ele>
        <time>2012-11-25T07:37:36Z</time>
      </trkpt>
      <trkpt lat="45.48397" lon="0.69307">
        <ele>237</ele>
        <time>2012-11-25T07:37:44Z</time>
      </trkpt>
      <trkpt lat="45.48378" lon="0.6935">
        <ele>237</ele>
        <time>2012-11-25T07:37:51Z</time>
      </trkpt>
      <trkpt lat="45.48367" lon="0.69372">
        <ele>236</ele>
        <time>2012-11-25T07:37:56Z</time>
      </trkpt>
      <trkpt lat="45.48358" lon="0.69358">
        <ele>236</ele>
        <time>2012-11-25T07:38:01Z</time>
      </trkpt>
      <trkpt lat="45.4835" lon="0.69308">
        <ele>235</ele>
        <time>2012-11-25T07:38:07Z</time>
      </trkpt>
      <trkpt lat="45.48348" lon="0.69272">
        <ele>234</ele>
        <time>2012-11-25T07:38:11Z</time>
      </trkpt>
      <trkpt lat="45.4835" lon="0.69236">
        <ele>233</ele>
        <time>2012-11-25T07:38:15Z</time>
      </trkpt>
      <trkpt lat="45.48351" lon="0.69211">
        <ele>233</ele>
        <time>2012-11-25T07:38:18Z</time>
      </trkpt>
      <trkpt lat="45.48352" lon="0.69186">
        <ele>232</ele>
        <time>2012-11-25T07:38:21Z</time>
      </trkpt>
      <trkpt lat="45.48355" lon="0.69148">
        <ele>231</ele>
        <time>2012-11-25T07:38:26Z</time>
      </trkpt>
      <trkpt lat="45.48359" lon="0.69125">
        <ele>231</ele>
        <time>2012-11-25T07:38:29Z</time>
      </trkpt>
      <trkpt lat="45.48364" lon="0.69075">
        <ele>229</ele>
        <time>2012-11-25T07:38:35Z</time>
      </trkpt>
      <trkpt lat="45.48361" lon="0.69038">
        <ele>228</ele>
        <time>2012-11-25T07:38:39Z</time>
      </trkpt>
      <trkpt lat="45.48359" lon="0.68996">
        <ele>226</ele>
        <time>2012-11-25T07:38:44Z</time>
      </trkpt>
      <trkpt lat="45.4836" lon="0.6897">
        <ele>226</ele>
        <time>2012-11-25T07:38:47Z</time>
      </trkpt>
      <trkpt lat="45.4836" lon="0.68929">
        <ele>226</ele>
        <time>2012-11-25T07:38:52Z</time>
      </trkpt>
      <trkpt lat="45.48358" lon="0.689">
        <ele>226</ele>
        <time>2012-11-25T07:38:56Z</time>
      </trkpt>
      <trkpt lat="45.48356" lon="0.68886">
        <ele>226</ele>
        <time>2012-11-25T07:38:58Z</time>
      </trkpt>
      <trkpt lat="45.48343" lon="0.6885">
        <ele>227</ele>
        <time>2012-11-25T07:39:04Z</time>
      </trkpt>
      <trkpt lat="45.48327" lon="0.68826">
        <ele>228</ele>
        <time>2012-11-25T07:39:12Z</time>
      </trkpt>
      <trkpt lat="45.48313" lon="0.68807">
        <ele>229</ele>
        <time>2012-11-25T07:39:16Z</time>
      </trkpt>
      <trkpt lat="45.48301" lon="0.68791">
        <ele>230</ele>
        <time>2012-11-25T07:39:20Z</time>
      </trkpt>
      <trkpt lat="45.4829" lon="0.68774">
        <ele>230</ele>
        <time>2012-11-25T07:39:24Z</time>
      </trkpt>
      <trkpt lat="45.48285" lon="0.68767">
        <ele>231</ele>
        <time>2012-11-25T07:39:26Z</time>
      </trkpt>
      <trkpt lat="45.48271" lon="0.68748">
        <ele>232</ele>
        <time>2012-11-25T07:39:31Z</time>
      </trkpt>
      <trkpt lat="45.48266" lon="0.6874">
        <ele>232</ele>
        <time>2012-11-25T07:39:33Z</time>
      </trkpt>
      <trkpt lat="45.48249" lon="0.68714">
        <ele>232</ele>
        <time>2012-11-25T07:39:40Z</time>
      </trkpt>
      <trkpt lat="45.48239" lon="0.68698">
        <ele>232</ele>
        <time>2012-11-25T07:39:44Z</time>
      </trkpt>
      <trkpt lat="45.48235" lon="0.6869">
        <ele>233</ele>
        <time>2012-11-25T07:39:46Z</time>
      </trkpt>
      <trkpt lat="45.48229" lon="0.68677">
        <ele>233</ele>
        <time>2012-11-25T07:39:49Z</time>
      </trkpt>
      <trkpt lat="45.4822" lon="0.68663">
        <ele>234</ele>
        <time>2012-11-25T07:39:53Z</time>
      </trkpt>
      <trkpt lat="45.4821" lon="0.68652">
        <ele>234</ele>
        <time>2012-11-25T07:39:57Z</time>
      </trkpt>
      <trkpt lat="45.48181" lon="0.68636">
        <ele>234</ele>
        <time>2012-11-25T07:40:04Z</time>
      </trkpt>
      <trkpt lat="45.4816" lon="0.68623">
        <ele>233</ele>
        <time>2012-11-25T07:40:08Z</time>
      </trkpt>
      <trkpt lat="45.48141" lon="0.68612">
        <ele>233</ele>
        <time>2012-11-25T07:40:11Z</time>
      </trkpt>
      <trkpt lat="45.48128" lon="0.68604">
        <ele>232</ele>
        <time>2012-11-25T07:40:13Z</time>
      </trkpt>
      <trkpt lat="45.48076" lon="0.68581">
        <ele>232</ele>
        <time>2012-11-25T07:40:20Z</time>
      </trkpt>
      <trkpt lat="45.4807" lon="0.68576">
        <ele>232</ele>
        <time>2012-11-25T07:40:21Z</time>
      </trkpt>
      <trkpt lat="45.48047" lon="0.68551">
        <ele>232</ele>
        <time>2012-11-25T07:40:26Z</time>
      </trkpt>
      <trkpt lat="45.48027" lon="0.6854">
        <ele>232</ele>
        <time>2012-11-25T07:40:30Z</time>
      </trkpt>
      <trkpt lat="45.48007" lon="0.68526">
        <ele>232</ele>
        <time>2012-11-25T07:40:35Z</time>
      </trkpt>
      <trkpt lat="45.47984" lon="0.68516">
        <ele>231</ele>
        <time>2012-11-25T07:40:40Z</time>
      </trkpt>
      <trkpt lat="45.4795" lon="0.68514">
        <ele>231</ele>
        <time>2012-11-25T07:40:48Z</time>
      </trkpt>
      <trkpt lat="45.4794" lon="0.68516">
        <ele>231</ele>
        <time>2012-11-25T07:40:50Z</time>
      </trkpt>
      <trkpt lat="45.47926" lon="0.68517">
        <ele>231</ele>
        <time>2012-11-25T07:40:53Z</time>
      </trkpt>
      <trkpt lat="45.47907" lon="0.68513">
        <ele>231</ele>
        <time>2012-11-25T07:40:57Z</time>
      </trkpt>
      <trkpt lat="45.47886" lon="0.68508">
        <ele>230</ele>
        <time>2012-11-25T07:41:01Z</time>
      </trkpt>
      <trkpt lat="45.47865" lon="0.68509">
        <ele>231</ele>
        <time>2012-11-25T07:41:06Z</time>
      </trkpt>
      <trkpt lat="45.47841" lon="0.68501">
        <ele>231</ele>
        <time>2012-11-25T07:41:12Z</time>
      </trkpt>
      <trkpt lat="45.47821" lon="0.68471">
        <ele>233</ele>
        <time>2012-11-25T07:41:20Z</time>
      </trkpt>
      <trkpt lat="45.47806" lon="0.68464">
        <ele>234</ele>
        <time>2012-11-25T07:41:26Z</time>
      </trkpt>
      <trkpt lat="45.47796" lon="0.68469">
        <ele>234</ele>
        <time>2012-11-25T07:41:29Z</time>
      </trkpt>
      <trkpt lat="45.4778" lon="0.68472">
        <ele>234</ele>
        <time>2012-11-25T07:41:34Z</time>
      </trkpt>
      <trkpt lat="45.4777" lon="0.68475">
        <ele>234</ele>
        <time>2012-11-25T07:41:37Z</time>
      </trkpt>
      <trkpt lat="45.47755" lon="0.6848">
        <ele>234</ele>
        <time>2012-11-25T07:41:42Z</time>
      </trkpt>
      <trkpt lat="45.47754" lon="0.68488">
        <ele>234</ele>
        <time>2012-11-25T07:41:45Z</time>
      </trkpt>
      <trkpt lat="45.4775" lon="0.685">
        <ele>234</ele>
        <time>2012-11-25T07:41:49Z</time>
      </trkpt>
      <trkpt lat="45.47724" lon="0.68516">
        <ele>233</ele>
        <time>2012-11-25T07:41:56Z</time>
      </trkpt>
      <trkpt lat="45.47714" lon="0.68521">
        <ele>233</ele>
        <time>2012-11-25T07:41:58Z</time>
      </trkpt>
      <trkpt lat="45.47682" lon="0.68537">
        <ele>233</ele>
        <time>2012-11-25T07:42:04Z</time>
      </trkpt>
      <trkpt lat="45.47672" lon="0.68544">
        <ele>233</ele>
        <time>2012-11-25T07:42:06Z</time>
      </trkpt>
      <trkpt lat="45.47659" lon="0.68561">
        <ele>232</ele>
        <time>2012-11-25T07:42:10Z</time>
      </trkpt>
      <trkpt lat="45.47641" lon="0.6858">
        <ele>232</ele>
        <time>2012-11-25T07:42:15Z</time>
      </trkpt>
      <trkpt lat="45.47633" lon="0.68586">
        <ele>232</ele>
        <time>2012-11-25T07:42:17Z</time>
      </trkpt>
      <trkpt lat="45.4761" lon="0.68607">
        <ele>232</ele>
        <time>2012-11-25T07:42:24Z</time>
      </trkpt>
      <trkpt lat="45.47595" lon="0.68616">
        <ele>232</ele>
        <time>2012-11-25T07:42:28Z</time>
      </trkpt>
      <trkpt lat="45.47584" lon="0.68623">
        <ele>232</ele>
        <time>2012-11-25T07:42:31Z</time>
      </trkpt>
      <trkpt lat="45.47576" lon="0.68628">
        <ele>231</ele>
        <time>2012-11-25T07:42:33Z</time>
      </trkpt>
      <trkpt lat="45.47551" lon="0.68641">
        <ele>231</ele>
        <time>2012-11-25T07:42:38Z</time>
      </trkpt>
      <trkpt lat="45.47526" lon="0.68658">
        <ele>230</ele>
        <time>2012-11-25T07:42:43Z</time>
      </trkpt>
      <trkpt lat="45.47512" lon="0.68667">
        <ele>230</ele>
        <time>2012-11-25T07:42:46Z</time>
      </trkpt>
      <trkpt lat="45.47484" lon="0.6869">
        <ele>229</ele>
        <time>2012-11-25T07:42:52Z</time>
      </trkpt>
      <trkpt lat="45.47469" lon="0.68699">
        <ele>229</ele>
        <time>2012-11-25T07:42:55Z</time>
      </trkpt>
      <trkpt lat="45.47451" lon="0.68708">
        <ele>229</ele>
        <time>2012-11-25T07:42:59Z</time>
      </trkpt>
      <trkpt lat="45.47444" lon="0.68702">
        <ele>229</ele>
        <time>2012-11-25T07:43:01Z</time>
      </trkpt>
      <trkpt lat="45.47427" lon="0.68697">
        <ele>229</ele>
        <time>2012-11-25T07:43:05Z</time>
      </trkpt>
      <trkpt lat="45.47409" lon="0.687">
        <ele>229</ele>
        <time>2012-11-25T07:43:09Z</time>
      </trkpt>
      <trkpt lat="45.47377" lon="0.68674">
        <ele>228</ele>
        <time>2012-11-25T07:43:16Z</time>
      </trkpt>
      <trkpt lat="45.47369" lon="0.68663">
        <ele>227</ele>
        <time>2012-11-25T07:43:18Z</time>
      </trkpt>
      <trkpt lat="45.47354" lon="0.68649">
        <ele>227</ele>
        <time>2012-11-25T07:43:21Z</time>
      </trkpt>
      <trkpt lat="45.47328" lon="0.68617">
        <ele>224</ele>
        <time>2012-11-25T07:43:26Z</time>
      </trkpt>
      <trkpt lat="45.47302" lon="0.68574">
        <ele>221</ele>
        <time>2012-11-25T07:43:32Z</time>
      </trkpt>
      <trkpt lat="45.47275" lon="0.68542">
        <ele>221</ele>
        <time>2012-11-25T07:43:40Z</time>
      </trkpt>
      <trkpt lat="45.47266" lon="0.68525">
        <ele>220</ele>
        <time>2012-11-25T07:43:43Z</time>
      </trkpt>
      <trkpt lat="45.47246" lon="0.68501">
        <ele>220</ele>
        <time>2012-11-25T07:43:48Z</time>
      </trkpt>
      <trkpt lat="45.47238" lon="0.68492">
        <ele>220</ele>
        <time>2012-11-25T07:43:50Z</time>
      </trkpt>
      <trkpt lat="45.47227" lon="0.6848">
        <ele>221</ele>
        <time>2012-11-25T07:43:53Z</time>
      </trkpt>
      <trkpt lat="45.47205" lon="0.6846">
        <ele>221</ele>
        <time>2012-11-25T07:43:58Z</time>
      </trkpt>
      <trkpt lat="45.47182" lon="0.68446">
        <ele>222</ele>
        <time>2012-11-25T07:44:03Z</time>
      </trkpt>
      <trkpt lat="45.47169" lon="0.68439">
        <ele>222</ele>
        <time>2012-11-25T07:44:06Z</time>
      </trkpt>
      <trkpt lat="45.47142" lon="0.68423">
        <ele>222</ele>
        <time>2012-11-25T07:44:12Z</time>
      </trkpt>
      <trkpt lat="45.47128" lon="0.68418">
        <ele>222</ele>
        <time>2012-11-25T07:44:16Z</time>
      </trkpt>
      <trkpt lat="45.4712" lon="0.68416">
        <ele>223</ele>
        <time>2012-11-25T07:44:18Z</time>
      </trkpt>
      <trkpt lat="45.47105" lon="0.68414">
        <ele>223</ele>
        <time>2012-11-25T07:44:22Z</time>
      </trkpt>
      <trkpt lat="45.47081" lon="0.68418">
        <ele>223</ele>
        <time>2012-11-25T07:44:27Z</time>
      </trkpt>
      <trkpt lat="45.47062" lon="0.68417">
        <ele>222</ele>
        <time>2012-11-25T07:44:31Z</time>
      </trkpt>
      <trkpt lat="45.47038" lon="0.6842">
        <ele>221</ele>
        <time>2012-11-25T07:44:36Z</time>
      </trkpt>
      <trkpt lat="45.47019" lon="0.68423">
        <ele>221</ele>
        <time>2012-11-25T07:44:40Z</time>
      </trkpt>
      <trkpt lat="45.46994" lon="0.68426">
        <ele>222</ele>
        <time>2012-11-25T07:44:46Z</time>
      </trkpt>
      <trkpt lat="45.46965" lon="0.68424">
        <ele>223</ele>
        <time>2012-11-25T07:44:52Z</time>
      </trkpt>
      <trkpt lat="45.46931" lon="0.68425">
        <ele>225</ele>
        <time>2012-11-25T07:44:59Z</time>
      </trkpt>
      <trkpt lat="45.46921" lon="0.68426">
        <ele>225</ele>
        <time>2012-11-25T07:45:01Z</time>
      </trkpt>
      <trkpt lat="45.46902" lon="0.6843">
        <ele>227</ele>
        <time>2012-11-25T07:45:05Z</time>
      </trkpt>
      <trkpt lat="45.46876" lon="0.68435">
        <ele>227</ele>
        <time>2012-11-25T07:45:12Z</time>
      </trkpt>
      <trkpt lat="45.46865" lon="0.68435">
        <ele>228</ele>
        <time>2012-11-25T07:45:15Z</time>
      </trkpt>
      <trkpt lat="45.46858" lon="0.68436">
        <ele>228</ele>
        <time>2012-11-25T07:45:17Z</time>
      </trkpt>
      <trkpt lat="45.46839" lon="0.68436">
        <ele>228</ele>
        <time>2012-11-25T07:45:22Z</time>
      </trkpt>
      <trkpt lat="45.46829" lon="0.68441">
        <ele>228</ele>
        <time>2012-11-25T07:45:25Z</time>
      </trkpt>
      <trkpt lat="45.46808" lon="0.68448">
        <ele>228</ele>
        <time>2012-11-25T07:45:31Z</time>
      </trkpt>
      <trkpt lat="45.46796" lon="0.68451">
        <ele>228</ele>
        <time>2012-11-25T07:45:34Z</time>
      </trkpt>
      <trkpt lat="45.46778" lon="0.68451">
        <ele>228</ele>
        <time>2012-11-25T07:45:38Z</time>
      </trkpt>
      <trkpt lat="45.46753" lon="0.6845">
        <ele>228</ele>
        <time>2012-11-25T07:45:44Z</time>
      </trkpt>
      <trkpt lat="45.4673" lon="0.6845">
        <ele>228</ele>
        <time>2012-11-25T07:45:49Z</time>
      </trkpt>
      <trkpt lat="45.46707" lon="0.68449">
        <ele>228</ele>
        <time>2012-11-25T07:45:54Z</time>
      </trkpt>
      <trkpt lat="45.46676" lon="0.68451">
        <ele>228</ele>
        <time>2012-11-25T07:46:00Z</time>
      </trkpt>
      <trkpt lat="45.46658" lon="0.68454">
        <ele>229</ele>
        <time>2012-11-25T07:46:04Z</time>
      </trkpt>
      <trkpt lat="45.4664" lon="0.68454">
        <ele>229</ele>
        <time>2012-11-25T07:46:08Z</time>
      </trkpt>
      <trkpt lat="45.46629" lon="0.68454">
        <ele>229</ele>
        <time>2012-11-25T07:46:10Z</time>
      </trkpt>
      <trkpt lat="45.46599" lon="0.68458">
        <ele>229</ele>
        <time>2012-11-25T07:46:16Z</time>
      </trkpt>
      <trkpt lat="45.46588" lon="0.68458">
        <ele>229</ele>
        <time>2012-11-25T07:46:18Z</time>
      </trkpt>
      <trkpt lat="45.46568" lon="0.68462">
        <ele>230</ele>
        <time>2012-11-25T07:46:22Z</time>
      </trkpt>
      <trkpt lat="45.46548" lon="0.68466">
        <ele>230</ele>
        <time>2012-11-25T07:46:26Z</time>
      </trkpt>
      <trkpt lat="45.4652" lon="0.68471">
        <ele>231</ele>
        <time>2012-11-25T07:46:32Z</time>
      </trkpt>
      <trkpt lat="45.465" lon="0.68476">
        <ele>232</ele>
        <time>2012-11-25T07:46:36Z</time>
      </trkpt>
      <trkpt lat="45.46485" lon="0.68479">
        <ele>232</ele>
        <time>2012-11-25T07:46:39Z</time>
      </trkpt>
      <trkpt lat="45.46459" lon="0.68484">
        <ele>232</ele>
        <time>2012-11-25T07:46:44Z</time>
      </trkpt>
      <trkpt lat="45.46453" lon="0.68484">
        <ele>232</ele>
        <time>2012-11-25T07:46:45Z</time>
      </trkpt>
      <trkpt lat="45.46414" lon="0.6849">
        <ele>232</ele>
        <time>2012-11-25T07:46:52Z</time>
      </trkpt>
      <trkpt lat="45.46403" lon="0.68492">
        <ele>232</ele>
        <time>2012-11-25T07:46:54Z</time>
      </trkpt>
      <trkpt lat="45.4637" lon="0.68498">
        <ele>232</ele>
        <time>2012-11-25T07:47:00Z</time>
      </trkpt>
      <trkpt lat="45.46357" lon="0.685">
        <ele>232</ele>
        <time>2012-11-25T07:47:02Z</time>
      </trkpt>
      <trkpt lat="45.46339" lon="0.68502">
        <ele>232</ele>
        <time>2012-11-25T07:47:05Z</time>
      </trkpt>
      <trkpt lat="45.46308" lon="0.68507">
        <ele>231</ele>
        <time>2012-11-25T07:47:10Z</time>
      </trkpt>
      <trkpt lat="45.46272" lon="0.68514">
        <ele>230</ele>
        <time>2012-11-25T07:47:16Z</time>
      </trkpt>
      <trkpt lat="45.4624" lon="0.68516">
        <ele>228</ele>
        <time>2012-11-25T07:47:23Z</time>
      </trkpt>
      <trkpt lat="45.46234" lon="0.68513">
        <ele>228</ele>
        <time>2012-11-25T07:47:32Z</time>
      </trkpt>
      <trkpt lat="45.46231" lon="0.68506">
        <ele>228</ele>
        <time>2012-11-25T07:47:36Z</time>
      </trkpt>
      <trkpt lat="45.46231" lon="0.68493">
        <ele>229</ele>
        <time>2012-11-25T07:47:39Z</time>
      </trkpt>
      <trkpt lat="45.46235" lon="0.68462">
        <ele>229</ele>
        <time>2012-11-25T07:47:44Z</time>
      </trkpt>
      <trkpt lat="45.46237" lon="0.68448">
        <ele>229</ele>
        <time>2012-11-25T07:47:46Z</time>
      </trkpt>
      <trkpt lat="45.46236" lon="0.68407">
        <ele>228</ele>
        <time>2012-11-25T07:47:51Z</time>
      </trkpt>
      <trkpt lat="45.46237" lon="0.68359">
        <ele>227</ele>
        <time>2012-11-25T07:47:56Z</time>
      </trkpt>
      <trkpt lat="45.4624" lon="0.68341">
        <ele>227</ele>
        <time>2012-11-25T07:47:58Z</time>
      </trkpt>
      <trkpt lat="45.46241" lon="0.6829">
        <ele>225</ele>
        <time>2012-11-25T07:48:03Z</time>
      </trkpt>
      <trkpt lat="45.46243" lon="0.68246">
        <ele>224</ele>
        <time>2012-11-25T07:48:07Z</time>
      </trkpt>
      <trkpt lat="45.46242" lon="0.68226">
        <ele>224</ele>
        <time>2012-11-25T07:48:09Z</time>
      </trkpt>
      <trkpt lat="45.46237" lon="0.68178">
        <ele>224</ele>
        <time>2012-11-25T07:48:14Z</time>
      </trkpt>
      <trkpt lat="45.46224" lon="0.68154">
        <ele>222</ele>
        <time>2012-11-25T07:48:17Z</time>
      </trkpt>
      <trkpt lat="45.46205" lon="0.68122">
        <ele>222</ele>
        <time>2012-11-25T07:48:21Z</time>
      </trkpt>
      <trkpt lat="45.46188" lon="0.68088">
        <ele>221</ele>
        <time>2012-11-25T07:48:25Z</time>
      </trkpt>
      <trkpt lat="45.46161" lon="0.68055">
        <ele>218</ele>
        <time>2012-11-25T07:48:30Z</time>
      </trkpt>
      <trkpt lat="45.4614" lon="0.68042">
        <ele>217</ele>
        <time>2012-11-25T07:48:33Z</time>
      </trkpt>
      <trkpt lat="45.46098" lon="0.68002">
        <ele>217</ele>
        <time>2012-11-25T07:48:40Z</time>
      </trkpt>
      <trkpt lat="45.46085" lon="0.67988">
        <ele>217</ele>
        <time>2012-11-25T07:48:43Z</time>
      </trkpt>
      <trkpt lat="45.46077" lon="0.67971">
        <ele>219</ele>
        <time>2012-11-25T07:48:46Z</time>
      </trkpt>
      <trkpt lat="45.46066" lon="0.67952">
        <ele>220</ele>
        <time>2012-11-25T07:48:49Z</time>
      </trkpt>
      <trkpt lat="45.46048" lon="0.6791">
        <ele>222</ele>
        <time>2012-11-25T07:48:56Z</time>
      </trkpt>
      <trkpt lat="45.46044" lon="0.6789">
        <ele>222</ele>
        <time>2012-11-25T07:48:59Z</time>
      </trkpt>
      <trkpt lat="45.4604" lon="0.67859">
        <ele>223</ele>
        <time>2012-11-25T07:49:03Z</time>
      </trkpt>
      <trkpt lat="45.46032" lon="0.67824">
        <ele>223</ele>
        <time>2012-11-25T07:49:08Z</time>
      </trkpt>
      <trkpt lat="45.46031" lon="0.67811">
        <ele>223</ele>
        <time>2012-11-25T07:49:10Z</time>
      </trkpt>
      <trkpt lat="45.4603" lon="0.67759">
        <ele>223</ele>
        <time>2012-11-25T07:49:16Z</time>
      </trkpt>
      <trkpt lat="45.4603" lon="0.67742">
        <ele>222</ele>
        <time>2012-11-25T07:49:18Z</time>
      </trkpt>
      <trkpt lat="45.46028" lon="0.67696">
        <ele>221</ele>
        <time>2012-11-25T07:49:23Z</time>
      </trkpt>
      <trkpt lat="45.46026" lon="0.67661">
        <ele>220</ele>
        <time>2012-11-25T07:49:27Z</time>
      </trkpt>
      <trkpt lat="45.46021" lon="0.6763">
        <ele>220</ele>
        <time>2012-11-25T07:49:31Z</time>
      </trkpt>
      <trkpt lat="45.46015" lon="0.67589">
        <ele>219</ele>
        <time>2012-11-25T07:49:36Z</time>
      </trkpt>
      <trkpt lat="45.46013" lon="0.67579">
        <ele>218</ele>
        <time>2012-11-25T07:49:37Z</time>
      </trkpt>
      <trkpt lat="45.46003" lon="0.6753">
        <ele>218</ele>
        <time>2012-11-25T07:49:42Z</time>
      </trkpt>
      <trkpt lat="45.45992" lon="0.67478">
        <ele>216</ele>
        <time>2012-11-25T07:49:48Z</time>
      </trkpt>
      <trkpt lat="45.45988" lon="0.6746">
        <ele>216</ele>
        <time>2012-11-25T07:49:50Z</time>
      </trkpt>
      <trkpt lat="45.4598" lon="0.67411">
        <ele>217</ele>
        <time>2012-11-25T07:49:56Z</time>
      </trkpt>
      <trkpt lat="45.45974" lon="0.67383">
        <ele>217</ele>
        <time>2012-11-25T07:49:59Z</time>
      </trkpt>
      <trkpt lat="45.45962" lon="0.67342">
        <ele>217</ele>
        <time>2012-11-25T07:50:04Z</time>
      </trkpt>
      <trkpt lat="45.45958" lon="0.67316">
        <ele>218</ele>
        <time>2012-11-25T07:50:07Z</time>
      </trkpt>
      <trkpt lat="45.45952" lon="0.67291">
        <ele>218</ele>
        <time>2012-11-25T07:50:10Z</time>
      </trkpt>
      <trkpt lat="45.45944" lon="0.67268">
        <ele>218</ele>
        <time>2012-11-25T07:50:13Z</time>
      </trkpt>
      <trkpt lat="45.45924" lon="0.67219">
        <ele>218</ele>
        <time>2012-11-25T07:50:19Z</time>
      </trkpt>
      <trkpt lat="45.45919" lon="0.67204">
        <ele>218</ele>
        <time>2012-11-25T07:50:21Z</time>
      </trkpt>
      <trkpt lat="45.45907" lon="0.67172">
        <ele>218</ele>
        <time>2012-11-25T07:50:25Z</time>
      </trkpt>
      <trkpt lat="45.45895" lon="0.67141">
        <ele>219</ele>
        <time>2012-11-25T07:50:29Z</time>
      </trkpt>
      <trkpt lat="45.4588" lon="0.67105">
        <ele>220</ele>
        <time>2012-11-25T07:50:34Z</time>
      </trkpt>
      <trkpt lat="45.4586" lon="0.67064">
        <ele>221</ele>
        <time>2012-11-25T07:50:40Z</time>
      </trkpt>
      <trkpt lat="45.45857" lon="0.67058">
        <ele>221</ele>
        <time>2012-11-25T07:50:41Z</time>
      </trkpt>
      <trkpt lat="45.45838" lon="0.67026">
        <ele>221</ele>
        <time>2012-11-25T07:50:46Z</time>
      </trkpt>
      <trkpt lat="45.45819" lon="0.66994">
        <ele>221</ele>
        <time>2012-11-25T07:50:51Z</time>
      </trkpt>
      <trkpt lat="45.45806" lon="0.66976">
        <ele>220</ele>
        <time>2012-11-25T07:50:54Z</time>
      </trkpt>
      <trkpt lat="45.45778" lon="0.66942">
        <ele>219</ele>
        <time>2012-11-25T07:51:00Z</time>
      </trkpt>
      <trkpt lat="45.45759" lon="0.66918">
        <ele>218</ele>
        <time>2012-11-25T07:51:04Z</time>
      </trkpt>
      <trkpt lat="45.45754" lon="0.66911">
        <ele>218</ele>
        <time>2012-11-25T07:51:05Z</time>
      </trkpt>
      <trkpt lat="45.45724" lon="0.66863">
        <ele>217</ele>
        <time>2012-11-25T07:51:12Z</time>
      </trkpt>
      <trkpt lat="45.4572" lon="0.66856">
        <ele>217</ele>
        <time>2012-11-25T07:51:13Z</time>
      </trkpt>
      <trkpt lat="45.45706" lon="0.66816">
        <ele>216</ele>
        <time>2012-11-25T07:51:18Z</time>
      </trkpt>
      <trkpt lat="45.45695" lon="0.6677">
        <ele>215</ele>
        <time>2012-11-25T07:51:23Z</time>
      </trkpt>
      <trkpt lat="45.45686" lon="0.66741">
        <ele>214</ele>
        <time>2012-11-25T07:51:27Z</time>
      </trkpt>
      <trkpt lat="45.45682" lon="0.66728">
        <ele>214</ele>
        <time>2012-11-25T07:51:31Z</time>
      </trkpt>
      <trkpt lat="45.45669" lon="0.66725">
        <ele>214</ele>
        <time>2012-11-25T07:51:34Z</time>
      </trkpt>
      <trkpt lat="45.4564" lon="0.66717">
        <ele>214</ele>
        <time>2012-11-25T07:51:40Z</time>
      </trkpt>
      <trkpt lat="45.4563" lon="0.66714">
        <ele>214</ele>
        <time>2012-11-25T07:51:42Z</time>
      </trkpt>
      <trkpt lat="45.456" lon="0.66705">
        <ele>214</ele>
        <time>2012-11-25T07:51:48Z</time>
      </trkpt>
      <trkpt lat="45.45578" lon="0.66699">
        <ele>215</ele>
        <time>2012-11-25T07:51:52Z</time>
      </trkpt>
      <trkpt lat="45.45555" lon="0.66692">
        <ele>216</ele>
        <time>2012-11-25T07:51:56Z</time>
      </trkpt>
      <trkpt lat="45.45532" lon="0.66685">
        <ele>216</ele>
        <time>2012-11-25T07:52:00Z</time>
      </trkpt>
      <trkpt lat="45.4552" lon="0.66682">
        <ele>216</ele>
        <time>2012-11-25T07:52:02Z</time>
      </trkpt>
      <trkpt lat="45.45496" lon="0.66675">
        <ele>217</ele>
        <time>2012-11-25T07:52:06Z</time>
      </trkpt>
      <trkpt lat="45.45466" lon="0.66667">
        <ele>218</ele>
        <time>2012-11-25T07:52:11Z</time>
      </trkpt>
      <trkpt lat="45.45438" lon="0.66658">
        <ele>218</ele>
        <time>2012-11-25T07:52:16Z</time>
      </trkpt>
      <trkpt lat="45.45432" lon="0.66657">
        <ele>218</ele>
        <time>2012-11-25T07:52:17Z</time>
      </trkpt>
      <trkpt lat="45.4541" lon="0.66652">
        <ele>218</ele>
        <time>2012-11-25T07:52:21Z</time>
      </trkpt>
      <trkpt lat="45.45365" lon="0.66639">
        <ele>217</ele>
        <time>2012-11-25T07:52:28Z</time>
      </trkpt>
      <trkpt lat="45.45358" lon="0.66637">
        <ele>217</ele>
        <time>2012-11-25T07:52:29Z</time>
      </trkpt>
      <trkpt lat="45.45326" lon="0.66628">
        <ele>216</ele>
        <time>2012-11-25T07:52:34Z</time>
      </trkpt>
      <trkpt lat="45.45285" lon="0.66617">
        <ele>216</ele>
        <time>2012-11-25T07:52:40Z</time>
      </trkpt>
      <trkpt lat="45.45271" lon="0.66613">
        <ele>216</ele>
        <time>2012-11-25T07:52:42Z</time>
      </trkpt>
      <trkpt lat="45.45246" lon="0.66606">
        <ele>215</ele>
        <time>2012-11-25T07:52:46Z</time>
      </trkpt>
      <trkpt lat="45.4521" lon="0.66595">
        <ele>214</ele>
        <time>2012-11-25T07:52:52Z</time>
      </trkpt>
      <trkpt lat="45.45204" lon="0.66577">
        <ele>214</ele>
        <time>2012-11-25T07:52:55Z</time>
      </trkpt>
      <trkpt lat="45.4521" lon="0.66562">
        <ele>215</ele>
        <time>2012-11-25T07:52:57Z</time>
      </trkpt>
      <trkpt lat="45.45223" lon="0.66514">
        <ele>215</ele>
        <time>2012-11-25T07:53:03Z</time>
      </trkpt>
      <trkpt lat="45.45231" lon="0.66483">
        <ele>215</ele>
        <time>2012-11-25T07:53:07Z</time>
      </trkpt>
      <trkpt lat="45.45242" lon="0.66443">
        <ele>214</ele>
        <time>2012-11-25T07:53:12Z</time>
      </trkpt>
      <trkpt lat="45.45248" lon="0.66418">
        <ele>215</ele>
        <time>2012-11-25T07:53:15Z</time>
      </trkpt>
      <trkpt lat="45.45253" lon="0.66401">
        <ele>214</ele>
        <time>2012-11-25T07:53:17Z</time>
      </trkpt>
      <trkpt lat="45.45264" lon="0.66361">
        <ele>214</ele>
        <time>2012-11-25T07:53:22Z</time>
      </trkpt>
      <trkpt lat="45.4527" lon="0.66334">
        <ele>214</ele>
        <time>2012-11-25T07:53:25Z</time>
      </trkpt>
      <trkpt lat="45.45293" lon="0.66278">
        <ele>215</ele>
        <time>2012-11-25T07:53:32Z</time>
      </trkpt>
      <trkpt lat="45.45297" lon="0.66262">
        <ele>215</ele>
        <time>2012-11-25T07:53:34Z</time>
      </trkpt>
      <trkpt lat="45.45311" lon="0.66208">
        <ele>216</ele>
        <time>2012-11-25T07:53:40Z</time>
      </trkpt>
      <trkpt lat="45.45305" lon="0.66173">
        <ele>216</ele>
        <time>2012-11-25T07:53:44Z</time>
      </trkpt>
      <trkpt lat="45.45303" lon="0.66165">
        <ele>215</ele>
        <time>2012-11-25T07:53:45Z</time>
      </trkpt>
      <trkpt lat="45.45291" lon="0.66133">
        <ele>214</ele>
        <time>2012-11-25T07:53:49Z</time>
      </trkpt>
      <trkpt lat="45.45268" lon="0.66073">
        <ele>211</ele>
        <time>2012-11-25T07:53:56Z</time>
      </trkpt>
      <trkpt lat="45.45262" lon="0.66055">
        <ele>210</ele>
        <time>2012-11-25T07:53:58Z</time>
      </trkpt>
      <trkpt lat="45.45249" lon="0.66019">
        <ele>209</ele>
        <time>2012-11-25T07:54:02Z</time>
      </trkpt>
      <trkpt lat="45.45237" lon="0.65989">
        <ele>207</ele>
        <time>2012-11-25T07:54:05Z</time>
      </trkpt>
      <trkpt lat="45.45216" lon="0.65912">
        <ele>204</ele>
        <time>2012-11-25T07:54:12Z</time>
      </trkpt>
      <trkpt lat="45.4521" lon="0.65869">
        <ele>204</ele>
        <time>2012-11-25T07:54:16Z</time>
      </trkpt>
      <trkpt lat="45.45208" lon="0.65831">
        <ele>204</ele>
        <time>2012-11-25T07:54:20Z</time>
      </trkpt>
      <trkpt lat="45.45208" lon="0.65821">
        <ele>204</ele>
        <time>2012-11-25T07:54:21Z</time>
      </trkpt>
      <trkpt lat="45.45208" lon="0.65783">
        <ele>203</ele>
        <time>2012-11-25T07:54:25Z</time>
      </trkpt>
      <trkpt lat="45.45203" lon="0.65717">
        <ele>202</ele>
        <time>2012-11-25T07:54:32Z</time>
      </trkpt>
      <trkpt lat="45.45202" lon="0.65699">
        <ele>202</ele>
        <time>2012-11-25T07:54:34Z</time>
      </trkpt>
      <trkpt lat="45.45195" lon="0.65644">
        <ele>200</ele>
        <time>2012-11-25T07:54:40Z</time>
      </trkpt>
      <trkpt lat="45.45188" lon="0.65604">
        <ele>200</ele>
        <time>2012-11-25T07:54:44Z</time>
      </trkpt>
      <trkpt lat="45.4518" lon="0.65564">
        <ele>198</ele>
        <time>2012-11-25T07:54:48Z</time>
      </trkpt>
      <trkpt lat="45.45166" lon="0.65528">
        <ele>197</ele>
        <time>2012-11-25T07:54:52Z</time>
      </trkpt>
      <trkpt lat="45.45158" lon="0.65511">
        <ele>198</ele>
        <time>2012-11-25T07:54:54Z</time>
      </trkpt>
      <trkpt lat="45.45131" lon="0.65465">
        <ele>198</ele>
        <time>2012-11-25T07:55:00Z</time>
      </trkpt>
      <trkpt lat="45.45125" lon="0.65457">
        <ele>198</ele>
        <time>2012-11-25T07:55:01Z</time>
      </trkpt>
      <trkpt lat="45.45103" lon="0.65418">
        <ele>199</ele>
        <time>2012-11-25T07:55:06Z</time>
      </trkpt>
      <trkpt lat="45.45092" lon="0.65397">
        <ele>199</ele>
        <time>2012-11-25T07:55:09Z</time>
      </trkpt>
      <trkpt lat="45.45073" lon="0.65362">
        <ele>200</ele>
        <time>2012-11-25T07:55:14Z</time>
      </trkpt>
      <trkpt lat="45.4506" lon="0.6533">
        <ele>199</ele>
        <time>2012-11-25T07:55:19Z</time>
      </trkpt>
      <trkpt lat="45.45052" lon="0.65314">
        <ele>199</ele>
        <time>2012-11-25T07:55:21Z</time>
      </trkpt>
      <trkpt lat="45.45033" lon="0.65253">
        <ele>198</ele>
        <time>2012-11-25T07:55:27Z</time>
      </trkpt>
      <trkpt lat="45.45027" lon="0.65221">
        <ele>196</ele>
        <time>2012-11-25T07:55:30Z</time>
      </trkpt>
      <trkpt lat="45.45016" lon="0.6518">
        <ele>195</ele>
        <time>2012-11-25T07:55:36Z</time>
      </trkpt>
      <trkpt lat="45.44988" lon="0.65178">
        <ele>193</ele>
        <time>2012-11-25T07:55:40Z</time>
      </trkpt>
      <trkpt lat="45.44959" lon="0.65171">
        <ele>191</ele>
        <time>2012-11-25T07:55:43Z</time>
      </trkpt>
      <trkpt lat="45.44921" lon="0.65144">
        <ele>185</ele>
        <time>2012-11-25T07:55:47Z</time>
      </trkpt>
      <trkpt lat="45.44892" lon="0.65125">
        <ele>180</ele>
        <time>2012-11-25T07:55:50Z</time>
      </trkpt>
      <trkpt lat="45.44864" lon="0.65106">
        <ele>179</ele>
        <time>2012-11-25T07:55:53Z</time>
      </trkpt>
      <trkpt lat="45.44822" lon="0.65089">
        <ele>178</ele>
        <time>2012-11-25T07:55:57Z</time>
      </trkpt>
      <trkpt lat="45.44783" lon="0.65049">
        <ele>183</ele>
        <time>2012-11-25T07:56:02Z</time>
      </trkpt>
      <trkpt lat="45.44744" lon="0.65031">
        <ele>189</ele>
        <time>2012-11-25T07:56:08Z</time>
      </trkpt>
      <trkpt lat="45.4472" lon="0.65024">
        <ele>189</ele>
        <time>2012-11-25T07:56:12Z</time>
      </trkpt>
      <trkpt lat="45.44712" lon="0.65024">
        <ele>189</ele>
        <time>2012-11-25T07:56:14Z</time>
      </trkpt>
      <trkpt lat="45.44694" lon="0.65018">
        <ele>190</ele>
        <time>2012-11-25T07:56:19Z</time>
      </trkpt>
      <trkpt lat="45.44686" lon="0.65014">
        <ele>190</ele>
        <time>2012-11-25T07:56:21Z</time>
      </trkpt>
      <trkpt lat="45.44661" lon="0.64998">
        <ele>193</ele>
        <time>2012-11-25T07:56:28Z</time>
      </trkpt>
      <trkpt lat="45.4465" lon="0.64985">
        <ele>193</ele>
        <time>2012-11-25T07:56:32Z</time>
      </trkpt>
      <trkpt lat="45.44623" lon="0.64964">
        <ele>193</ele>
        <time>2012-11-25T07:56:40Z</time>
      </trkpt>
      <trkpt lat="45.44611" lon="0.64965">
        <ele>193</ele>
        <time>2012-11-25T07:56:42Z</time>
      </trkpt>
      <trkpt lat="45.44587" lon="0.64973">
        <ele>192</ele>
        <time>2012-11-25T07:56:47Z</time>
      </trkpt>
      <trkpt lat="45.44577" lon="0.64976">
        <ele>191</ele>
        <time>2012-11-25T07:56:49Z</time>
      </trkpt>
      <trkpt lat="45.44557" lon="0.64984">
        <ele>191</ele>
        <time>2012-11-25T07:56:53Z</time>
      </trkpt>
      <trkpt lat="45.4454" lon="0.64998">
        <ele>192</ele>
        <time>2012-11-25T07:56:57Z</time>
      </trkpt>
      <trkpt lat="45.4452" lon="0.6502">
        <ele>194</ele>
        <time>2012-11-25T07:57:02Z</time>
      </trkpt>
      <trkpt lat="45.44508" lon="0.65033">
        <ele>194</ele>
        <time>2012-11-25T07:57:05Z</time>
      </trkpt>
      <trkpt lat="45.44485" lon="0.65055">
        <ele>199</ele>
        <time>2012-11-25T07:57:11Z</time>
      </trkpt>
      <trkpt lat="45.44465" lon="0.65065">
        <ele>200</ele>
        <time>2012-11-25T07:57:15Z</time>
      </trkpt>
      <trkpt lat="45.44448" lon="0.65077">
        <ele>201</ele>
        <time>2012-11-25T07:57:20Z</time>
      </trkpt>
      <trkpt lat="45.44441" lon="0.65081">
        <ele>202</ele>
        <time>2012-11-25T07:57:22Z</time>
      </trkpt>
      <trkpt lat="45.44427" lon="0.65089">
        <ele>203</ele>
        <time>2012-11-25T07:57:23Z</time>
      </trkpt>
      <trkpt lat="45.44407" lon="0.65101">
        <ele>205</ele>
        <time>2012-11-25T07:57:29Z</time>
      </trkpt>
      <trkpt lat="45.44402" lon="0.65105">
        <ele>205</ele>
        <time>2012-11-25T07:57:31Z</time>
      </trkpt>
      <trkpt lat="45.4438" lon="0.65116">
        <ele>205</ele>
        <time>2012-11-25T07:57:37Z</time>
      </trkpt>
      <trkpt lat="45.44363" lon="0.65126">
        <ele>206</ele>
        <time>2012-11-25T07:57:42Z</time>
      </trkpt>
      <trkpt lat="45.44334" lon="0.65139">
        <ele>207</ele>
        <time>2012-11-25T07:57:49Z</time>
      </trkpt>
      <trkpt lat="45.44319" lon="0.65141">
        <ele>207</ele>
        <time>2012-11-25T07:57:52Z</time>
      </trkpt>
      <trkpt lat="45.44301" lon="0.65137">
        <ele>207</ele>
        <time>2012-11-25T07:57:55Z</time>
      </trkpt>
      <trkpt lat="45.44284" lon="0.65134">
        <ele>206</ele>
        <time>2012-11-25T07:57:58Z</time>
      </trkpt>
      <trkpt lat="45.44249" lon="0.65125">
        <ele>204</ele>
        <time>2012-11-25T07:58:04Z</time>
      </trkpt>
      <trkpt lat="45.44227" lon="0.65119">
        <ele>204</ele>
        <time>2012-11-25T07:58:08Z</time>
      </trkpt>
      <trkpt lat="45.44205" lon="0.65113">
        <ele>204</ele>
        <time>2012-11-25T07:58:12Z</time>
      </trkpt>
      <trkpt lat="45.44183" lon="0.65104">
        <ele>203</ele>
        <time>2012-11-25T07:58:17Z</time>
      </trkpt>
      <trkpt lat="45.44171" lon="0.65096">
        <ele>203</ele>
        <time>2012-11-25T07:58:21Z</time>
      </trkpt>
      <trkpt lat="45.44173" lon="0.65071">
        <ele>202</ele>
        <time>2012-11-25T07:58:27Z</time>
      </trkpt>
      <trkpt lat="45.44183" lon="0.65041">
        <ele>202</ele>
        <time>2012-11-25T07:58:32Z</time>
      </trkpt>
      <trkpt lat="45.4419" lon="0.65027">
        <ele>202</ele>
        <time>2012-11-25T07:58:34Z</time>
      </trkpt>
      <trkpt lat="45.44203" lon="0.64998">
        <ele>199</ele>
        <time>2012-11-25T07:58:38Z</time>
      </trkpt>
      <trkpt lat="45.44227" lon="0.64939">
        <ele>198</ele>
        <time>2012-11-25T07:58:45Z</time>
      </trkpt>
      <trkpt lat="45.44242" lon="0.64902">
        <ele>196</ele>
        <time>2012-11-25T07:58:49Z</time>
      </trkpt>
      <trkpt lat="45.4425" lon="0.64883">
        <ele>196</ele>
        <time>2012-11-25T07:58:51Z</time>
      </trkpt>
      <trkpt lat="45.44268" lon="0.64837">
        <ele>197</ele>
        <time>2012-11-25T07:58:57Z</time>
      </trkpt>
      <trkpt lat="45.44235" lon="0.64825">
        <ele>194</ele>
        <time>2012-11-25T07:59:05Z</time>
      </trkpt>
      <trkpt lat="45.44225" lon="0.64824">
        <ele>193</ele>
        <time>2012-11-25T07:59:07Z</time>
      </trkpt>
      <trkpt lat="45.44193" lon="0.64822">
        <ele>191</ele>
        <time>2012-11-25T07:59:13Z</time>
      </trkpt>
      <trkpt lat="45.4416" lon="0.64836">
        <ele>191</ele>
        <time>2012-11-25T07:59:21Z</time>
      </trkpt>
      <trkpt lat="45.44153" lon="0.64839">
        <ele>191</ele>
        <time>2012-11-25T07:59:24Z</time>
      </trkpt>
      <trkpt lat="45.44147" lon="0.64841">
        <ele>192</ele>
        <time>2012-11-25T07:59:31Z</time>
      </trkpt>
      <trkpt lat="45.44136" lon="0.64844">
        <ele>192</ele>
        <time>2012-11-25T07:59:41Z</time>
      </trkpt>
      <trkpt lat="45.44131" lon="0.64845">
        <ele>192</ele>
        <time>2012-11-25T07:59:43Z</time>
      </trkpt>
      <trkpt lat="45.44113" lon="0.64847">
        <ele>192</ele>
        <time>2012-11-25T07:59:47Z</time>
      </trkpt>
      <trkpt lat="45.44093" lon="0.64854">
        <ele>192</ele>
        <time>2012-11-25T07:59:51Z</time>
      </trkpt>
      <trkpt lat="45.44083" lon="0.64838">
        <ele>191</ele>
        <time>2012-11-25T07:59:57Z</time>
      </trkpt>
      <trkpt lat="45.44071" lon="0.64829">
        <ele>191</ele>
        <time>2012-11-25T08:00:01Z</time>
      </trkpt>
      <trkpt lat="45.44064" lon="0.64828">
        <ele>191</ele>
        <time>2012-11-25T08:00:06Z</time>
      </trkpt>
      <trkpt lat="45.44055" lon="0.64829">
        <ele>191</ele>
        <time>2012-11-25T08:00:13Z</time>
      </trkpt>
      <trkpt lat="45.44046" lon="0.64828">
        <ele>191</ele>
        <time>2012-11-25T08:00:20Z</time>
      </trkpt>
      <trkpt lat="45.4404" lon="0.64827">
        <ele>192</ele>
        <time>2012-11-25T08:00:25Z</time>
      </trkpt>
      <trkpt lat="45.44033" lon="0.64824">
        <ele>192</ele>
        <time>2012-11-25T08:00:28Z</time>
      </trkpt>
      <trkpt lat="45.4402" lon="0.64815">
        <ele>193</ele>
        <time>2012-11-25T08:00:33Z</time>
      </trkpt>
      <trkpt lat="45.44015" lon="0.64811">
        <ele>193</ele>
        <time>2012-11-25T08:00:35Z</time>
      </trkpt>
      <trkpt lat="45.44007" lon="0.64805">
        <ele>193</ele>
        <time>2012-11-25T08:00:38Z</time>
      </trkpt>
      <trkpt lat="45.43978" lon="0.64789">
        <ele>192</ele>
        <time>2012-11-25T08:00:45Z</time>
      </trkpt>
      <trkpt lat="45.43958" lon="0.6478">
        <ele>192</ele>
        <time>2012-11-25T08:00:49Z</time>
      </trkpt>
      <trkpt lat="45.4394" lon="0.64772">
        <ele>191</ele>
        <time>2012-11-25T08:00:52Z</time>
      </trkpt>
      <trkpt lat="45.43921" lon="0.6476">
        <ele>189</ele>
        <time>2012-11-25T08:00:57Z</time>
      </trkpt>
      <trkpt lat="45.43923" lon="0.64747">
        <ele>188</ele>
        <time>2012-11-25T08:01:02Z</time>
      </trkpt>
      <trkpt lat="45.43923" lon="0.6473">
        <ele>188</ele>
        <time>2012-11-25T08:01:06Z</time>
      </trkpt>
      <trkpt lat="45.43886" lon="0.64687">
        <ele>181</ele>
        <time>2012-11-25T08:01:13Z</time>
      </trkpt>
      <trkpt lat="45.4386" lon="0.64658">
        <ele>176</ele>
        <time>2012-11-25T08:01:17Z</time>
      </trkpt>
      <trkpt lat="45.43844" lon="0.64634">
        <ele>175</ele>
        <time>2012-11-25T08:01:20Z</time>
      </trkpt>
      <trkpt lat="45.43823" lon="0.64588">
        <ele>172</ele>
        <time>2012-11-25T08:01:25Z</time>
      </trkpt>
      <trkpt lat="45.4382" lon="0.64579">
        <ele>172</ele>
        <time>2012-11-25T08:01:26Z</time>
      </trkpt>
      <trkpt lat="45.4381" lon="0.64539">
        <ele>175</ele>
        <time>2012-11-25T08:01:32Z</time>
      </trkpt>
      <trkpt lat="45.43804" lon="0.64512">
        <ele>175</ele>
        <time>2012-11-25T08:01:37Z</time>
      </trkpt>
      <trkpt lat="45.43796" lon="0.64492">
        <ele>178</ele>
        <time>2012-11-25T08:01:43Z</time>
      </trkpt>
      <trkpt lat="45.43793" lon="0.64482">
        <ele>179</ele>
        <time>2012-11-25T08:01:45Z</time>
      </trkpt>
      <trkpt lat="45.4379" lon="0.64468">
        <ele>179</ele>
        <time>2012-11-25T08:01:48Z</time>
      </trkpt>
      <trkpt lat="45.43785" lon="0.64445">
        <ele>180</ele>
        <time>2012-11-25T08:01:54Z</time>
      </trkpt>
      <trkpt lat="45.43776" lon="0.6441">
        <ele>184</ele>
        <time>2012-11-25T08:02:03Z</time>
      </trkpt>
      <trkpt lat="45.43774" lon="0.64395">
        <ele>185</ele>
        <time>2012-11-25T08:02:07Z</time>
      </trkpt>
      <trkpt lat="45.43773" lon="0.64383">
        <ele>185</ele>
        <time>2012-11-25T08:02:10Z</time>
      </trkpt>
      <trkpt lat="45.43768" lon="0.64365">
        <ele>186</ele>
        <time>2012-11-25T08:02:15Z</time>
      </trkpt>
      <trkpt lat="45.43768" lon="0.64348">
        <ele>187</ele>
        <time>2012-11-25T08:02:19Z</time>
      </trkpt>
      <trkpt lat="45.43767" lon="0.64337">
        <ele>187</ele>
        <time>2012-11-25T08:02:23Z</time>
      </trkpt>
      <trkpt lat="45.43756" lon="0.6433">
        <ele>189</ele>
        <time>2012-11-25T08:02:30Z</time>
      </trkpt>
      <trkpt lat="45.43749" lon="0.64328">
        <ele>188</ele>
        <time>2012-11-25T08:02:33Z</time>
      </trkpt>
      <trkpt lat="45.43727" lon="0.64324">
        <ele>187</ele>
        <time>2012-11-25T08:02:39Z</time>
      </trkpt>
      <trkpt lat="45.43711" lon="0.64322">
        <ele>186</ele>
        <time>2012-11-25T08:02:44Z</time>
      </trkpt>
      <trkpt lat="45.43693" lon="0.64322">
        <ele>185</ele>
        <time>2012-11-25T08:02:48Z</time>
      </trkpt>
      <trkpt lat="45.43684" lon="0.64322">
        <ele>184</ele>
        <time>2012-11-25T08:02:50Z</time>
      </trkpt>
      <trkpt lat="45.43656" lon="0.64323">
        <ele>182</ele>
        <time>2012-11-25T08:02:56Z</time>
      </trkpt>
      <trkpt lat="45.4364" lon="0.64321">
        <ele>182</ele>
        <time>2012-11-25T08:02:59Z</time>
      </trkpt>
      <trkpt lat="45.43619" lon="0.64322">
        <ele>182</ele>
        <time>2012-11-25T08:03:03Z</time>
      </trkpt>
      <trkpt lat="45.43599" lon="0.64319">
        <ele>183</ele>
        <time>2012-11-25T08:03:07Z</time>
      </trkpt>
      <trkpt lat="45.4359" lon="0.64315">
        <ele>183</ele>
        <time>2012-11-25T08:03:09Z</time>
      </trkpt>
      <trkpt lat="45.43562" lon="0.6431">
        <ele>183</ele>
        <time>2012-11-25T08:03:15Z</time>
      </trkpt>
      <trkpt lat="45.43548" lon="0.64308">
        <ele>182</ele>
        <time>2012-11-25T08:03:18Z</time>
      </trkpt>
      <trkpt lat="45.43526" lon="0.64301">
        <ele>182</ele>
        <time>2012-11-25T08:03:23Z</time>
      </trkpt>
      <trkpt lat="45.4351" lon="0.64293">
        <ele>181</ele>
        <time>2012-11-25T08:03:27Z</time>
      </trkpt>
      <trkpt lat="45.435" lon="0.64288">
        <ele>180</ele>
        <time>2012-11-25T08:03:29Z</time>
      </trkpt>
      <trkpt lat="45.43478" lon="0.64279">
        <ele>179</ele>
        <time>2012-11-25T08:03:33Z</time>
      </trkpt>
      <trkpt lat="45.43438" lon="0.64264">
        <ele>177</ele>
        <time>2012-11-25T08:03:40Z</time>
      </trkpt>
      <trkpt lat="45.43426" lon="0.64258">
        <ele>176</ele>
        <time>2012-11-25T08:03:42Z</time>
      </trkpt>
      <trkpt lat="45.43392" lon="0.64239">
        <ele>173</ele>
        <time>2012-11-25T08:03:48Z</time>
      </trkpt>
      <trkpt lat="45.43381" lon="0.64233">
        <ele>173</ele>
        <time>2012-11-25T08:03:50Z</time>
      </trkpt>
      <trkpt lat="45.43365" lon="0.64221">
        <ele>173</ele>
        <time>2012-11-25T08:03:54Z</time>
      </trkpt>
      <trkpt lat="45.43341" lon="0.64204">
        <ele>172</ele>
        <time>2012-11-25T08:04:00Z</time>
      </trkpt>
      <trkpt lat="45.43311" lon="0.64198">
        <ele>172</ele>
        <time>2012-11-25T08:04:05Z</time>
      </trkpt>
      <trkpt lat="45.43291" lon="0.64211">
        <ele>172</ele>
        <time>2012-11-25T08:04:09Z</time>
      </trkpt>
      <trkpt lat="45.43261" lon="0.64248">
        <ele>172</ele>
        <time>2012-11-25T08:04:16Z</time>
      </trkpt>
      <trkpt lat="45.43254" lon="0.64259">
        <ele>173</ele>
        <time>2012-11-25T08:04:18Z</time>
      </trkpt>
      <trkpt lat="45.43236" lon="0.64287">
        <ele>173</ele>
        <time>2012-11-25T08:04:23Z</time>
      </trkpt>
      <trkpt lat="45.43218" lon="0.64312">
        <ele>173</ele>
        <time>2012-11-25T08:04:28Z</time>
      </trkpt>
      <trkpt lat="45.43203" lon="0.6433">
        <ele>172</ele>
        <time>2012-11-25T08:04:32Z</time>
      </trkpt>
      <trkpt lat="45.4317" lon="0.64362">
        <ele>173</ele>
        <time>2012-11-25T08:04:40Z</time>
      </trkpt>
      <trkpt lat="45.43153" lon="0.64377">
        <ele>173</ele>
        <time>2012-11-25T08:04:44Z</time>
      </trkpt>
      <trkpt lat="45.43137" lon="0.6439">
        <ele>174</ele>
        <time>2012-11-25T08:04:48Z</time>
      </trkpt>
      <trkpt lat="45.43126" lon="0.644">
        <ele>174</ele>
        <time>2012-11-25T08:04:51Z</time>
      </trkpt>
      <trkpt lat="45.43108" lon="0.64414">
        <ele>175</ele>
        <time>2012-11-25T08:04:56Z</time>
      </trkpt>
      <trkpt lat="45.43089" lon="0.64427">
        <ele>176</ele>
        <time>2012-11-25T08:05:02Z</time>
      </trkpt>
      <trkpt lat="45.4308" lon="0.64432">
        <ele>178</ele>
        <time>2012-11-25T08:05:05Z</time>
      </trkpt>
      <trkpt lat="45.43062" lon="0.64438">
        <ele>179</ele>
        <time>2012-11-25T08:05:11Z</time>
      </trkpt>
      <trkpt lat="45.43045" lon="0.64438">
        <ele>179</ele>
        <time>2012-11-25T08:05:16Z</time>
      </trkpt>
      <trkpt lat="45.43025" lon="0.64432">
        <ele>180</ele>
        <time>2012-11-25T08:05:22Z</time>
      </trkpt>
      <trkpt lat="45.43008" lon="0.64423">
        <ele>182</ele>
        <time>2012-11-25T08:05:27Z</time>
      </trkpt>
      <trkpt lat="45.42999" lon="0.64416">
        <ele>183</ele>
        <time>2012-11-25T08:05:30Z</time>
      </trkpt>
      <trkpt lat="45.4299" lon="0.64408">
        <ele>185</ele>
        <time>2012-11-25T08:05:33Z</time>
      </trkpt>
      <trkpt lat="45.42979" lon="0.644">
        <ele>186</ele>
        <time>2012-11-25T08:05:37Z</time>
      </trkpt>
      <trkpt lat="45.42967" lon="0.64389">
        <ele>187</ele>
        <time>2012-11-25T08:05:42Z</time>
      </trkpt>
      <trkpt lat="45.42957" lon="0.64373">
        <ele>188</ele>
        <time>2012-11-25T08:05:47Z</time>
      </trkpt>
      <trkpt lat="45.42951" lon="0.64366">
        <ele>188</ele>
        <time>2012-11-25T08:05:49Z</time>
      </trkpt>
      <trkpt lat="45.42942" lon="0.64355">
        <ele>189</ele>
        <time>2012-11-25T08:05:53Z</time>
      </trkpt>
      <trkpt lat="45.42921" lon="0.6435">
        <ele>191</ele>
        <time>2012-11-25T08:06:00Z</time>
      </trkpt>
      <trkpt lat="45.4291" lon="0.64357">
        <ele>194</ele>
        <time>2012-11-25T08:06:04Z</time>
      </trkpt>
      <trkpt lat="45.42895" lon="0.6437">
        <ele>194</ele>
        <time>2012-11-25T08:06:09Z</time>
      </trkpt>
      <trkpt lat="45.42864" lon="0.64361">
        <ele>195</ele>
        <time>2012-11-25T08:06:16Z</time>
      </trkpt>
      <trkpt lat="45.42858" lon="0.64353">
        <ele>196</ele>
        <time>2012-11-25T08:06:18Z</time>
      </trkpt>
      <trkpt lat="45.42846" lon="0.64341">
        <ele>197</ele>
        <time>2012-11-25T08:06:22Z</time>
      </trkpt>
      <trkpt lat="45.42837" lon="0.64322">
        <ele>200</ele>
        <time>2012-11-25T08:06:27Z</time>
      </trkpt>
      <trkpt lat="45.42834" lon="0.64315">
        <ele>200</ele>
        <time>2012-11-25T08:06:29Z</time>
      </trkpt>
      <trkpt lat="45.4282" lon="0.643">
        <ele>206</ele>
        <time>2012-11-25T08:06:34Z</time>
      </trkpt>
      <trkpt lat="45.42814" lon="0.64293">
        <ele>207</ele>
        <time>2012-11-25T08:06:37Z</time>
      </trkpt>
      <trkpt lat="45.42802" lon="0.6428">
        <ele>208</ele>
        <time>2012-11-25T08:06:43Z</time>
      </trkpt>
      <trkpt lat="45.42792" lon="0.6427">
        <ele>209</ele>
        <time>2012-11-25T08:06:49Z</time>
      </trkpt>
      <trkpt lat="45.42785" lon="0.64262">
        <ele>209</ele>
        <time>2012-11-25T08:06:54Z</time>
      </trkpt>
      <trkpt lat="45.42781" lon="0.64258">
        <ele>210</ele>
        <time>2012-11-25T08:06:56Z</time>
      </trkpt>
      <trkpt lat="45.42775" lon="0.64249">
        <ele>216</ele>
        <time>2012-11-25T08:07:01Z</time>
      </trkpt>
      <trkpt lat="45.42765" lon="0.64238">
        <ele>216</ele>
        <time>2012-11-25T08:07:06Z</time>
      </trkpt>
      <trkpt lat="45.42754" lon="0.64225">
        <ele>217</ele>
        <time>2012-11-25T08:07:13Z</time>
      </trkpt>
      <trkpt lat="45.42746" lon="0.6422">
        <ele>221</ele>
        <time>2012-11-25T08:07:18Z</time>
      </trkpt>
      <trkpt lat="45.42733" lon="0.64222">
        <ele>221</ele>
        <time>2012-11-25T08:07:23Z</time>
      </trkpt>
      <trkpt lat="45.42728" lon="0.64239">
        <ele>220</ele>
        <time>2012-11-25T08:07:28Z</time>
      </trkpt>
      <trkpt lat="45.42727" lon="0.64248">
        <ele>220</ele>
        <time>2012-11-25T08:07:29Z</time>
      </trkpt>
      <trkpt lat="45.42722" lon="0.64278">
        <ele>216</ele>
        <time>2012-11-25T08:07:35Z</time>
      </trkpt>
      <trkpt lat="45.42715" lon="0.643">
        <ele>216</ele>
        <time>2012-11-25T08:07:39Z</time>
      </trkpt>
      <trkpt lat="45.42708" lon="0.64323">
        <ele>216</ele>
        <time>2012-11-25T08:07:43Z</time>
      </trkpt>
      <trkpt lat="45.42704" lon="0.64348">
        <ele>215</ele>
        <time>2012-11-25T08:07:48Z</time>
      </trkpt>
      <trkpt lat="45.42703" lon="0.64374">
        <ele>214</ele>
        <time>2012-11-25T08:07:55Z</time>
      </trkpt>
      <trkpt lat="45.42702" lon="0.64387">
        <ele>214</ele>
        <time>2012-11-25T08:07:58Z</time>
      </trkpt>
      <trkpt lat="45.42694" lon="0.64395">
        <ele>215</ele>
        <time>2012-11-25T08:08:00Z</time>
      </trkpt>
      <trkpt lat="45.42684" lon="0.64374">
        <ele>216</ele>
        <time>2012-11-25T08:08:05Z</time>
      </trkpt>
      <trkpt lat="45.42681" lon="0.6436">
        <ele>216</ele>
        <time>2012-11-25T08:08:09Z</time>
      </trkpt>
      <trkpt lat="45.42674" lon="0.6433">
        <ele>220</ele>
        <time>2012-11-25T08:08:14Z</time>
      </trkpt>
      <trkpt lat="45.42672" lon="0.64312">
        <ele>219</ele>
        <time>2012-11-25T08:08:18Z</time>
      </trkpt>
      <trkpt lat="45.42669" lon="0.64295">
        <ele>219</ele>
        <time>2012-11-25T08:08:23Z</time>
      </trkpt>
      <trkpt lat="45.42665" lon="0.64275">
        <ele>224</ele>
        <time>2012-11-25T08:08:27Z</time>
      </trkpt>
      <trkpt lat="45.42662" lon="0.6426">
        <ele>224</ele>
        <time>2012-11-25T08:08:31Z</time>
      </trkpt>
      <trkpt lat="45.42659" lon="0.64243">
        <ele>225</ele>
        <time>2012-11-25T08:08:36Z</time>
      </trkpt>
      <trkpt lat="45.42657" lon="0.64225">
        <ele>227</ele>
        <time>2012-11-25T08:08:40Z</time>
      </trkpt>
      <trkpt lat="45.42655" lon="0.64209">
        <ele>227</ele>
        <time>2012-11-25T08:08:44Z</time>
      </trkpt>
      <trkpt lat="45.42652" lon="0.64197">
        <ele>228</ele>
        <time>2012-11-25T08:08:46Z</time>
      </trkpt>
      <trkpt lat="45.42649" lon="0.64185">
        <ele>228</ele>
        <time>2012-11-25T08:08:49Z</time>
      </trkpt>
      <trkpt lat="45.42647" lon="0.64165">
        <ele>231</ele>
        <time>2012-11-25T08:08:55Z</time>
      </trkpt>
      <trkpt lat="45.42644" lon="0.64147">
        <ele>231</ele>
        <time>2012-11-25T08:09:00Z</time>
      </trkpt>
      <trkpt lat="45.42641" lon="0.64136">
        <ele>231</ele>
        <time>2012-11-25T08:09:02Z</time>
      </trkpt>
      <trkpt lat="45.42636" lon="0.64109">
        <ele>232</ele>
        <time>2012-11-25T08:09:09Z</time>
      </trkpt>
      <trkpt lat="45.42631" lon="0.64091">
        <ele>232</ele>
        <time>2012-11-25T08:09:14Z</time>
      </trkpt>
      <trkpt lat="45.42631" lon="0.64073">
        <ele>234</ele>
        <time>2012-11-25T08:09:17Z</time>
      </trkpt>
      <trkpt lat="45.42636" lon="0.64042">
        <ele>235</ele>
        <time>2012-11-25T08:09:24Z</time>
      </trkpt>
      <trkpt lat="45.42636" lon="0.63997">
        <ele>238</ele>
        <time>2012-11-25T08:09:31Z</time>
      </trkpt>
      <trkpt lat="45.42639" lon="0.63968">
        <ele>238</ele>
        <time>2012-11-25T08:09:36Z</time>
      </trkpt>
      <trkpt lat="45.42636" lon="0.63926">
        <ele>239</ele>
        <time>2012-11-25T08:09:44Z</time>
      </trkpt>
      <trkpt lat="45.42634" lon="0.63916">
        <ele>241</ele>
        <time>2012-11-25T08:09:46Z</time>
      </trkpt>
      <trkpt lat="45.42629" lon="0.63892">
        <ele>241</ele>
        <time>2012-11-25T08:09:51Z</time>
      </trkpt>
      <trkpt lat="45.42625" lon="0.63882">
        <ele>241</ele>
        <time>2012-11-25T08:09:53Z</time>
      </trkpt>
      <trkpt lat="45.42617" lon="0.63848">
        <ele>241</ele>
        <time>2012-11-25T08:09:59Z</time>
      </trkpt>
      <trkpt lat="45.42614" lon="0.63832">
        <ele>243</ele>
        <time>2012-11-25T08:10:04Z</time>
      </trkpt>
      <trkpt lat="45.42588" lon="0.638">
        <ele>243</ele>
        <time>2012-11-25T08:10:12Z</time>
      </trkpt>
      <trkpt lat="45.42582" lon="0.63791">
        <ele>241</ele>
        <time>2012-11-25T08:10:14Z</time>
      </trkpt>
      <trkpt lat="45.42566" lon="0.63762">
        <ele>241</ele>
        <time>2012-11-25T08:10:20Z</time>
      </trkpt>
      <trkpt lat="45.42558" lon="0.63747">
        <ele>241</ele>
        <time>2012-11-25T08:10:23Z</time>
      </trkpt>
      <trkpt lat="45.42552" lon="0.6373">
        <ele>241</ele>
        <time>2012-11-25T08:10:26Z</time>
      </trkpt>
      <trkpt lat="45.42538" lon="0.63698">
        <ele>240</ele>
        <time>2012-11-25T08:10:32Z</time>
      </trkpt>
      <trkpt lat="45.42527" lon="0.63669">
        <ele>240</ele>
        <time>2012-11-25T08:10:37Z</time>
      </trkpt>
      <trkpt lat="45.42518" lon="0.63647">
        <ele>240</ele>
        <time>2012-11-25T08:10:41Z</time>
      </trkpt>
      <trkpt lat="45.425" lon="0.63605">
        <ele>237</ele>
        <time>2012-11-25T08:10:48Z</time>
      </trkpt>
      <trkpt lat="45.42483" lon="0.63563">
        <ele>237</ele>
        <time>2012-11-25T08:10:55Z</time>
      </trkpt>
      <trkpt lat="45.42479" lon="0.6355">
        <ele>237</ele>
        <time>2012-11-25T08:10:57Z</time>
      </trkpt>
      <trkpt lat="45.42463" lon="0.63505">
        <ele>237</ele>
        <time>2012-11-25T08:11:03Z</time>
      </trkpt>
      <trkpt lat="45.42457" lon="0.63488">
        <ele>236</ele>
        <time>2012-11-25T08:11:05Z</time>
      </trkpt>
      <trkpt lat="45.42438" lon="0.63434">
        <ele>235</ele>
        <time>2012-11-25T08:11:11Z</time>
      </trkpt>
      <trkpt lat="45.42432" lon="0.63417">
        <ele>234</ele>
        <time>2012-11-25T08:11:13Z</time>
      </trkpt>
      <trkpt lat="45.42398" lon="0.63385">
        <ele>229</ele>
        <time>2012-11-25T08:11:19Z</time>
      </trkpt>
      <trkpt lat="45.42353" lon="0.63372">
        <ele>227</ele>
        <time>2012-11-25T08:11:24Z</time>
      </trkpt>
      <trkpt lat="45.42324" lon="0.63358">
        <ele>224</ele>
        <time>2012-11-25T08:11:27Z</time>
      </trkpt>
      <trkpt lat="45.42304" lon="0.63348">
        <ele>224</ele>
        <time>2012-11-25T08:11:29Z</time>
      </trkpt>
      <trkpt lat="45.42241" lon="0.63324">
        <ele>221</ele>
        <time>2012-11-25T08:11:36Z</time>
      </trkpt>
      <trkpt lat="45.42224" lon="0.63314">
        <ele>220</ele>
        <time>2012-11-25T08:11:38Z</time>
      </trkpt>
      <trkpt lat="45.42196" lon="0.63285">
        <ele>220</ele>
        <time>2012-11-25T08:11:42Z</time>
      </trkpt>
      <trkpt lat="45.42178" lon="0.63267">
        <ele>220</ele>
        <time>2012-11-25T08:11:45Z</time>
      </trkpt>
      <trkpt lat="45.42168" lon="0.63222">
        <ele>219</ele>
        <time>2012-11-25T08:11:50Z</time>
      </trkpt>
      <trkpt lat="45.4217" lon="0.63193">
        <ele>219</ele>
        <time>2012-11-25T08:11:53Z</time>
      </trkpt>
      <trkpt lat="45.42138" lon="0.63181">
        <ele>223</ele>
        <time>2012-11-25T08:12:00Z</time>
      </trkpt>
      <trkpt lat="45.4212" lon="0.63173">
        <ele>225</ele>
        <time>2012-11-25T08:12:04Z</time>
      </trkpt>
      <trkpt lat="45.42108" lon="0.63163">
        <ele>227</ele>
        <time>2012-11-25T08:12:07Z</time>
      </trkpt>
      <trkpt lat="45.42091" lon="0.63151">
        <ele>228</ele>
        <time>2012-11-25T08:12:12Z</time>
      </trkpt>
      <trkpt lat="45.42083" lon="0.63148">
        <ele>230</ele>
        <time>2012-11-25T08:12:14Z</time>
      </trkpt>
      <trkpt lat="45.42065" lon="0.63141">
        <ele>231</ele>
        <time>2012-11-25T08:12:19Z</time>
      </trkpt>
      <trkpt lat="45.42047" lon="0.63133">
        <ele>231</ele>
        <time>2012-11-25T08:12:24Z</time>
      </trkpt>
      <trkpt lat="45.42041" lon="0.63129">
        <ele>231</ele>
        <time>2012-11-25T08:12:26Z</time>
      </trkpt>
      <trkpt lat="45.42026" lon="0.63114">
        <ele>232</ele>
        <time>2012-11-25T08:12:31Z</time>
      </trkpt>
      <trkpt lat="45.4201" lon="0.63101">
        <ele>232</ele>
        <time>2012-11-25T08:12:36Z</time>
      </trkpt>
      <trkpt lat="45.41986" lon="0.63078">
        <ele>233</ele>
        <time>2012-11-25T08:12:44Z</time>
      </trkpt>
      <trkpt lat="45.41961" lon="0.63052">
        <ele>234</ele>
        <time>2012-11-25T08:12:51Z</time>
      </trkpt>
      <trkpt lat="45.41941" lon="0.63034">
        <ele>234</ele>
        <time>2012-11-25T08:12:57Z</time>
      </trkpt>
      <trkpt lat="45.41926" lon="0.63024">
        <ele>234</ele>
        <time>2012-11-25T08:13:01Z</time>
      </trkpt>
      <trkpt lat="45.41915" lon="0.63018">
        <ele>235</ele>
        <time>2012-11-25T08:13:04Z</time>
      </trkpt>
      <trkpt lat="45.41893" lon="0.6301">
        <ele>235</ele>
        <time>2012-11-25T08:13:10Z</time>
      </trkpt>
      <trkpt lat="45.41878" lon="0.63005">
        <ele>235</ele>
        <time>2012-11-25T08:13:14Z</time>
      </trkpt>
      <trkpt lat="45.41869" lon="0.63003">
        <ele>235</ele>
        <time>2012-11-25T08:13:16Z</time>
      </trkpt>
      <trkpt lat="45.41836" lon="0.62995">
        <ele>235</ele>
        <time>2012-11-25T08:13:23Z</time>
      </trkpt>
      <trkpt lat="45.41814" lon="0.6299">
        <ele>235</ele>
        <time>2012-11-25T08:13:27Z</time>
      </trkpt>
      <trkpt lat="45.41793" lon="0.62984">
        <ele>235</ele>
        <time>2012-11-25T08:13:31Z</time>
      </trkpt>
      <trkpt lat="45.41787" lon="0.62982">
        <ele>235</ele>
        <time>2012-11-25T08:13:32Z</time>
      </trkpt>
      <trkpt lat="45.41746" lon="0.6297">
        <ele>235</ele>
        <time>2012-11-25T08:13:39Z</time>
      </trkpt>
      <trkpt lat="45.41726" lon="0.62963">
        <ele>235</ele>
        <time>2012-11-25T08:13:43Z</time>
      </trkpt>
      <trkpt lat="45.41711" lon="0.62959">
        <ele>235</ele>
        <time>2012-11-25T08:13:46Z</time>
      </trkpt>
      <trkpt lat="45.41685" lon="0.6295">
        <ele>235</ele>
        <time>2012-11-25T08:13:51Z</time>
      </trkpt>
      <trkpt lat="45.41659" lon="0.62939">
        <ele>234</ele>
        <time>2012-11-25T08:13:56Z</time>
      </trkpt>
      <trkpt lat="45.4162" lon="0.62919">
        <ele>233</ele>
        <time>2012-11-25T08:14:03Z</time>
      </trkpt>
      <trkpt lat="45.41609" lon="0.6291">
        <ele>233</ele>
        <time>2012-11-25T08:14:05Z</time>
      </trkpt>
      <trkpt lat="45.41578" lon="0.62877">
        <ele>233</ele>
        <time>2012-11-25T08:14:11Z</time>
      </trkpt>
      <trkpt lat="45.41559" lon="0.62854">
        <ele>233</ele>
        <time>2012-11-25T08:14:15Z</time>
      </trkpt>
      <trkpt lat="45.4155" lon="0.62842">
        <ele>233</ele>
        <time>2012-11-25T08:14:17Z</time>
      </trkpt>
      <trkpt lat="45.41537" lon="0.62825">
        <ele>235</ele>
        <time>2012-11-25T08:14:20Z</time>
      </trkpt>
      <trkpt lat="45.41507" lon="0.62788">
        <ele>236</ele>
        <time>2012-11-25T08:14:27Z</time>
      </trkpt>
      <trkpt lat="45.41503" lon="0.62783">
        <ele>236</ele>
        <time>2012-11-25T08:14:28Z</time>
      </trkpt>
      <trkpt lat="45.41486" lon="0.62755">
        <ele>237</ele>
        <time>2012-11-25T08:14:33Z</time>
      </trkpt>
      <trkpt lat="45.41471" lon="0.6275">
        <ele>238</ele>
        <time>2012-11-25T08:14:36Z</time>
      </trkpt>
      <trkpt lat="45.41443" lon="0.62737">
        <ele>238</ele>
        <time>2012-11-25T08:14:43Z</time>
      </trkpt>
      <trkpt lat="45.41435" lon="0.62724">
        <ele>238</ele>
        <time>2012-11-25T08:14:46Z</time>
      </trkpt>
      <trkpt lat="45.41413" lon="0.62704">
        <ele>237</ele>
        <time>2012-11-25T08:14:51Z</time>
      </trkpt>
      <trkpt lat="45.41391" lon="0.62694">
        <ele>237</ele>
        <time>2012-11-25T08:14:55Z</time>
      </trkpt>
      <trkpt lat="45.41385" lon="0.62691">
        <ele>237</ele>
        <time>2012-11-25T08:14:56Z</time>
      </trkpt>
      <trkpt lat="45.41363" lon="0.62678">
        <ele>236</ele>
        <time>2012-11-25T08:15:01Z</time>
      </trkpt>
      <trkpt lat="45.41329" lon="0.62658">
        <ele>235</ele>
        <time>2012-11-25T08:15:07Z</time>
      </trkpt>
      <trkpt lat="45.41298" lon="0.6264">
        <ele>234</ele>
        <time>2012-11-25T08:15:12Z</time>
      </trkpt>
      <trkpt lat="45.41293" lon="0.62637">
        <ele>234</ele>
        <time>2012-11-25T08:15:13Z</time>
      </trkpt>
      <trkpt lat="45.4126" lon="0.62612">
        <ele>233</ele>
        <time>2012-11-25T08:15:19Z</time>
      </trkpt>
      <trkpt lat="45.41231" lon="0.62589">
        <ele>229</ele>
        <time>2012-11-25T08:15:24Z</time>
      </trkpt>
      <trkpt lat="45.41222" lon="0.62582">
        <ele>226</ele>
        <time>2012-11-25T08:15:26Z</time>
      </trkpt>
      <trkpt lat="45.41186" lon="0.62571">
        <ele>224</ele>
        <time>2012-11-25T08:15:32Z</time>
      </trkpt>
      <trkpt lat="45.41179" lon="0.62572">
        <ele>224</ele>
        <time>2012-11-25T08:15:33Z</time>
      </trkpt>
      <trkpt lat="45.41135" lon="0.62587">
        <ele>220</ele>
        <time>2012-11-25T08:15:39Z</time>
      </trkpt>
      <trkpt lat="45.41123" lon="0.62596">
        <ele>219</ele>
        <time>2012-11-25T08:15:41Z</time>
      </trkpt>
      <trkpt lat="45.41072" lon="0.62594">
        <ele>210</ele>
        <time>2012-11-25T08:15:48Z</time>
      </trkpt>
      <trkpt lat="45.41065" lon="0.62589">
        <ele>209</ele>
        <time>2012-11-25T08:15:49Z</time>
      </trkpt>
      <trkpt lat="45.41018" lon="0.62564">
        <ele>204</ele>
        <time>2012-11-25T08:15:56Z</time>
      </trkpt>
      <trkpt lat="45.4101" lon="0.6256">
        <ele>203</ele>
        <time>2012-11-25T08:15:57Z</time>
      </trkpt>
      <trkpt lat="45.40977" lon="0.62549">
        <ele>201</ele>
        <time>2012-11-25T08:16:02Z</time>
      </trkpt>
      <trkpt lat="45.40957" lon="0.62544">
        <ele>201</ele>
        <time>2012-11-25T08:16:07Z</time>
      </trkpt>
      <trkpt lat="45.40952" lon="0.62544">
        <ele>201</ele>
        <time>2012-11-25T08:16:09Z</time>
      </trkpt>
      <trkpt lat="45.40927" lon="0.6254">
        <ele>200</ele>
        <time>2012-11-25T08:16:14Z</time>
      </trkpt>
      <trkpt lat="45.40911" lon="0.62538">
        <ele>201</ele>
        <time>2012-11-25T08:16:17Z</time>
      </trkpt>
      <trkpt lat="45.40889" lon="0.62536">
        <ele>201</ele>
        <time>2012-11-25T08:16:21Z</time>
      </trkpt>
      <trkpt lat="45.40857" lon="0.62532">
        <ele>202</ele>
        <time>2012-11-25T08:16:26Z</time>
      </trkpt>
      <trkpt lat="45.4083" lon="0.62533">
        <ele>204</ele>
        <time>2012-11-25T08:16:31Z</time>
      </trkpt>
      <trkpt lat="45.40807" lon="0.62538">
        <ele>204</ele>
        <time>2012-11-25T08:16:35Z</time>
      </trkpt>
      <trkpt lat="45.40792" lon="0.6254">
        <ele>204</ele>
        <time>2012-11-25T08:16:39Z</time>
      </trkpt>
      <trkpt lat="45.40767" lon="0.62546">
        <ele>203</ele>
        <time>2012-11-25T08:16:46Z</time>
      </trkpt>
      <trkpt lat="45.40758" lon="0.62548">
        <ele>203</ele>
        <time>2012-11-25T08:16:48Z</time>
      </trkpt>
      <trkpt lat="45.40724" lon="0.62554">
        <ele>203</ele>
        <time>2012-11-25T08:16:55Z</time>
      </trkpt>
      <trkpt lat="45.40712" lon="0.62559">
        <ele>203</ele>
        <time>2012-11-25T08:16:57Z</time>
      </trkpt>
      <trkpt lat="45.40676" lon="0.62584">
        <ele>203</ele>
        <time>2012-11-25T08:17:03Z</time>
      </trkpt>
      <trkpt lat="45.40653" lon="0.62604">
        <ele>204</ele>
        <time>2012-11-25T08:17:07Z</time>
      </trkpt>
      <trkpt lat="45.40636" lon="0.62613">
        <ele>205</ele>
        <time>2012-11-25T08:17:10Z</time>
      </trkpt>
      <trkpt lat="45.40616" lon="0.62636">
        <ele>206</ele>
        <time>2012-11-25T08:17:15Z</time>
      </trkpt>
      <trkpt lat="45.406" lon="0.62668">
        <ele>208</ele>
        <time>2012-11-25T08:17:21Z</time>
      </trkpt>
      <trkpt lat="45.40583" lon="0.62687">
        <ele>213</ele>
        <time>2012-11-25T08:17:26Z</time>
      </trkpt>
      <trkpt lat="45.40577" lon="0.62692">
        <ele>213</ele>
        <time>2012-11-25T08:17:28Z</time>
      </trkpt>
      <trkpt lat="45.40556" lon="0.62702">
        <ele>214</ele>
        <time>2012-11-25T08:17:34Z</time>
      </trkpt>
      <trkpt lat="45.40544" lon="0.6271">
        <ele>214</ele>
        <time>2012-11-25T08:17:38Z</time>
      </trkpt>
      <trkpt lat="45.40537" lon="0.62715">
        <ele>215</ele>
        <time>2012-11-25T08:17:40Z</time>
      </trkpt>
      <trkpt lat="45.40516" lon="0.62731">
        <ele>215</ele>
        <time>2012-11-25T08:17:45Z</time>
      </trkpt>
      <trkpt lat="45.40487" lon="0.62753">
        <ele>212</ele>
        <time>2012-11-25T08:17:50Z</time>
      </trkpt>
      <trkpt lat="45.40463" lon="0.62772">
        <ele>208</ele>
        <time>2012-11-25T08:17:54Z</time>
      </trkpt>
      <trkpt lat="45.40439" lon="0.62788">
        <ele>206</ele>
        <time>2012-11-25T08:17:58Z</time>
      </trkpt>
      <trkpt lat="45.40406" lon="0.6279">
        <ele>200</ele>
        <time>2012-11-25T08:18:02Z</time>
      </trkpt>
      <trkpt lat="45.40388" lon="0.62792">
        <ele>199</ele>
        <time>2012-11-25T08:18:05Z</time>
      </trkpt>
      <trkpt lat="45.40374" lon="0.62794">
        <ele>198</ele>
        <time>2012-11-25T08:18:08Z</time>
      </trkpt>
      <trkpt lat="45.4035" lon="0.62797">
        <ele>197</ele>
        <time>2012-11-25T08:18:14Z</time>
      </trkpt>
      <trkpt lat="45.40338" lon="0.62803">
        <ele>196</ele>
        <time>2012-11-25T08:18:16Z</time>
      </trkpt>
      <trkpt lat="45.40334" lon="0.62848">
        <ele>193</ele>
        <time>2012-11-25T08:18:23Z</time>
      </trkpt>
      <trkpt lat="45.40334" lon="0.62858">
        <ele>193</ele>
        <time>2012-11-25T08:18:24Z</time>
      </trkpt>
      <trkpt lat="45.40324" lon="0.62878">
        <ele>188</ele>
        <time>2012-11-25T08:18:28Z</time>
      </trkpt>
      <trkpt lat="45.40314" lon="0.62904">
        <ele>187</ele>
        <time>2012-11-25T08:18:32Z</time>
      </trkpt>
      <trkpt lat="45.40299" lon="0.6296">
        <ele>181</ele>
        <time>2012-11-25T08:18:38Z</time>
      </trkpt>
      <trkpt lat="45.40298" lon="0.62984">
        <ele>181</ele>
        <time>2012-11-25T08:18:40Z</time>
      </trkpt>
      <trkpt lat="45.40294" lon="0.63032">
        <ele>177</ele>
        <time>2012-11-25T08:18:44Z</time>
      </trkpt>
      <trkpt lat="45.40286" lon="0.6307">
        <ele>176</ele>
        <time>2012-11-25T08:18:48Z</time>
      </trkpt>
      <trkpt lat="45.40259" lon="0.63128">
        <ele>173</ele>
        <time>2012-11-25T08:18:55Z</time>
      </trkpt>
      <trkpt lat="45.40249" lon="0.63147">
        <ele>173</ele>
        <time>2012-11-25T08:18:57Z</time>
      </trkpt>
      <trkpt lat="45.40222" lon="0.632">
        <ele>172</ele>
        <time>2012-11-25T08:19:02Z</time>
      </trkpt>
      <trkpt lat="45.40198" lon="0.63247">
        <ele>172</ele>
        <time>2012-11-25T08:19:07Z</time>
      </trkpt>
      <trkpt lat="45.40173" lon="0.63273">
        <ele>171</ele>
        <time>2012-11-25T08:19:11Z</time>
      </trkpt>
      <trkpt lat="45.40167" lon="0.63279">
        <ele>171</ele>
        <time>2012-11-25T08:19:12Z</time>
      </trkpt>
      <trkpt lat="45.40138" lon="0.63317">
        <ele>169</ele>
        <time>2012-11-25T08:19:17Z</time>
      </trkpt>
      <trkpt lat="45.40125" lon="0.63344">
        <ele>166</ele>
        <time>2012-11-25T08:19:20Z</time>
      </trkpt>
      <trkpt lat="45.40099" lon="0.63377">
        <ele>165</ele>
        <time>2012-11-25T08:19:25Z</time>
      </trkpt>
      <trkpt lat="45.40069" lon="0.63418">
        <ele>159</ele>
        <time>2012-11-25T08:19:30Z</time>
      </trkpt>
      <trkpt lat="45.40054" lon="0.63451">
        <ele>157</ele>
        <time>2012-11-25T08:19:34Z</time>
      </trkpt>
      <trkpt lat="45.40051" lon="0.63459">
        <ele>157</ele>
        <time>2012-11-25T08:19:39Z</time>
      </trkpt>
      <trkpt lat="45.40047" lon="0.63466">
        <ele>157</ele>
        <time>2012-11-25T08:19:45Z</time>
      </trkpt>
      <trkpt lat="45.40044" lon="0.6348">
        <ele>157</ele>
        <time>2012-11-25T08:19:51Z</time>
      </trkpt>
      <trkpt lat="45.40038" lon="0.63493">
        <ele>156</ele>
        <time>2012-11-25T08:19:58Z</time>
      </trkpt>
      <trkpt lat="45.40034" lon="0.6351">
        <ele>155</ele>
        <time>2012-11-25T08:20:05Z</time>
      </trkpt>
      <trkpt lat="45.40031" lon="0.63521">
        <ele>155</ele>
        <time>2012-11-25T08:20:08Z</time>
      </trkpt>
      <trkpt lat="45.40026" lon="0.63543">
        <ele>156</ele>
        <time>2012-11-25T08:20:15Z</time>
      </trkpt>
      <trkpt lat="45.40023" lon="0.63545">
        <ele>155</ele>
        <time>2012-11-25T08:20:29Z</time>
      </trkpt>
      <trkpt lat="45.40022" lon="0.63557">
        <ele>156</ele>
        <time>2012-11-25T08:20:42Z</time>
      </trkpt>
      <trkpt lat="45.40019" lon="0.63569">
        <ele>155</ele>
        <time>2012-11-25T08:20:46Z</time>
      </trkpt>
      <trkpt lat="45.40013" lon="0.63582">
        <ele>155</ele>
        <time>2012-11-25T08:20:50Z</time>
      </trkpt>
      <trkpt lat="45.40009" lon="0.63593">
        <ele>157</ele>
        <time>2012-11-25T08:20:53Z</time>
      </trkpt>
      <trkpt lat="45.39998" lon="0.63613">
        <ele>159</ele>
        <time>2012-11-25T08:20:59Z</time>
      </trkpt>
      <trkpt lat="45.39984" lon="0.63639">
        <ele>160</ele>
        <time>2012-11-25T08:21:07Z</time>
      </trkpt>
      <trkpt lat="45.39972" lon="0.63664">
        <ele>161</ele>
        <time>2012-11-25T08:21:15Z</time>
      </trkpt>
      <trkpt lat="45.39967" lon="0.63673">
        <ele>164</ele>
        <time>2012-11-25T08:21:19Z</time>
      </trkpt>
      <trkpt lat="45.39961" lon="0.63687">
        <ele>165</ele>
        <time>2012-11-25T08:21:24Z</time>
      </trkpt>
      <trkpt lat="45.39957" lon="0.63696">
        <ele>165</ele>
        <time>2012-11-25T08:21:28Z</time>
      </trkpt>
      <trkpt lat="45.39951" lon="0.63709">
        <ele>166</ele>
        <time>2012-11-25T08:21:33Z</time>
      </trkpt>
      <trkpt lat="45.39944" lon="0.6372">
        <ele>166</ele>
        <time>2012-11-25T08:21:37Z</time>
      </trkpt>
      <trkpt lat="45.39932" lon="0.6373">
        <ele>167</ele>
        <time>2012-11-25T08:21:42Z</time>
      </trkpt>
      <trkpt lat="45.39926" lon="0.63736">
        <ele>168</ele>
        <time>2012-11-25T08:21:46Z</time>
      </trkpt>
      <trkpt lat="45.39911" lon="0.63743">
        <ele>172</ele>
        <time>2012-11-25T08:21:51Z</time>
      </trkpt>
      <trkpt lat="45.39899" lon="0.63744">
        <ele>172</ele>
        <time>2012-11-25T08:21:55Z</time>
      </trkpt>
      <trkpt lat="45.39889" lon="0.63748">
        <ele>173</ele>
        <time>2012-11-25T08:21:59Z</time>
      </trkpt>
      <trkpt lat="45.39877" lon="0.63752">
        <ele>177</ele>
        <time>2012-11-25T08:22:03Z</time>
      </trkpt>
      <trkpt lat="45.39859" lon="0.63752">
        <ele>178</ele>
        <time>2012-11-25T08:22:11Z</time>
      </trkpt>
      <trkpt lat="45.39852" lon="0.63751">
        <ele>179</ele>
        <time>2012-11-25T08:22:14Z</time>
      </trkpt>
      <trkpt lat="45.39841" lon="0.63752">
        <ele>181</ele>
        <time>2012-11-25T08:22:19Z</time>
      </trkpt>
      <trkpt lat="45.39826" lon="0.63752">
        <ele>184</ele>
        <time>2012-11-25T08:22:27Z</time>
      </trkpt>
      <trkpt lat="45.3982" lon="0.63748">
        <ele>184</ele>
        <time>2012-11-25T08:22:30Z</time>
      </trkpt>
      <trkpt lat="45.3981" lon="0.63738">
        <ele>186</ele>
        <time>2012-11-25T08:22:38Z</time>
      </trkpt>
      <trkpt lat="45.39803" lon="0.63731">
        <ele>186</ele>
        <time>2012-11-25T08:22:43Z</time>
      </trkpt>
      <trkpt lat="45.39792" lon="0.63721">
        <ele>187</ele>
        <time>2012-11-25T08:22:51Z</time>
      </trkpt>
      <trkpt lat="45.39786" lon="0.63717">
        <ele>188</ele>
        <time>2012-11-25T08:22:55Z</time>
      </trkpt>
      <trkpt lat="45.3978" lon="0.63715">
        <ele>188</ele>
        <time>2012-11-25T08:22:59Z</time>
      </trkpt>
      <trkpt lat="45.39771" lon="0.63711">
        <ele>189</ele>
        <time>2012-11-25T08:23:07Z</time>
      </trkpt>
      <trkpt lat="45.39765" lon="0.63707">
        <ele>189</ele>
        <time>2012-11-25T08:23:39Z</time>
      </trkpt>
      <trkpt lat="45.3976" lon="0.63697">
        <ele>190</ele>
        <time>2012-11-25T08:23:46Z</time>
      </trkpt>
      <trkpt lat="45.39757" lon="0.63683">
        <ele>190</ele>
        <time>2012-11-25T08:23:49Z</time>
      </trkpt>
      <trkpt lat="45.39747" lon="0.63656">
        <ele>193</ele>
        <time>2012-11-25T08:23:54Z</time>
      </trkpt>
      <trkpt lat="45.39743" lon="0.63632">
        <ele>193</ele>
        <time>2012-11-25T08:23:58Z</time>
      </trkpt>
      <trkpt lat="45.39725" lon="0.63599">
        <ele>192</ele>
        <time>2012-11-25T08:24:04Z</time>
      </trkpt>
      <trkpt lat="45.39717" lon="0.63591">
        <ele>192</ele>
        <time>2012-11-25T08:24:07Z</time>
      </trkpt>
      <trkpt lat="45.39698" lon="0.63571">
        <ele>188</ele>
        <time>2012-11-25T08:24:11Z</time>
      </trkpt>
      <trkpt lat="45.39681" lon="0.63552">
        <ele>188</ele>
        <time>2012-11-25T08:24:15Z</time>
      </trkpt>
      <trkpt lat="45.39669" lon="0.63506">
        <ele>188</ele>
        <time>2012-11-25T08:24:20Z</time>
      </trkpt>
      <trkpt lat="45.39661" lon="0.63488">
        <ele>185</ele>
        <time>2012-11-25T08:24:23Z</time>
      </trkpt>
      <trkpt lat="45.39647" lon="0.63463">
        <ele>182</ele>
        <time>2012-11-25T08:24:26Z</time>
      </trkpt>
      <trkpt lat="45.39619" lon="0.63445">
        <ele>181</ele>
        <time>2012-11-25T08:24:31Z</time>
      </trkpt>
      <trkpt lat="45.39586" lon="0.63434">
        <ele>180</ele>
        <time>2012-11-25T08:24:36Z</time>
      </trkpt>
      <trkpt lat="45.39576" lon="0.63433">
        <ele>177</ele>
        <time>2012-11-25T08:24:39Z</time>
      </trkpt>
      <trkpt lat="45.39557" lon="0.63463">
        <ele>177</ele>
        <time>2012-11-25T08:24:48Z</time>
      </trkpt>
      <trkpt lat="45.39549" lon="0.63476">
        <ele>177</ele>
        <time>2012-11-25T08:24:51Z</time>
      </trkpt>
      <trkpt lat="45.39535" lon="0.63496">
        <ele>176</ele>
        <time>2012-11-25T08:24:55Z</time>
      </trkpt>
      <trkpt lat="45.39508" lon="0.63532">
        <ele>178</ele>
        <time>2012-11-25T08:25:04Z</time>
      </trkpt>
      <trkpt lat="45.39502" lon="0.63539">
        <ele>179</ele>
        <time>2012-11-25T08:25:06Z</time>
      </trkpt>
      <trkpt lat="45.39493" lon="0.63556">
        <ele>173</ele>
        <time>2012-11-25T08:25:10Z</time>
      </trkpt>
      <trkpt lat="45.39488" lon="0.63571">
        <ele>174</ele>
        <time>2012-11-25T08:25:13Z</time>
      </trkpt>
      <trkpt lat="45.39481" lon="0.63592">
        <ele>175</ele>
        <time>2012-11-25T08:25:16Z</time>
      </trkpt>
      <trkpt lat="45.39461" lon="0.63621">
        <ele>172</ele>
        <time>2012-11-25T08:25:23Z</time>
      </trkpt>
      <trkpt lat="45.39447" lon="0.63627">
        <ele>172</ele>
        <time>2012-11-25T08:25:25Z</time>
      </trkpt>
      <trkpt lat="45.39419" lon="0.63644">
        <ele>170</ele>
        <time>2012-11-25T08:25:30Z</time>
      </trkpt>
      <trkpt lat="45.394" lon="0.63678">
        <ele>165</ele>
        <time>2012-11-25T08:25:35Z</time>
      </trkpt>
      <trkpt lat="45.39393" lon="0.637">
        <ele>164</ele>
        <time>2012-11-25T08:25:38Z</time>
      </trkpt>
      <trkpt lat="45.39379" lon="0.63739">
        <ele>163</ele>
        <time>2012-11-25T08:25:44Z</time>
      </trkpt>
      <trkpt lat="45.39373" lon="0.63751">
        <ele>164</ele>
        <time>2012-11-25T08:25:46Z</time>
      </trkpt>
      <trkpt lat="45.39364" lon="0.63793">
        <ele>165</ele>
        <time>2012-11-25T08:25:52Z</time>
      </trkpt>
      <trkpt lat="45.39362" lon="0.63807">
        <ele>165</ele>
        <time>2012-11-25T08:25:54Z</time>
      </trkpt>
      <trkpt lat="45.39362" lon="0.63835">
        <ele>168</ele>
        <time>2012-11-25T08:25:58Z</time>
      </trkpt>
      <trkpt lat="45.39362" lon="0.63855">
        <ele>168</ele>
        <time>2012-11-25T08:26:01Z</time>
      </trkpt>
      <trkpt lat="45.3936" lon="0.63879">
        <ele>169</ele>
        <time>2012-11-25T08:26:05Z</time>
      </trkpt>
      <trkpt lat="45.3936" lon="0.63911">
        <ele>169</ele>
        <time>2012-11-25T08:26:11Z</time>
      </trkpt>
      <trkpt lat="45.39353" lon="0.63928">
        <ele>171</ele>
        <time>2012-11-25T08:26:15Z</time>
      </trkpt>
      <trkpt lat="45.39337" lon="0.63927">
        <ele>169</ele>
        <time>2012-11-25T08:26:19Z</time>
      </trkpt>
      <trkpt lat="45.39314" lon="0.63932">
        <ele>167</ele>
        <time>2012-11-25T08:26:23Z</time>
      </trkpt>
      <trkpt lat="45.39279" lon="0.63929">
        <ele>165</ele>
        <time>2012-11-25T08:26:29Z</time>
      </trkpt>
      <trkpt lat="45.39262" lon="0.63924">
        <ele>164</ele>
        <time>2012-11-25T08:26:32Z</time>
      </trkpt>
      <trkpt lat="45.39231" lon="0.63916">
        <ele>163</ele>
        <time>2012-11-25T08:26:38Z</time>
      </trkpt>
      <trkpt lat="45.39215" lon="0.63913">
        <ele>163</ele>
        <time>2012-11-25T08:26:42Z</time>
      </trkpt>
      <trkpt lat="45.39209" lon="0.63931">
        <ele>163</ele>
        <time>2012-11-25T08:26:46Z</time>
      </trkpt>
      <trkpt lat="45.39208" lon="0.63943">
        <ele>163</ele>
        <time>2012-11-25T08:26:48Z</time>
      </trkpt>
      <trkpt lat="45.39201" lon="0.63993">
        <ele>164</ele>
        <time>2012-11-25T08:26:55Z</time>
      </trkpt>
      <trkpt lat="45.39195" lon="0.64049">
        <ele>165</ele>
        <time>2012-11-25T08:27:03Z</time>
      </trkpt>
      <trkpt lat="45.392" lon="0.64096">
        <ele>167</ele>
        <time>2012-11-25T08:27:10Z</time>
      </trkpt>
      <trkpt lat="45.39207" lon="0.64126">
        <ele>168</ele>
        <time>2012-11-25T08:27:15Z</time>
      </trkpt>
      <trkpt lat="45.39213" lon="0.64144">
        <ele>168</ele>
        <time>2012-11-25T08:27:18Z</time>
      </trkpt>
      <trkpt lat="45.39222" lon="0.64175">
        <ele>170</ele>
        <time>2012-11-25T08:27:22Z</time>
      </trkpt>
      <trkpt lat="45.39233" lon="0.64217">
        <ele>171</ele>
        <time>2012-11-25T08:27:29Z</time>
      </trkpt>
      <trkpt lat="45.39241" lon="0.64245">
        <ele>171</ele>
        <time>2012-11-25T08:27:34Z</time>
      </trkpt>
      <trkpt lat="45.39235" lon="0.64262">
        <ele>172</ele>
        <time>2012-11-25T08:27:38Z</time>
      </trkpt>
      <trkpt lat="45.39217" lon="0.64265">
        <ele>172</ele>
        <time>2012-11-25T08:27:42Z</time>
      </trkpt>
      <trkpt lat="45.3919" lon="0.64267">
        <ele>172</ele>
        <time>2012-11-25T08:27:48Z</time>
      </trkpt>
      <trkpt lat="45.39177" lon="0.64264">
        <ele>171</ele>
        <time>2012-11-25T08:27:51Z</time>
      </trkpt>
      <trkpt lat="45.39145" lon="0.64267">
        <ele>171</ele>
        <time>2012-11-25T08:27:58Z</time>
      </trkpt>
      <trkpt lat="45.39127" lon="0.64278">
        <ele>172</ele>
        <time>2012-11-25T08:28:02Z</time>
      </trkpt>
      <trkpt lat="45.39109" lon="0.64291">
        <ele>172</ele>
        <time>2012-11-25T08:28:06Z</time>
      </trkpt>
      <trkpt lat="45.39087" lon="0.64308">
        <ele>172</ele>
        <time>2012-11-25T08:28:11Z</time>
      </trkpt>
      <trkpt lat="45.39054" lon="0.64334">
        <ele>169</ele>
        <time>2012-11-25T08:28:17Z</time>
      </trkpt>
      <trkpt lat="45.3902" lon="0.64321">
        <ele>170</ele>
        <time>2012-11-25T08:28:22Z</time>
      </trkpt>
      <trkpt lat="45.39001" lon="0.64312">
        <ele>170</ele>
        <time>2012-11-25T08:28:25Z</time>
      </trkpt>
      <trkpt lat="45.38967" lon="0.64297">
        <ele>169</ele>
        <time>2012-11-25T08:28:30Z</time>
      </trkpt>
      <trkpt lat="45.3896" lon="0.64295">
        <ele>168</ele>
        <time>2012-11-25T08:28:31Z</time>
      </trkpt>
      <trkpt lat="45.38914" lon="0.64319">
        <ele>165</ele>
        <time>2012-11-25T08:28:38Z</time>
      </trkpt>
      <trkpt lat="45.38884" lon="0.64321">
        <ele>164</ele>
        <time>2012-11-25T08:28:42Z</time>
      </trkpt>
      <trkpt lat="45.38875" lon="0.6432">
        <ele>164</ele>
        <time>2012-11-25T08:28:43Z</time>
      </trkpt>
      <trkpt lat="45.38835" lon="0.64316">
        <ele>163</ele>
        <time>2012-11-25T08:28:48Z</time>
      </trkpt>
      <trkpt lat="45.38815" lon="0.64313">
        <ele>162</ele>
        <time>2012-11-25T08:28:51Z</time>
      </trkpt>
      <trkpt lat="45.38772" lon="0.64311">
        <ele>161</ele>
        <time>2012-11-25T08:28:58Z</time>
      </trkpt>
      <trkpt lat="45.38752" lon="0.6431">
        <ele>161</ele>
        <time>2012-11-25T08:29:04Z</time>
      </trkpt>
      <trkpt lat="45.38734" lon="0.64307">
        <ele>163</ele>
        <time>2012-11-25T08:29:08Z</time>
      </trkpt>
      <trkpt lat="45.38719" lon="0.64301">
        <ele>164</ele>
        <time>2012-11-25T08:29:12Z</time>
      </trkpt>
      <trkpt lat="45.38711" lon="0.64296">
        <ele>164</ele>
        <time>2012-11-25T08:29:15Z</time>
      </trkpt>
      <trkpt lat="45.38701" lon="0.6429">
        <ele>165</ele>
        <time>2012-11-25T08:29:18Z</time>
      </trkpt>
      <trkpt lat="45.38689" lon="0.64281">
        <ele>165</ele>
        <time>2012-11-25T08:29:23Z</time>
      </trkpt>
      <trkpt lat="45.38681" lon="0.64274">
        <ele>166</ele>
        <time>2012-11-25T08:29:32Z</time>
      </trkpt>
      <trkpt lat="45.38676" lon="0.64272">
        <ele>166</ele>
        <time>2012-11-25T08:29:35Z</time>
      </trkpt>
      <trkpt lat="45.38663" lon="0.64269">
        <ele>167</ele>
        <time>2012-11-25T08:29:39Z</time>
      </trkpt>
      <trkpt lat="45.38652" lon="0.64267">
        <ele>167</ele>
        <time>2012-11-25T08:29:44Z</time>
      </trkpt>
      <trkpt lat="45.38647" lon="0.64265">
        <ele>167</ele>
        <time>2012-11-25T08:29:47Z</time>
      </trkpt>
      <trkpt lat="45.38634" lon="0.64261">
        <ele>167</ele>
        <time>2012-11-25T08:29:56Z</time>
      </trkpt>
      <trkpt lat="45.38628" lon="0.64258">
        <ele>166</ele>
        <time>2012-11-25T08:29:58Z</time>
      </trkpt>
      <trkpt lat="45.38606" lon="0.64251">
        <ele>166</ele>
        <time>2012-11-25T08:30:04Z</time>
      </trkpt>
      <trkpt lat="45.38596" lon="0.64249">
        <ele>165</ele>
        <time>2012-11-25T08:30:06Z</time>
      </trkpt>
      <trkpt lat="45.38569" lon="0.64252">
        <ele>164</ele>
        <time>2012-11-25T08:30:12Z</time>
      </trkpt>
      <trkpt lat="45.38545" lon="0.64264">
        <ele>163</ele>
        <time>2012-11-25T08:30:17Z</time>
      </trkpt>
      <trkpt lat="45.38514" lon="0.64268">
        <ele>163</ele>
        <time>2012-11-25T08:30:23Z</time>
      </trkpt>
      <trkpt lat="45.38486" lon="0.64276">
        <ele>161</ele>
        <time>2012-11-25T08:30:28Z</time>
      </trkpt>
      <trkpt lat="45.38477" lon="0.64283">
        <ele>161</ele>
        <time>2012-11-25T08:30:30Z</time>
      </trkpt>
      <trkpt lat="45.38456" lon="0.64295">
        <ele>160</ele>
        <time>2012-11-25T08:30:34Z</time>
      </trkpt>
      <trkpt lat="45.38427" lon="0.64308">
        <ele>160</ele>
        <time>2012-11-25T08:30:39Z</time>
      </trkpt>
      <trkpt lat="45.38409" lon="0.64316">
        <ele>158</ele>
        <time>2012-11-25T08:30:42Z</time>
      </trkpt>
      <trkpt lat="45.38385" lon="0.64326">
        <ele>157</ele>
        <time>2012-11-25T08:30:46Z</time>
      </trkpt>
      <trkpt lat="45.38348" lon="0.64338">
        <ele>156</ele>
        <time>2012-11-25T08:30:52Z</time>
      </trkpt>
      <trkpt lat="45.38334" lon="0.64339">
        <ele>155</ele>
        <time>2012-11-25T08:30:54Z</time>
      </trkpt>
      <trkpt lat="45.38314" lon="0.6434">
        <ele>153</ele>
        <time>2012-11-25T08:30:57Z</time>
      </trkpt>
      <trkpt lat="45.38261" lon="0.64355">
        <ele>151</ele>
        <time>2012-11-25T08:31:04Z</time>
      </trkpt>
      <trkpt lat="45.38237" lon="0.64365">
        <ele>148</ele>
        <time>2012-11-25T08:31:07Z</time>
      </trkpt>
      <trkpt lat="45.38213" lon="0.64378">
        <ele>147</ele>
        <time>2012-11-25T08:31:10Z</time>
      </trkpt>
      <trkpt lat="45.38169" lon="0.64401">
        <ele>145</ele>
        <time>2012-11-25T08:31:16Z</time>
      </trkpt>
      <trkpt lat="45.38141" lon="0.64412">
        <ele>143</ele>
        <time>2012-11-25T08:31:20Z</time>
      </trkpt>
      <trkpt lat="45.38134" lon="0.64413">
        <ele>143</ele>
        <time>2012-11-25T08:31:21Z</time>
      </trkpt>
      <trkpt lat="45.38091" lon="0.64407">
        <ele>143</ele>
        <time>2012-11-25T08:31:28Z</time>
      </trkpt>
      <trkpt lat="45.38086" lon="0.64407">
        <ele>143</ele>
        <time>2012-11-25T08:31:29Z</time>
      </trkpt>
      <trkpt lat="45.3804" lon="0.64407">
        <ele>142</ele>
        <time>2012-11-25T08:31:36Z</time>
      </trkpt>
      <trkpt lat="45.38034" lon="0.64405">
        <ele>142</ele>
        <time>2012-11-25T08:31:37Z</time>
      </trkpt>
      <trkpt lat="45.38011" lon="0.64403">
        <ele>142</ele>
        <time>2012-11-25T08:31:41Z</time>
      </trkpt>
      <trkpt lat="45.37996" lon="0.64414">
        <ele>141</ele>
        <time>2012-11-25T08:31:47Z</time>
      </trkpt>
      <trkpt lat="45.38005" lon="0.64435">
        <ele>142</ele>
        <time>2012-11-25T08:31:56Z</time>
      </trkpt>
      <trkpt lat="45.38017" lon="0.64445">
        <ele>142</ele>
        <time>2012-11-25T08:31:59Z</time>
      </trkpt>
      <trkpt lat="45.38024" lon="0.6445">
        <ele>142</ele>
        <time>2012-11-25T08:32:01Z</time>
      </trkpt>
      <trkpt lat="45.38044" lon="0.64466">
        <ele>143</ele>
        <time>2012-11-25T08:32:07Z</time>
      </trkpt>
      <trkpt lat="45.3806" lon="0.64481">
        <ele>144</ele>
        <time>2012-11-25T08:32:12Z</time>
      </trkpt>
      <trkpt lat="45.38056" lon="0.64504">
        <ele>145</ele>
        <time>2012-11-25T08:32:17Z</time>
      </trkpt>
      <trkpt lat="45.38037" lon="0.64518">
        <ele>144</ele>
        <time>2012-11-25T08:32:22Z</time>
      </trkpt>
      <trkpt lat="45.38025" lon="0.64527">
        <ele>144</ele>
        <time>2012-11-25T08:32:25Z</time>
      </trkpt>
      <trkpt lat="45.38003" lon="0.64542">
        <ele>144</ele>
        <time>2012-11-25T08:32:30Z</time>
      </trkpt>
      <trkpt lat="45.37976" lon="0.6456">
        <ele>141</ele>
        <time>2012-11-25T08:32:36Z</time>
      </trkpt>
      <trkpt lat="45.37956" lon="0.64567">
        <ele>141</ele>
        <time>2012-11-25T08:32:40Z</time>
      </trkpt>
      <trkpt lat="45.37936" lon="0.64571">
        <ele>141</ele>
        <time>2012-11-25T08:32:44Z</time>
      </trkpt>
      <trkpt lat="45.37904" lon="0.64572">
        <ele>140</ele>
        <time>2012-11-25T08:32:50Z</time>
      </trkpt>
      <trkpt lat="45.37871" lon="0.64575">
        <ele>140</ele>
        <time>2012-11-25T08:32:56Z</time>
      </trkpt>
      <trkpt lat="45.37859" lon="0.64577">
        <ele>140</ele>
        <time>2012-11-25T08:32:58Z</time>
      </trkpt>
      <trkpt lat="45.37842" lon="0.64582">
        <ele>139</ele>
        <time>2012-11-25T08:33:01Z</time>
      </trkpt>
      <trkpt lat="45.37801" lon="0.64596">
        <ele>140</ele>
        <time>2012-11-25T08:33:08Z</time>
      </trkpt>
      <trkpt lat="45.37784" lon="0.64603">
        <ele>140</ele>
        <time>2012-11-25T08:33:11Z</time>
      </trkpt>
      <trkpt lat="45.37761" lon="0.64612">
        <ele>140</ele>
        <time>2012-11-25T08:33:15Z</time>
      </trkpt>
      <trkpt lat="45.37749" lon="0.64617">
        <ele>139</ele>
        <time>2012-11-25T08:33:17Z</time>
      </trkpt>
      <trkpt lat="45.37724" lon="0.64624">
        <ele>139</ele>
        <time>2012-11-25T08:33:21Z</time>
      </trkpt>
      <trkpt lat="45.37692" lon="0.64627">
        <ele>139</ele>
        <time>2012-11-25T08:33:26Z</time>
      </trkpt>
      <trkpt lat="45.37662" lon="0.64623">
        <ele>139</ele>
        <time>2012-11-25T08:33:31Z</time>
      </trkpt>
      <trkpt lat="45.37644" lon="0.64619">
        <ele>139</ele>
        <time>2012-11-25T08:33:34Z</time>
      </trkpt>
      <trkpt lat="45.37612" lon="0.64603">
        <ele>138</ele>
        <time>2012-11-25T08:33:40Z</time>
      </trkpt>
      <trkpt lat="45.376" lon="0.64588">
        <ele>138</ele>
        <time>2012-11-25T08:33:43Z</time>
      </trkpt>
      <trkpt lat="45.37592" lon="0.64577">
        <ele>137</ele>
        <time>2012-11-25T08:33:45Z</time>
      </trkpt>
      <trkpt lat="45.3758" lon="0.64556">
        <ele>138</ele>
        <time>2012-11-25T08:33:49Z</time>
      </trkpt>
      <trkpt lat="45.37562" lon="0.64523">
        <ele>139</ele>
        <time>2012-11-25T08:33:56Z</time>
      </trkpt>
      <trkpt lat="45.37557" lon="0.64521">
        <ele>139</ele>
        <time>2012-11-25T08:33:57Z</time>
      </trkpt>
      <trkpt lat="45.37523" lon="0.64531">
        <ele>139</ele>
        <time>2012-11-25T08:34:03Z</time>
      </trkpt>
      <trkpt lat="45.37512" lon="0.64535">
        <ele>139</ele>
        <time>2012-11-25T08:34:05Z</time>
      </trkpt>
      <trkpt lat="45.37497" lon="0.64504">
        <ele>138</ele>
        <time>2012-11-25T08:34:12Z</time>
      </trkpt>
      <trkpt lat="45.37496" lon="0.64483">
        <ele>139</ele>
        <time>2012-11-25T08:34:15Z</time>
      </trkpt>
      <trkpt lat="45.37495" lon="0.64465">
        <ele>139</ele>
        <time>2012-11-25T08:34:18Z</time>
      </trkpt>
      <trkpt lat="45.37486" lon="0.64436">
        <ele>140</ele>
        <time>2012-11-25T08:34:24Z</time>
      </trkpt>
      <trkpt lat="45.37468" lon="0.64403">
        <ele>142</ele>
        <time>2012-11-25T08:34:32Z</time>
      </trkpt>
      <trkpt lat="45.3745" lon="0.6437">
        <ele>143</ele>
        <time>2012-11-25T08:34:40Z</time>
      </trkpt>
      <trkpt lat="45.37428" lon="0.64339">
        <ele>144</ele>
        <time>2012-11-25T08:34:48Z</time>
      </trkpt>
      <trkpt lat="45.37417" lon="0.64332">
        <ele>146</ele>
        <time>2012-11-25T08:34:51Z</time>
      </trkpt>
      <trkpt lat="45.37401" lon="0.64318">
        <ele>146</ele>
        <time>2012-11-25T08:34:56Z</time>
      </trkpt>
      <trkpt lat="45.37385" lon="0.64312">
        <ele>146</ele>
        <time>2012-11-25T08:35:00Z</time>
      </trkpt>
      <trkpt lat="45.37371" lon="0.64309">
        <ele>146</ele>
        <time>2012-11-25T08:35:04Z</time>
      </trkpt>
      <trkpt lat="45.3736" lon="0.64305">
        <ele>146</ele>
        <time>2012-11-25T08:35:08Z</time>
      </trkpt>
      <trkpt lat="45.37349" lon="0.64299">
        <ele>146</ele>
        <time>2012-11-25T08:35:12Z</time>
      </trkpt>
      <trkpt lat="45.37338" lon="0.64292">
        <ele>146</ele>
        <time>2012-11-25T08:35:16Z</time>
      </trkpt>
      <trkpt lat="45.37327" lon="0.6428">
        <ele>147</ele>
        <time>2012-11-25T08:35:20Z</time>
      </trkpt>
      <trkpt lat="45.37303" lon="0.64274">
        <ele>147</ele>
        <time>2012-11-25T08:35:25Z</time>
      </trkpt>
      <trkpt lat="45.37247" lon="0.6428">
        <ele>148</ele>
        <time>2012-11-25T08:35:32Z</time>
      </trkpt>
      <trkpt lat="45.37241" lon="0.64285">
        <ele>148</ele>
        <time>2012-11-25T08:35:33Z</time>
      </trkpt>
      <trkpt lat="45.37221" lon="0.64322">
        <ele>148</ele>
        <time>2012-11-25T08:35:40Z</time>
      </trkpt>
      <trkpt lat="45.3722" lon="0.64332">
        <ele>148</ele>
        <time>2012-11-25T08:35:42Z</time>
      </trkpt>
      <trkpt lat="45.37193" lon="0.64344">
        <ele>147</ele>
        <time>2012-11-25T08:35:48Z</time>
      </trkpt>
      <trkpt lat="45.37187" lon="0.64346">
        <ele>147</ele>
        <time>2012-11-25T08:35:49Z</time>
      </trkpt>
      <trkpt lat="45.37168" lon="0.64364">
        <ele>147</ele>
        <time>2012-11-25T08:35:54Z</time>
      </trkpt>
      <trkpt lat="45.37159" lon="0.64366">
        <ele>148</ele>
        <time>2012-11-25T08:35:57Z</time>
      </trkpt>
      <trkpt lat="45.3715" lon="0.6438">
        <ele>148</ele>
        <time>2012-11-25T08:36:08Z</time>
      </trkpt>
      <trkpt lat="45.37135" lon="0.64397">
        <ele>147</ele>
        <time>2012-11-25T08:36:12Z</time>
      </trkpt>
      <trkpt lat="45.37123" lon="0.64404">
        <ele>147</ele>
        <time>2012-11-25T08:36:14Z</time>
      </trkpt>
      <trkpt lat="45.37094" lon="0.64381">
        <ele>147</ele>
        <time>2012-11-25T08:36:20Z</time>
      </trkpt>
      <trkpt lat="45.37088" lon="0.64374">
        <ele>148</ele>
        <time>2012-11-25T08:36:22Z</time>
      </trkpt>
      <trkpt lat="45.37075" lon="0.64358">
        <ele>146</ele>
        <time>2012-11-25T08:36:27Z</time>
      </trkpt>
      <trkpt lat="45.3707" lon="0.64351">
        <ele>146</ele>
        <time>2012-11-25T08:36:29Z</time>
      </trkpt>
      <trkpt lat="45.37053" lon="0.64324">
        <ele>148</ele>
        <time>2012-11-25T08:36:35Z</time>
      </trkpt>
      <trkpt lat="45.37042" lon="0.64294">
        <ele>148</ele>
        <time>2012-11-25T08:36:40Z</time>
      </trkpt>
      <trkpt lat="45.37035" lon="0.64268">
        <ele>149</ele>
        <time>2012-11-25T08:36:44Z</time>
      </trkpt>
      <trkpt lat="45.37014" lon="0.64246">
        <ele>151</ele>
        <time>2012-11-25T08:36:49Z</time>
      </trkpt>
      <trkpt lat="45.36988" lon="0.64214">
        <ele>151</ele>
        <time>2012-11-25T08:36:56Z</time>
      </trkpt>
      <trkpt lat="45.36983" lon="0.64206">
        <ele>151</ele>
        <time>2012-11-25T08:36:58Z</time>
      </trkpt>
      <trkpt lat="45.36967" lon="0.64182">
        <ele>152</ele>
        <time>2012-11-25T08:37:04Z</time>
      </trkpt>
      <trkpt lat="45.36957" lon="0.64172">
        <ele>152</ele>
        <time>2012-11-25T08:37:07Z</time>
      </trkpt>
      <trkpt lat="45.36938" lon="0.64158">
        <ele>155</ele>
        <time>2012-11-25T08:37:12Z</time>
      </trkpt>
      <trkpt lat="45.36931" lon="0.64153">
        <ele>155</ele>
        <time>2012-11-25T08:37:14Z</time>
      </trkpt>
      <trkpt lat="45.36913" lon="0.64135">
        <ele>155</ele>
        <time>2012-11-25T08:37:20Z</time>
      </trkpt>
      <trkpt lat="45.36882" lon="0.64114">
        <ele>156</ele>
        <time>2012-11-25T08:37:28Z</time>
      </trkpt>
      <trkpt lat="45.36872" lon="0.64109">
        <ele>156</ele>
        <time>2012-11-25T08:37:31Z</time>
      </trkpt>
      <trkpt lat="45.36856" lon="0.64117">
        <ele>156</ele>
        <time>2012-11-25T08:37:36Z</time>
      </trkpt>
      <trkpt lat="45.36839" lon="0.64151">
        <ele>155</ele>
        <time>2012-11-25T08:37:43Z</time>
      </trkpt>
      <trkpt lat="45.36824" lon="0.64176">
        <ele>156</ele>
        <time>2012-11-25T08:37:48Z</time>
      </trkpt>
      <trkpt lat="45.36818" lon="0.64186">
        <ele>156</ele>
        <time>2012-11-25T08:37:50Z</time>
      </trkpt>
      <trkpt lat="45.36808" lon="0.64207">
        <ele>156</ele>
        <time>2012-11-25T08:37:54Z</time>
      </trkpt>
      <trkpt lat="45.36804" lon="0.64242">
        <ele>155</ele>
        <time>2012-11-25T08:37:59Z</time>
      </trkpt>
      <trkpt lat="45.36802" lon="0.64283">
        <ele>153</ele>
        <time>2012-11-25T08:38:04Z</time>
      </trkpt>
      <trkpt lat="45.368" lon="0.6429">
        <ele>153</ele>
        <time>2012-11-25T08:38:05Z</time>
      </trkpt>
      <trkpt lat="45.36796" lon="0.64322">
        <ele>153</ele>
        <time>2012-11-25T08:38:09Z</time>
      </trkpt>
      <trkpt lat="45.36792" lon="0.6439">
        <ele>149</ele>
        <time>2012-11-25T08:38:16Z</time>
      </trkpt>
      <trkpt lat="45.3679" lon="0.64415">
        <ele>148</ele>
        <time>2012-11-25T08:38:18Z</time>
      </trkpt>
      <trkpt lat="45.36784" lon="0.64492">
        <ele>143</ele>
        <time>2012-11-25T08:38:24Z</time>
      </trkpt>
      <trkpt lat="45.36782" lon="0.64516">
        <ele>140</ele>
        <time>2012-11-25T08:38:26Z</time>
      </trkpt>
      <trkpt lat="45.36775" lon="0.64575">
        <ele>138</ele>
        <time>2012-11-25T08:38:31Z</time>
      </trkpt>
      <trkpt lat="45.3677" lon="0.646">
        <ele>137</ele>
        <time>2012-11-25T08:38:33Z</time>
      </trkpt>
      <trkpt lat="45.36764" lon="0.64643">
        <ele>136</ele>
        <time>2012-11-25T08:38:37Z</time>
      </trkpt>
      <trkpt lat="45.36757" lon="0.64706">
        <ele>135</ele>
        <time>2012-11-25T08:38:44Z</time>
      </trkpt>
      <trkpt lat="45.36755" lon="0.64714">
        <ele>135</ele>
        <time>2012-11-25T08:38:45Z</time>
      </trkpt>
      <trkpt lat="45.3674" lon="0.64761">
        <ele>137</ele>
        <time>2012-11-25T08:38:52Z</time>
      </trkpt>
      <trkpt lat="45.36733" lon="0.64786">
        <ele>136</ele>
        <time>2012-11-25T08:38:55Z</time>
      </trkpt>
      <trkpt lat="45.36724" lon="0.64816">
        <ele>134</ele>
        <time>2012-11-25T08:38:58Z</time>
      </trkpt>
      <trkpt lat="45.36704" lon="0.64862">
        <ele>127</ele>
        <time>2012-11-25T08:39:03Z</time>
      </trkpt>
      <trkpt lat="45.36701" lon="0.64882">
        <ele>126</ele>
        <time>2012-11-25T08:39:05Z</time>
      </trkpt>
      <trkpt lat="45.36691" lon="0.64906">
        <ele>125</ele>
        <time>2012-11-25T08:39:10Z</time>
      </trkpt>
      <trkpt lat="45.36676" lon="0.64949">
        <ele>120</ele>
        <time>2012-11-25T08:39:16Z</time>
      </trkpt>
      <trkpt lat="45.36672" lon="0.64971">
        <ele>119</ele>
        <time>2012-11-25T08:39:20Z</time>
      </trkpt>
      <trkpt lat="45.3664" lon="0.65006">
        <ele>113</ele>
        <time>2012-11-25T08:39:27Z</time>
      </trkpt>
      <trkpt lat="45.36623" lon="0.65017">
        <ele>112</ele>
        <time>2012-11-25T08:39:29Z</time>
      </trkpt>
      <trkpt lat="45.36592" lon="0.65027">
        <ele>111</ele>
        <time>2012-11-25T08:39:35Z</time>
      </trkpt>
      <trkpt lat="45.36577" lon="0.65043">
        <ele>107</ele>
        <time>2012-11-25T08:39:40Z</time>
      </trkpt>
      <trkpt lat="45.36573" lon="0.65071">
        <ele>106</ele>
        <time>2012-11-25T08:39:46Z</time>
      </trkpt>
      <trkpt lat="45.36569" lon="0.65089">
        <ele>106</ele>
        <time>2012-11-25T08:39:52Z</time>
      </trkpt>
      <trkpt lat="45.36571" lon="0.65098">
        <ele>107</ele>
        <time>2012-11-25T08:39:54Z</time>
      </trkpt>
      <trkpt lat="45.3658" lon="0.6511">
        <ele>107</ele>
        <time>2012-11-25T08:39:58Z</time>
      </trkpt>
      <trkpt lat="45.3659" lon="0.65114">
        <ele>112</ele>
        <time>2012-11-25T08:40:05Z</time>
      </trkpt>
      <trkpt lat="45.36603" lon="0.65122">
        <ele>114</ele>
        <time>2012-11-25T08:40:12Z</time>
      </trkpt>
      <trkpt lat="45.36604" lon="0.65151">
        <ele>114</ele>
        <time>2012-11-25T08:40:20Z</time>
      </trkpt>
      <trkpt lat="45.36604" lon="0.65167">
        <ele>119</ele>
        <time>2012-11-25T08:40:25Z</time>
      </trkpt>
      <trkpt lat="45.36605" lon="0.65183">
        <ele>121</ele>
        <time>2012-11-25T08:40:31Z</time>
      </trkpt>
      <trkpt lat="45.36606" lon="0.65197">
        <ele>123</ele>
        <time>2012-11-25T08:40:36Z</time>
      </trkpt>
      <trkpt lat="45.36608" lon="0.65208">
        <ele>124</ele>
        <time>2012-11-25T08:40:40Z</time>
      </trkpt>
      <trkpt lat="45.36616" lon="0.6523">
        <ele>126</ele>
        <time>2012-11-25T08:40:48Z</time>
      </trkpt>
      <trkpt lat="45.36627" lon="0.65245">
        <ele>127</ele>
        <time>2012-11-25T08:40:56Z</time>
      </trkpt>
      <trkpt lat="45.36633" lon="0.65251">
        <ele>133</ele>
        <time>2012-11-25T08:41:00Z</time>
      </trkpt>
      <trkpt lat="45.36646" lon="0.65262">
        <ele>134</ele>
        <time>2012-11-25T08:41:07Z</time>
      </trkpt>
      <trkpt lat="45.36651" lon="0.65266">
        <ele>135</ele>
        <time>2012-11-25T08:41:10Z</time>
      </trkpt>
      <trkpt lat="45.3666" lon="0.65274">
        <ele>135</ele>
        <time>2012-11-25T08:41:15Z</time>
      </trkpt>
      <trkpt lat="45.36666" lon="0.6528">
        <ele>135</ele>
        <time>2012-11-25T08:41:18Z</time>
      </trkpt>
      <trkpt lat="45.36675" lon="0.65287">
        <ele>143</ele>
        <time>2012-11-25T08:41:22Z</time>
      </trkpt>
      <trkpt lat="45.36686" lon="0.65298">
        <ele>144</ele>
        <time>2012-11-25T08:41:28Z</time>
      </trkpt>
      <trkpt lat="45.36692" lon="0.65304">
        <ele>144</ele>
        <time>2012-11-25T08:41:31Z</time>
      </trkpt>
      <trkpt lat="45.36706" lon="0.65326">
        <ele>146</ele>
        <time>2012-11-25T08:41:40Z</time>
      </trkpt>
      <trkpt lat="45.36716" lon="0.65341">
        <ele>150</ele>
        <time>2012-11-25T08:41:47Z</time>
      </trkpt>
      <trkpt lat="45.3672" lon="0.65348">
        <ele>150</ele>
        <time>2012-11-25T08:41:50Z</time>
      </trkpt>
      <trkpt lat="45.36722" lon="0.65361">
        <ele>150</ele>
        <time>2012-11-25T08:41:54Z</time>
      </trkpt>
      <trkpt lat="45.36724" lon="0.65373">
        <ele>151</ele>
        <time>2012-11-25T08:41:58Z</time>
      </trkpt>
      <trkpt lat="45.36731" lon="0.65383">
        <ele>151</ele>
        <time>2012-11-25T08:42:04Z</time>
      </trkpt>
      <trkpt lat="45.36738" lon="0.6539">
        <ele>152</ele>
        <time>2012-11-25T08:42:09Z</time>
      </trkpt>
      <trkpt lat="45.36745" lon="0.65398">
        <ele>153</ele>
        <time>2012-11-25T08:42:14Z</time>
      </trkpt>
      <trkpt lat="45.36752" lon="0.65405">
        <ele>158</ele>
        <time>2012-11-25T08:42:19Z</time>
      </trkpt>
      <trkpt lat="45.36764" lon="0.65418">
        <ele>159</ele>
        <time>2012-11-25T08:42:28Z</time>
      </trkpt>
      <trkpt lat="45.36769" lon="0.65423">
        <ele>159</ele>
        <time>2012-11-25T08:42:31Z</time>
      </trkpt>
      <trkpt lat="45.36776" lon="0.65432">
        <ele>160</ele>
        <time>2012-11-25T08:42:36Z</time>
      </trkpt>
      <trkpt lat="45.36781" lon="0.65439">
        <ele>161</ele>
        <time>2012-11-25T08:42:39Z</time>
      </trkpt>
      <trkpt lat="45.36785" lon="0.65445">
        <ele>161</ele>
        <time>2012-11-25T08:42:42Z</time>
      </trkpt>
      <trkpt lat="45.36792" lon="0.65456">
        <ele>162</ele>
        <time>2012-11-25T08:42:47Z</time>
      </trkpt>
      <trkpt lat="45.36797" lon="0.65463">
        <ele>162</ele>
        <time>2012-11-25T08:42:51Z</time>
      </trkpt>
      <trkpt lat="45.36801" lon="0.65469">
        <ele>163</ele>
        <time>2012-11-25T08:42:54Z</time>
      </trkpt>
      <trkpt lat="45.36808" lon="0.6548">
        <ele>163</ele>
        <time>2012-11-25T08:42:59Z</time>
      </trkpt>
      <trkpt lat="45.36815" lon="0.65491">
        <ele>164</ele>
        <time>2012-11-25T08:43:04Z</time>
      </trkpt>
      <trkpt lat="45.36822" lon="0.6551">
        <ele>166</ele>
        <time>2012-11-25T08:43:12Z</time>
      </trkpt>
      <trkpt lat="45.36825" lon="0.65521">
        <ele>166</ele>
        <time>2012-11-25T08:43:17Z</time>
      </trkpt>
      <trkpt lat="45.36827" lon="0.65528">
        <ele>166</ele>
        <time>2012-11-25T08:43:21Z</time>
      </trkpt>
      <trkpt lat="45.36832" lon="0.65533">
        <ele>166</ele>
        <time>2012-11-25T08:43:27Z</time>
      </trkpt>
      <trkpt lat="45.36836" lon="0.65533">
        <ele>167</ele>
        <time>2012-11-25T08:44:04Z</time>
      </trkpt>
      <trkpt lat="45.36839" lon="0.65538">
        <ele>167</ele>
        <time>2012-11-25T08:44:27Z</time>
      </trkpt>
      <trkpt lat="45.36844" lon="0.65537">
        <ele>166</ele>
        <time>2012-11-25T08:44:31Z</time>
      </trkpt>
      <trkpt lat="45.36861" lon="0.65532">
        <ele>166</ele>
        <time>2012-11-25T08:44:40Z</time>
      </trkpt>
      <trkpt lat="45.36874" lon="0.65528">
        <ele>166</ele>
        <time>2012-11-25T08:44:45Z</time>
      </trkpt>
      <trkpt lat="45.36891" lon="0.65522">
        <ele>166</ele>
        <time>2012-11-25T08:44:51Z</time>
      </trkpt>
      <trkpt lat="45.36897" lon="0.65519">
        <ele>166</ele>
        <time>2012-11-25T08:44:53Z</time>
      </trkpt>
      <trkpt lat="45.3691" lon="0.65517">
        <ele>166</ele>
        <time>2012-11-25T08:44:57Z</time>
      </trkpt>
      <trkpt lat="45.36932" lon="0.65547">
        <ele>163</ele>
        <time>2012-11-25T08:45:04Z</time>
      </trkpt>
      <trkpt lat="45.36937" lon="0.65569">
        <ele>163</ele>
        <time>2012-11-25T08:45:08Z</time>
      </trkpt>
      <trkpt lat="45.36956" lon="0.65612">
        <ele>159</ele>
        <time>2012-11-25T08:45:16Z</time>
      </trkpt>
      <trkpt lat="45.36959" lon="0.65622">
        <ele>158</ele>
        <time>2012-11-25T08:45:17Z</time>
      </trkpt>
      <trkpt lat="45.36963" lon="0.65693">
        <ele>152</ele>
        <time>2012-11-25T08:45:24Z</time>
      </trkpt>
      <trkpt lat="45.36963" lon="0.65702">
        <ele>152</ele>
        <time>2012-11-25T08:45:25Z</time>
      </trkpt>
      <trkpt lat="45.36958" lon="0.65755">
        <ele>149</ele>
        <time>2012-11-25T08:45:30Z</time>
      </trkpt>
      <trkpt lat="45.36972" lon="0.65782">
        <ele>147</ele>
        <time>2012-11-25T08:45:34Z</time>
      </trkpt>
      <trkpt lat="45.36978" lon="0.65815">
        <ele>145</ele>
        <time>2012-11-25T08:45:39Z</time>
      </trkpt>
      <trkpt lat="45.36983" lon="0.65836">
        <ele>143</ele>
        <time>2012-11-25T08:45:42Z</time>
      </trkpt>
      <trkpt lat="45.36993" lon="0.65874">
        <ele>144</ele>
        <time>2012-11-25T08:45:48Z</time>
      </trkpt>
      <trkpt lat="45.37009" lon="0.65899">
        <ele>138</ele>
        <time>2012-11-25T08:45:52Z</time>
      </trkpt>
      <trkpt lat="45.37018" lon="0.65919">
        <ele>136</ele>
        <time>2012-11-25T08:45:55Z</time>
      </trkpt>
      <trkpt lat="45.37031" lon="0.65946">
        <ele>137</ele>
        <time>2012-11-25T08:45:59Z</time>
      </trkpt>
      <trkpt lat="45.37041" lon="0.65971">
        <ele>136</ele>
        <time>2012-11-25T08:46:03Z</time>
      </trkpt>
      <trkpt lat="45.37055" lon="0.65983">
        <ele>136</ele>
        <time>2012-11-25T08:46:08Z</time>
      </trkpt>
      <trkpt lat="45.37085" lon="0.65983">
        <ele>135</ele>
        <time>2012-11-25T08:46:16Z</time>
      </trkpt>
      <trkpt lat="45.37102" lon="0.66007">
        <ele>133</ele>
        <time>2012-11-25T08:46:21Z</time>
      </trkpt>
      <trkpt lat="45.37109" lon="0.66012">
        <ele>133</ele>
        <time>2012-11-25T08:46:25Z</time>
      </trkpt>
      <trkpt lat="45.37121" lon="0.66035">
        <ele>132</ele>
        <time>2012-11-25T08:46:30Z</time>
      </trkpt>
      <trkpt lat="45.37122" lon="0.66048">
        <ele>132</ele>
        <time>2012-11-25T08:46:33Z</time>
      </trkpt>
      <trkpt lat="45.37129" lon="0.66064">
        <ele>131</ele>
        <time>2012-11-25T08:46:38Z</time>
      </trkpt>
      <trkpt lat="45.37144" lon="0.66062">
        <ele>132</ele>
        <time>2012-11-25T08:46:43Z</time>
      </trkpt>
      <trkpt lat="45.37155" lon="0.66062">
        <ele>132</ele>
        <time>2012-11-25T08:46:47Z</time>
      </trkpt>
      <trkpt lat="45.37164" lon="0.66065">
        <ele>132</ele>
        <time>2012-11-25T08:46:50Z</time>
      </trkpt>
      <trkpt lat="45.37183" lon="0.661">
        <ele>131</ele>
        <time>2012-11-25T08:46:56Z</time>
      </trkpt>
      <trkpt lat="45.37196" lon="0.6613">
        <ele>130</ele>
        <time>2012-11-25T08:47:00Z</time>
      </trkpt>
      <trkpt lat="45.37196" lon="0.66138">
        <ele>130</ele>
        <time>2012-11-25T08:47:01Z</time>
      </trkpt>
      <trkpt lat="45.37197" lon="0.66162">
        <ele>129</ele>
        <time>2012-11-25T08:47:05Z</time>
      </trkpt>
      <trkpt lat="45.37215" lon="0.6619">
        <ele>126</ele>
        <time>2012-11-25T08:47:10Z</time>
      </trkpt>
      <trkpt lat="45.37244" lon="0.66238">
        <ele>123</ele>
        <time>2012-11-25T08:47:16Z</time>
      </trkpt>
      <trkpt lat="45.37269" lon="0.66269">
        <ele>120</ele>
        <time>2012-11-25T08:47:20Z</time>
      </trkpt>
      <trkpt lat="45.37275" lon="0.66277">
        <ele>120</ele>
        <time>2012-11-25T08:47:21Z</time>
      </trkpt>
      <trkpt lat="45.37307" lon="0.66356">
        <ele>115</ele>
        <time>2012-11-25T08:47:28Z</time>
      </trkpt>
      <trkpt lat="45.37313" lon="0.66377">
        <ele>115</ele>
        <time>2012-11-25T08:47:30Z</time>
      </trkpt>
      <trkpt lat="45.37323" lon="0.6641">
        <ele>117</ele>
        <time>2012-11-25T08:47:35Z</time>
      </trkpt>
      <trkpt lat="45.37337" lon="0.66409">
        <ele>118</ele>
        <time>2012-11-25T08:47:39Z</time>
      </trkpt>
      <trkpt lat="45.3735" lon="0.66405">
        <ele>117</ele>
        <time>2012-11-25T08:47:42Z</time>
      </trkpt>
      <trkpt lat="45.37378" lon="0.66404">
        <ele>117</ele>
        <time>2012-11-25T08:47:48Z</time>
      </trkpt>
      <trkpt lat="45.37391" lon="0.66411">
        <ele>117</ele>
        <time>2012-11-25T08:47:51Z</time>
      </trkpt>
      <trkpt lat="45.37407" lon="0.66413">
        <ele>118</ele>
        <time>2012-11-25T08:47:54Z</time>
      </trkpt>
      <trkpt lat="45.37438" lon="0.6642">
        <ele>120</ele>
        <time>2012-11-25T08:48:00Z</time>
      </trkpt>
      <trkpt lat="45.37458" lon="0.66432">
        <ele>121</ele>
        <time>2012-11-25T08:48:04Z</time>
      </trkpt>
      <trkpt lat="45.37495" lon="0.66459">
        <ele>121</ele>
        <time>2012-11-25T08:48:12Z</time>
      </trkpt>
      <trkpt lat="45.37516" lon="0.66466">
        <ele>122</ele>
        <time>2012-11-25T08:48:16Z</time>
      </trkpt>
      <trkpt lat="45.37521" lon="0.66467">
        <ele>122</ele>
        <time>2012-11-25T08:48:17Z</time>
      </trkpt>
      <trkpt lat="45.37549" lon="0.66465">
        <ele>122</ele>
        <time>2012-11-25T08:48:22Z</time>
      </trkpt>
      <trkpt lat="45.37573" lon="0.66459">
        <ele>123</ele>
        <time>2012-11-25T08:48:27Z</time>
      </trkpt>
      <trkpt lat="45.37599" lon="0.66456">
        <ele>123</ele>
        <time>2012-11-25T08:48:32Z</time>
      </trkpt>
      <trkpt lat="45.3764" lon="0.66459">
        <ele>123</ele>
        <time>2012-11-25T08:48:40Z</time>
      </trkpt>
      <trkpt lat="45.37653" lon="0.66466">
        <ele>123</ele>
        <time>2012-11-25T08:48:43Z</time>
      </trkpt>
      <trkpt lat="45.3766" lon="0.66474">
        <ele>123</ele>
        <time>2012-11-25T08:48:45Z</time>
      </trkpt>
      <trkpt lat="45.37675" lon="0.66492">
        <ele>123</ele>
        <time>2012-11-25T08:48:49Z</time>
      </trkpt>
      <trkpt lat="45.37695" lon="0.66513">
        <ele>126</ele>
        <time>2012-11-25T08:48:55Z</time>
      </trkpt>
      <trkpt lat="45.37712" lon="0.6653">
        <ele>126</ele>
        <time>2012-11-25T08:48:59Z</time>
      </trkpt>
      <trkpt lat="45.3772" lon="0.66537">
        <ele>126</ele>
        <time>2012-11-25T08:49:01Z</time>
      </trkpt>
      <trkpt lat="45.37739" lon="0.6655">
        <ele>127</ele>
        <time>2012-11-25T08:49:05Z</time>
      </trkpt>
      <trkpt lat="45.3776" lon="0.6656">
        <ele>125</ele>
        <time>2012-11-25T08:49:10Z</time>
      </trkpt>
      <trkpt lat="45.37785" lon="0.66561">
        <ele>124</ele>
        <time>2012-11-25T08:49:16Z</time>
      </trkpt>
      <trkpt lat="45.37794" lon="0.66559">
        <ele>124</ele>
        <time>2012-11-25T08:49:18Z</time>
      </trkpt>
      <trkpt lat="45.37805" lon="0.66561">
        <ele>124</ele>
        <time>2012-11-25T08:49:21Z</time>
      </trkpt>
      <trkpt lat="45.37809" lon="0.66566">
        <ele>124</ele>
        <time>2012-11-25T08:49:25Z</time>
      </trkpt>
      <trkpt lat="45.37797" lon="0.66584">
        <ele>130</ele>
        <time>2012-11-25T08:49:30Z</time>
      </trkpt>
      <trkpt lat="45.37792" lon="0.66593">
        <ele>131</ele>
        <time>2012-11-25T08:49:33Z</time>
      </trkpt>
      <trkpt lat="45.37786" lon="0.66601">
        <ele>131</ele>
        <time>2012-11-25T08:49:37Z</time>
      </trkpt>
      <trkpt lat="45.3778" lon="0.66611">
        <ele>131</ele>
        <time>2012-11-25T08:49:41Z</time>
      </trkpt>
      <trkpt lat="45.37775" lon="0.66626">
        <ele>132</ele>
        <time>2012-11-25T08:49:46Z</time>
      </trkpt>
      <trkpt lat="45.37771" lon="0.66648">
        <ele>134</ele>
        <time>2012-11-25T08:49:51Z</time>
      </trkpt>
      <trkpt lat="45.37764" lon="0.66664">
        <ele>135</ele>
        <time>2012-11-25T08:49:56Z</time>
      </trkpt>
      <trkpt lat="45.37762" lon="0.66672">
        <ele>137</ele>
        <time>2012-11-25T08:49:58Z</time>
      </trkpt>
      <trkpt lat="45.37753" lon="0.66689">
        <ele>137</ele>
        <time>2012-11-25T08:50:03Z</time>
      </trkpt>
      <trkpt lat="45.37744" lon="0.66707">
        <ele>143</ele>
        <time>2012-11-25T08:50:07Z</time>
      </trkpt>
      <trkpt lat="45.37739" lon="0.6673">
        <ele>143</ele>
        <time>2012-11-25T08:50:12Z</time>
      </trkpt>
      <trkpt lat="45.37737" lon="0.66747">
        <ele>142</ele>
        <time>2012-11-25T08:50:16Z</time>
      </trkpt>
      <trkpt lat="45.37737" lon="0.66766">
        <ele>144</ele>
        <time>2012-11-25T08:50:20Z</time>
      </trkpt>
      <trkpt lat="45.37739" lon="0.66784">
        <ele>146</ele>
        <time>2012-11-25T08:50:24Z</time>
      </trkpt>
      <trkpt lat="45.37742" lon="0.66803">
        <ele>146</ele>
        <time>2012-11-25T08:50:28Z</time>
      </trkpt>
      <trkpt lat="45.37737" lon="0.66831">
        <ele>145</ele>
        <time>2012-11-25T08:50:34Z</time>
      </trkpt>
      <trkpt lat="45.37734" lon="0.66863">
        <ele>147</ele>
        <time>2012-11-25T08:50:40Z</time>
      </trkpt>
      <trkpt lat="45.37731" lon="0.6688">
        <ele>147</ele>
        <time>2012-11-25T08:50:43Z</time>
      </trkpt>
      <trkpt lat="45.37728" lon="0.66893">
        <ele>147</ele>
        <time>2012-11-25T08:50:46Z</time>
      </trkpt>
      <trkpt lat="45.37721" lon="0.66927">
        <ele>148</ele>
        <time>2012-11-25T08:50:52Z</time>
      </trkpt>
      <trkpt lat="45.37718" lon="0.6697">
        <ele>149</ele>
        <time>2012-11-25T08:51:00Z</time>
      </trkpt>
      <trkpt lat="45.3772" lon="0.66988">
        <ele>149</ele>
        <time>2012-11-25T08:51:03Z</time>
      </trkpt>
      <trkpt lat="45.3772" lon="0.67004">
        <ele>150</ele>
        <time>2012-11-25T08:51:07Z</time>
      </trkpt>
      <trkpt lat="45.3772" lon="0.67017">
        <ele>150</ele>
        <time>2012-11-25T08:51:10Z</time>
      </trkpt>
      <trkpt lat="45.3772" lon="0.67032">
        <ele>151</ele>
        <time>2012-11-25T08:51:14Z</time>
      </trkpt>
      <trkpt lat="45.37724" lon="0.67047">
        <ele>151</ele>
        <time>2012-11-25T08:51:18Z</time>
      </trkpt>
      <trkpt lat="45.37727" lon="0.67074">
        <ele>151</ele>
        <time>2012-11-25T08:51:24Z</time>
      </trkpt>
      <trkpt lat="45.37725" lon="0.67083">
        <ele>151</ele>
        <time>2012-11-25T08:51:28Z</time>
      </trkpt>
      <trkpt lat="45.37729" lon="0.67102">
        <ele>154</ele>
        <time>2012-11-25T08:51:35Z</time>
      </trkpt>
      <trkpt lat="45.37731" lon="0.67114">
        <ele>155</ele>
        <time>2012-11-25T08:51:40Z</time>
      </trkpt>
      <trkpt lat="45.37735" lon="0.67136">
        <ele>156</ele>
        <time>2012-11-25T08:51:45Z</time>
      </trkpt>
      <trkpt lat="45.37743" lon="0.67167">
        <ele>157</ele>
        <time>2012-11-25T08:51:52Z</time>
      </trkpt>
      <trkpt lat="45.37747" lon="0.67177">
        <ele>158</ele>
        <time>2012-11-25T08:51:55Z</time>
      </trkpt>
      <trkpt lat="45.3775" lon="0.67199">
        <ele>161</ele>
        <time>2012-11-25T08:52:02Z</time>
      </trkpt>
      <trkpt lat="45.37746" lon="0.67212">
        <ele>161</ele>
        <time>2012-11-25T08:52:07Z</time>
      </trkpt>
      <trkpt lat="45.37737" lon="0.67211">
        <ele>161</ele>
        <time>2012-11-25T08:52:12Z</time>
      </trkpt>
      <trkpt lat="45.37729" lon="0.67209">
        <ele>161</ele>
        <time>2012-11-25T08:52:16Z</time>
      </trkpt>
      <trkpt lat="45.37722" lon="0.67214">
        <ele>161</ele>
        <time>2012-11-25T08:52:20Z</time>
      </trkpt>
      <trkpt lat="45.37709" lon="0.67216">
        <ele>162</ele>
        <time>2012-11-25T08:52:26Z</time>
      </trkpt>
      <trkpt lat="45.37694" lon="0.67217">
        <ele>162</ele>
        <time>2012-11-25T08:52:32Z</time>
      </trkpt>
      <trkpt lat="45.37684" lon="0.67218">
        <ele>163</ele>
        <time>2012-11-25T08:52:38Z</time>
      </trkpt>
      <trkpt lat="45.37673" lon="0.6722">
        <ele>163</ele>
        <time>2012-11-25T08:52:43Z</time>
      </trkpt>
      <trkpt lat="45.37665" lon="0.67226">
        <ele>165</ele>
        <time>2012-11-25T08:52:48Z</time>
      </trkpt>
      <trkpt lat="45.37658" lon="0.67229">
        <ele>165</ele>
        <time>2012-11-25T08:52:52Z</time>
      </trkpt>
      <trkpt lat="45.37652" lon="0.67233">
        <ele>165</ele>
        <time>2012-11-25T08:52:55Z</time>
      </trkpt>
      <trkpt lat="45.37648" lon="0.67243">
        <ele>165</ele>
        <time>2012-11-25T08:53:00Z</time>
      </trkpt>
      <trkpt lat="45.37646" lon="0.67258">
        <ele>166</ele>
        <time>2012-11-25T08:53:06Z</time>
      </trkpt>
      <trkpt lat="45.37645" lon="0.67279">
        <ele>166</ele>
        <time>2012-11-25T08:53:12Z</time>
      </trkpt>
      <trkpt lat="45.37646" lon="0.673">
        <ele>166</ele>
        <time>2012-11-25T08:53:16Z</time>
      </trkpt>
      <trkpt lat="45.37644" lon="0.6732">
        <ele>167</ele>
        <time>2012-11-25T08:53:20Z</time>
      </trkpt>
      <trkpt lat="45.37643" lon="0.6733">
        <ele>167</ele>
        <time>2012-11-25T08:53:22Z</time>
      </trkpt>
      <trkpt lat="45.37645" lon="0.67354">
        <ele>167</ele>
        <time>2012-11-25T08:53:26Z</time>
      </trkpt>
      <trkpt lat="45.37639" lon="0.67385">
        <ele>167</ele>
        <time>2012-11-25T08:53:32Z</time>
      </trkpt>
      <trkpt lat="45.37636" lon="0.67401">
        <ele>167</ele>
        <time>2012-11-25T08:53:35Z</time>
      </trkpt>
      <trkpt lat="45.37633" lon="0.67426">
        <ele>168</ele>
        <time>2012-11-25T08:53:39Z</time>
      </trkpt>
      <trkpt lat="45.37632" lon="0.67445">
        <ele>168</ele>
        <time>2012-11-25T08:53:42Z</time>
      </trkpt>
      <trkpt lat="45.37628" lon="0.67463">
        <ele>168</ele>
        <time>2012-11-25T08:53:45Z</time>
      </trkpt>
      <trkpt lat="45.37618" lon="0.67494">
        <ele>168</ele>
        <time>2012-11-25T08:53:50Z</time>
      </trkpt>
      <trkpt lat="45.37609" lon="0.67509">
        <ele>170</ele>
        <time>2012-11-25T08:53:54Z</time>
      </trkpt>
      <trkpt lat="45.37625" lon="0.67514">
        <ele>170</ele>
        <time>2012-11-25T08:54:06Z</time>
      </trkpt>
      <trkpt lat="45.37637" lon="0.67518">
        <ele>170</ele>
        <time>2012-11-25T08:54:09Z</time>
      </trkpt>
      <trkpt lat="45.37662" lon="0.6752">
        <ele>170</ele>
        <time>2012-11-25T08:54:16Z</time>
      </trkpt>
      <trkpt lat="45.3767" lon="0.67521">
        <ele>172</ele>
        <time>2012-11-25T08:54:18Z</time>
      </trkpt>
      <trkpt lat="45.37689" lon="0.6752">
        <ele>173</ele>
        <time>2012-11-25T08:54:24Z</time>
      </trkpt>
      <trkpt lat="45.37696" lon="0.67521">
        <ele>173</ele>
        <time>2012-11-25T08:54:26Z</time>
      </trkpt>
      <trkpt lat="45.37708" lon="0.67522">
        <ele>174</ele>
        <time>2012-11-25T08:54:29Z</time>
      </trkpt>
      <trkpt lat="45.37722" lon="0.67522">
        <ele>175</ele>
        <time>2012-11-25T08:54:33Z</time>
      </trkpt>
      <trkpt lat="45.3775" lon="0.67523">
        <ele>176</ele>
        <time>2012-11-25T08:54:40Z</time>
      </trkpt>
      <trkpt lat="45.37773" lon="0.67527">
        <ele>178</ele>
        <time>2012-11-25T08:54:47Z</time>
      </trkpt>
      <trkpt lat="45.37794" lon="0.67534">
        <ele>178</ele>
        <time>2012-11-25T08:54:52Z</time>
      </trkpt>
      <trkpt lat="45.37816" lon="0.6754">
        <ele>178</ele>
        <time>2012-11-25T08:54:57Z</time>
      </trkpt>
      <trkpt lat="45.3784" lon="0.67546">
        <ele>179</ele>
        <time>2012-11-25T08:55:03Z</time>
      </trkpt>
      <trkpt lat="45.37849" lon="0.67548">
        <ele>179</ele>
        <time>2012-11-25T08:55:05Z</time>
      </trkpt>
      <trkpt lat="45.37877" lon="0.67554">
        <ele>179</ele>
        <time>2012-11-25T08:55:11Z</time>
      </trkpt>
      <trkpt lat="45.37891" lon="0.67555">
        <ele>179</ele>
        <time>2012-11-25T08:55:14Z</time>
      </trkpt>
      <trkpt lat="45.37904" lon="0.67559">
        <ele>179</ele>
        <time>2012-11-25T08:55:17Z</time>
      </trkpt>
      <trkpt lat="45.37911" lon="0.67588">
        <ele>178</ele>
        <time>2012-11-25T08:55:22Z</time>
      </trkpt>
      <trkpt lat="45.37917" lon="0.67611">
        <ele>178</ele>
        <time>2012-11-25T08:55:26Z</time>
      </trkpt>
      <trkpt lat="45.37928" lon="0.67643">
        <ele>178</ele>
        <time>2012-11-25T08:55:31Z</time>
      </trkpt>
      <trkpt lat="45.37936" lon="0.67667">
        <ele>176</ele>
        <time>2012-11-25T08:55:35Z</time>
      </trkpt>
      <trkpt lat="45.37945" lon="0.67706">
        <ele>176</ele>
        <time>2012-11-25T08:55:40Z</time>
      </trkpt>
      <trkpt lat="45.37955" lon="0.6774">
        <ele>175</ele>
        <time>2012-11-25T08:55:44Z</time>
      </trkpt>
      <trkpt lat="45.37964" lon="0.67765">
        <ele>175</ele>
        <time>2012-11-25T08:55:47Z</time>
      </trkpt>
      <trkpt lat="45.37975" lon="0.67801">
        <ele>176</ele>
        <time>2012-11-25T08:55:52Z</time>
      </trkpt>
      <trkpt lat="45.37976" lon="0.67809">
        <ele>176</ele>
        <time>2012-11-25T08:55:53Z</time>
      </trkpt>
      <trkpt lat="45.37984" lon="0.67849">
        <ele>178</ele>
        <time>2012-11-25T08:55:59Z</time>
      </trkpt>
      <trkpt lat="45.37991" lon="0.67877">
        <ele>178</ele>
        <time>2012-11-25T08:56:04Z</time>
      </trkpt>
      <trkpt lat="45.37992" lon="0.67897">
        <ele>178</ele>
        <time>2012-11-25T08:56:09Z</time>
      </trkpt>
      <trkpt lat="45.37992" lon="0.6791">
        <ele>179</ele>
        <time>2012-11-25T08:56:16Z</time>
      </trkpt>
      <trkpt lat="45.37994" lon="0.67919">
        <ele>180</ele>
        <time>2012-11-25T08:56:20Z</time>
      </trkpt>
      <trkpt lat="45.37999" lon="0.67947">
        <ele>178</ele>
        <time>2012-11-25T08:56:28Z</time>
      </trkpt>
      <trkpt lat="45.38002" lon="0.6798">
        <ele>177</ele>
        <time>2012-11-25T08:56:36Z</time>
      </trkpt>
      <trkpt lat="45.37995" lon="0.68">
        <ele>178</ele>
        <time>2012-11-25T08:56:41Z</time>
      </trkpt>
      <trkpt lat="45.37993" lon="0.68023">
        <ele>176</ele>
        <time>2012-11-25T08:56:45Z</time>
      </trkpt>
      <trkpt lat="45.37993" lon="0.68058">
        <ele>175</ele>
        <time>2012-11-25T08:56:51Z</time>
      </trkpt>
      <trkpt lat="45.37996" lon="0.68087">
        <ele>175</ele>
        <time>2012-11-25T08:56:54Z</time>
      </trkpt>
      <trkpt lat="45.37995" lon="0.68113">
        <ele>172</ele>
        <time>2012-11-25T08:56:58Z</time>
      </trkpt>
      <trkpt lat="45.37993" lon="0.68143">
        <ele>171</ele>
        <time>2012-11-25T08:57:03Z</time>
      </trkpt>
      <trkpt lat="45.37991" lon="0.68163">
        <ele>171</ele>
        <time>2012-11-25T08:57:06Z</time>
      </trkpt>
      <trkpt lat="45.3799" lon="0.68206">
        <ele>169</ele>
        <time>2012-11-25T08:57:12Z</time>
      </trkpt>
      <trkpt lat="45.37988" lon="0.68229">
        <ele>170</ele>
        <time>2012-11-25T08:57:15Z</time>
      </trkpt>
      <trkpt lat="45.37981" lon="0.6826">
        <ele>171</ele>
        <time>2012-11-25T08:57:20Z</time>
      </trkpt>
      <trkpt lat="45.37975" lon="0.68319">
        <ele>170</ele>
        <time>2012-11-25T08:57:24Z</time>
      </trkpt>
      <trkpt lat="45.37976" lon="0.68327">
        <ele>170</ele>
        <time>2012-11-25T08:57:25Z</time>
      </trkpt>
      <trkpt lat="45.37974" lon="0.68357">
        <ele>168</ele>
        <time>2012-11-25T08:57:29Z</time>
      </trkpt>
      <trkpt lat="45.37962" lon="0.68405">
        <ele>166</ele>
        <time>2012-11-25T08:57:34Z</time>
      </trkpt>
      <trkpt lat="45.37938" lon="0.6845">
        <ele>160</ele>
        <time>2012-11-25T08:57:40Z</time>
      </trkpt>
      <trkpt lat="45.37931" lon="0.68487">
        <ele>159</ele>
        <time>2012-11-25T08:57:44Z</time>
      </trkpt>
      <trkpt lat="45.37928" lon="0.68505">
        <ele>154</ele>
        <time>2012-11-25T08:57:46Z</time>
      </trkpt>
      <trkpt lat="45.37921" lon="0.68533">
        <ele>151</ele>
        <time>2012-11-25T08:57:49Z</time>
      </trkpt>
      <trkpt lat="45.37899" lon="0.68573">
        <ele>148</ele>
        <time>2012-11-25T08:57:54Z</time>
      </trkpt>
      <trkpt lat="45.37862" lon="0.68602">
        <ele>139</ele>
        <time>2012-11-25T08:58:00Z</time>
      </trkpt>
      <trkpt lat="45.37834" lon="0.68609">
        <ele>139</ele>
        <time>2012-11-25T08:58:04Z</time>
      </trkpt>
      <trkpt lat="45.37815" lon="0.68608">
        <ele>137</ele>
        <time>2012-11-25T08:58:07Z</time>
      </trkpt>
      <trkpt lat="45.37797" lon="0.68616">
        <ele>136</ele>
        <time>2012-11-25T08:58:11Z</time>
      </trkpt>
      <trkpt lat="45.3779" lon="0.68631">
        <ele>134</ele>
        <time>2012-11-25T08:58:13Z</time>
      </trkpt>
      <trkpt lat="45.3778" lon="0.68685">
        <ele>123</ele>
        <time>2012-11-25T08:58:19Z</time>
      </trkpt>
      <trkpt lat="45.37779" lon="0.68695">
        <ele>123</ele>
        <time>2012-11-25T08:58:21Z</time>
      </trkpt>
      <trkpt lat="45.37788" lon="0.68708">
        <ele>122</ele>
        <time>2012-11-25T08:58:32Z</time>
      </trkpt>
      <trkpt lat="45.37798" lon="0.68719">
        <ele>122</ele>
        <time>2012-11-25T08:58:36Z</time>
      </trkpt>
      <trkpt lat="45.37815" lon="0.68728">
        <ele>122</ele>
        <time>2012-11-25T08:58:43Z</time>
      </trkpt>
      <trkpt lat="45.37822" lon="0.68733">
        <ele>121</ele>
        <time>2012-11-25T08:58:46Z</time>
      </trkpt>
      <trkpt lat="45.37842" lon="0.68738">
        <ele>123</ele>
        <time>2012-11-25T08:58:52Z</time>
      </trkpt>
      <trkpt lat="45.37871" lon="0.68749">
        <ele>125</ele>
        <time>2012-11-25T08:59:00Z</time>
      </trkpt>
      <trkpt lat="45.37892" lon="0.68763">
        <ele>119</ele>
        <time>2012-11-25T08:59:05Z</time>
      </trkpt>
      <trkpt lat="45.37918" lon="0.6878">
        <ele>119</ele>
        <time>2012-11-25T08:59:10Z</time>
      </trkpt>
      <trkpt lat="45.37949" lon="0.68789">
        <ele>118</ele>
        <time>2012-11-25T08:59:15Z</time>
      </trkpt>
      <trkpt lat="45.37961" lon="0.68787">
        <ele>118</ele>
        <time>2012-11-25T08:59:17Z</time>
      </trkpt>
      <trkpt lat="45.37994" lon="0.6877">
        <ele>120</ele>
        <time>2012-11-25T08:59:23Z</time>
      </trkpt>
      <trkpt lat="45.3802" lon="0.68756">
        <ele>119</ele>
        <time>2012-11-25T08:59:28Z</time>
      </trkpt>
      <trkpt lat="45.38035" lon="0.68751">
        <ele>119</ele>
        <time>2012-11-25T08:59:31Z</time>
      </trkpt>
      <trkpt lat="45.38052" lon="0.68747">
        <ele>125</ele>
        <time>2012-11-25T08:59:34Z</time>
      </trkpt>
      <trkpt lat="45.38073" lon="0.68745">
        <ele>124</ele>
        <time>2012-11-25T08:59:38Z</time>
      </trkpt>
      <trkpt lat="45.38092" lon="0.68748">
        <ele>124</ele>
        <time>2012-11-25T08:59:42Z</time>
      </trkpt>
      <trkpt lat="45.38116" lon="0.68755">
        <ele>120</ele>
        <time>2012-11-25T08:59:47Z</time>
      </trkpt>
      <trkpt lat="45.38136" lon="0.68758">
        <ele>121</ele>
        <time>2012-11-25T08:59:51Z</time>
      </trkpt>
      <trkpt lat="45.38159" lon="0.68761">
        <ele>124</ele>
        <time>2012-11-25T08:59:56Z</time>
      </trkpt>
      <trkpt lat="45.38178" lon="0.68765">
        <ele>124</ele>
        <time>2012-11-25T09:00:00Z</time>
      </trkpt>
      <trkpt lat="45.38193" lon="0.68768">
        <ele>123</ele>
        <time>2012-11-25T09:00:03Z</time>
      </trkpt>
      <trkpt lat="45.38214" lon="0.68772">
        <ele>123</ele>
        <time>2012-11-25T09:00:07Z</time>
      </trkpt>
      <trkpt lat="45.38241" lon="0.68779">
        <ele>123</ele>
        <time>2012-11-25T09:00:12Z</time>
      </trkpt>
      <trkpt lat="45.38246" lon="0.68782">
        <ele>123</ele>
        <time>2012-11-25T09:00:13Z</time>
      </trkpt>
      <trkpt lat="45.3827" lon="0.68797">
        <ele>123</ele>
        <time>2012-11-25T09:00:17Z</time>
      </trkpt>
      <trkpt lat="45.38306" lon="0.68828">
        <ele>121</ele>
        <time>2012-11-25T09:00:23Z</time>
      </trkpt>
      <trkpt lat="45.38345" lon="0.68827">
        <ele>120</ele>
        <time>2012-11-25T09:00:28Z</time>
      </trkpt>
      <trkpt lat="45.38353" lon="0.68825">
        <ele>121</ele>
        <time>2012-11-25T09:00:29Z</time>
      </trkpt>
      <trkpt lat="45.38397" lon="0.68805">
        <ele>122</ele>
        <time>2012-11-25T09:00:36Z</time>
      </trkpt>
      <trkpt lat="45.3842" lon="0.68794">
        <ele>119</ele>
        <time>2012-11-25T09:00:40Z</time>
      </trkpt>
      <trkpt lat="45.38426" lon="0.68792">
        <ele>119</ele>
        <time>2012-11-25T09:00:41Z</time>
      </trkpt>
      <trkpt lat="45.38458" lon="0.68775">
        <ele>119</ele>
        <time>2012-11-25T09:00:47Z</time>
      </trkpt>
      <trkpt lat="45.38478" lon="0.68761">
        <ele>118</ele>
        <time>2012-11-25T09:00:51Z</time>
      </trkpt>
      <trkpt lat="45.38488" lon="0.68754">
        <ele>117</ele>
        <time>2012-11-25T09:00:53Z</time>
      </trkpt>
      <trkpt lat="45.38508" lon="0.6874">
        <ele>117</ele>
        <time>2012-11-25T09:00:57Z</time>
      </trkpt>
      <trkpt lat="45.38534" lon="0.68699">
        <ele>118</ele>
        <time>2012-11-25T09:01:04Z</time>
      </trkpt>
      <trkpt lat="45.38547" lon="0.6864">
        <ele>121</ele>
        <time>2012-11-25T09:01:12Z</time>
      </trkpt>
      <trkpt lat="45.38548" lon="0.68632">
        <ele>121</ele>
        <time>2012-11-25T09:01:13Z</time>
      </trkpt>
      <trkpt lat="45.38553" lon="0.68593">
        <ele>121</ele>
        <time>2012-11-25T09:01:18Z</time>
      </trkpt>
      <trkpt lat="45.38557" lon="0.68569">
        <ele>124</ele>
        <time>2012-11-25T09:01:21Z</time>
      </trkpt>
      <trkpt lat="45.38565" lon="0.68529">
        <ele>125</ele>
        <time>2012-11-25T09:01:26Z</time>
      </trkpt>
      <trkpt lat="45.38577" lon="0.68491">
        <ele>126</ele>
        <time>2012-11-25T09:01:31Z</time>
      </trkpt>
      <trkpt lat="45.38593" lon="0.68467">
        <ele>121</ele>
        <time>2012-11-25T09:01:35Z</time>
      </trkpt>
      <trkpt lat="45.38602" lon="0.68457">
        <ele>121</ele>
        <time>2012-11-25T09:01:37Z</time>
      </trkpt>
      <trkpt lat="45.38635" lon="0.68427">
        <ele>119</ele>
        <time>2012-11-25T09:01:44Z</time>
      </trkpt>
      <trkpt lat="45.38641" lon="0.68425">
        <ele>118</ele>
        <time>2012-11-25T09:01:45Z</time>
      </trkpt>
      <trkpt lat="45.38677" lon="0.68404">
        <ele>115</ele>
        <time>2012-11-25T09:01:52Z</time>
      </trkpt>
      <trkpt lat="45.38682" lon="0.684">
        <ele>115</ele>
        <time>2012-11-25T09:01:53Z</time>
      </trkpt>
      <trkpt lat="45.38714" lon="0.68387">
        <ele>115</ele>
        <time>2012-11-25T09:02:00Z</time>
      </trkpt>
      <trkpt lat="45.38736" lon="0.68387">
        <ele>115</ele>
        <time>2012-11-25T09:02:04Z</time>
      </trkpt>
      <trkpt lat="45.38753" lon="0.68388">
        <ele>116</ele>
        <time>2012-11-25T09:02:07Z</time>
      </trkpt>
      <trkpt lat="45.38774" lon="0.68393">
        <ele>117</ele>
        <time>2012-11-25T09:02:11Z</time>
      </trkpt>
      <trkpt lat="45.38781" lon="0.68395">
        <ele>117</ele>
        <time>2012-11-25T09:02:13Z</time>
      </trkpt>
      <trkpt lat="45.38803" lon="0.68398">
        <ele>118</ele>
        <time>2012-11-25T09:02:19Z</time>
      </trkpt>
      <trkpt lat="45.38821" lon="0.68405">
        <ele>118</ele>
        <time>2012-11-25T09:02:24Z</time>
      </trkpt>
      <trkpt lat="45.38838" lon="0.68412">
        <ele>120</ele>
        <time>2012-11-25T09:02:29Z</time>
      </trkpt>
      <trkpt lat="45.38865" lon="0.68424">
        <ele>119</ele>
        <time>2012-11-25T09:02:36Z</time>
      </trkpt>
      <trkpt lat="45.38877" lon="0.6843">
        <ele>120</ele>
        <time>2012-11-25T09:02:39Z</time>
      </trkpt>
      <trkpt lat="45.38888" lon="0.68435">
        <ele>120</ele>
        <time>2012-11-25T09:02:42Z</time>
      </trkpt>
      <trkpt lat="45.38905" lon="0.68435">
        <ele>122</ele>
        <time>2012-11-25T09:02:47Z</time>
      </trkpt>
      <trkpt lat="45.38909" lon="0.68427">
        <ele>123</ele>
        <time>2012-11-25T09:02:49Z</time>
      </trkpt>
      <trkpt lat="45.38914" lon="0.68402">
        <ele>125</ele>
        <time>2012-11-25T09:02:54Z</time>
      </trkpt>
      <trkpt lat="45.38919" lon="0.68376">
        <ele>127</ele>
        <time>2012-11-25T09:02:59Z</time>
      </trkpt>
      <trkpt lat="45.38926" lon="0.68347">
        <ele>128</ele>
        <time>2012-11-25T09:03:04Z</time>
      </trkpt>
      <trkpt lat="45.38929" lon="0.68336">
        <ele>128</ele>
        <time>2012-11-25T09:03:06Z</time>
      </trkpt>
      <trkpt lat="45.38934" lon="0.68314">
        <ele>129</ele>
        <time>2012-11-25T09:03:10Z</time>
      </trkpt>
      <trkpt lat="45.38936" lon="0.68285">
        <ele>128</ele>
        <time>2012-11-25T09:03:15Z</time>
      </trkpt>
      <trkpt lat="45.38933" lon="0.68256">
        <ele>128</ele>
        <time>2012-11-25T09:03:20Z</time>
      </trkpt>
      <trkpt lat="45.38928" lon="0.68224">
        <ele>130</ele>
        <time>2012-11-25T09:03:25Z</time>
      </trkpt>
      <trkpt lat="45.38923" lon="0.68183">
        <ele>131</ele>
        <time>2012-11-25T09:03:31Z</time>
      </trkpt>
      <trkpt lat="45.38922" lon="0.6817">
        <ele>131</ele>
        <time>2012-11-25T09:03:33Z</time>
      </trkpt>
      <trkpt lat="45.38918" lon="0.68125">
        <ele>133</ele>
        <time>2012-11-25T09:03:40Z</time>
      </trkpt>
      <trkpt lat="45.38913" lon="0.68087">
        <ele>133</ele>
        <time>2012-11-25T09:03:50Z</time>
      </trkpt>
      <trkpt lat="45.38911" lon="0.6805">
        <ele>135</ele>
        <time>2012-11-25T09:03:56Z</time>
      </trkpt>
      <trkpt lat="45.38915" lon="0.6802">
        <ele>136</ele>
        <time>2012-11-25T09:04:01Z</time>
      </trkpt>
      <trkpt lat="45.38926" lon="0.67977">
        <ele>138</ele>
        <time>2012-11-25T09:04:08Z</time>
      </trkpt>
      <trkpt lat="45.38929" lon="0.67965">
        <ele>138</ele>
        <time>2012-11-25T09:04:10Z</time>
      </trkpt>
      <trkpt lat="45.38934" lon="0.67949">
        <ele>138</ele>
        <time>2012-11-25T09:04:13Z</time>
      </trkpt>
      <trkpt lat="45.38942" lon="0.67926">
        <ele>138</ele>
        <time>2012-11-25T09:04:17Z</time>
      </trkpt>
      <trkpt lat="45.38953" lon="0.67898">
        <ele>137</ele>
        <time>2012-11-25T09:04:22Z</time>
      </trkpt>
      <trkpt lat="45.38963" lon="0.67872">
        <ele>137</ele>
        <time>2012-11-25T09:04:27Z</time>
      </trkpt>
      <trkpt lat="45.38972" lon="0.6785">
        <ele>136</ele>
        <time>2012-11-25T09:04:31Z</time>
      </trkpt>
      <trkpt lat="45.38982" lon="0.67824">
        <ele>135</ele>
        <time>2012-11-25T09:04:36Z</time>
      </trkpt>
      <trkpt lat="45.38987" lon="0.67812">
        <ele>135</ele>
        <time>2012-11-25T09:04:38Z</time>
      </trkpt>
      <trkpt lat="45.38998" lon="0.67782">
        <ele>134</ele>
        <time>2012-11-25T09:04:43Z</time>
      </trkpt>
      <trkpt lat="45.39011" lon="0.67748">
        <ele>132</ele>
        <time>2012-11-25T09:04:48Z</time>
      </trkpt>
      <trkpt lat="45.39013" lon="0.67741">
        <ele>132</ele>
        <time>2012-11-25T09:04:49Z</time>
      </trkpt>
      <trkpt lat="45.39024" lon="0.6771">
        <ele>131</ele>
        <time>2012-11-25T09:04:53Z</time>
      </trkpt>
      <trkpt lat="45.39044" lon="0.67658">
        <ele>130</ele>
        <time>2012-11-25T09:05:00Z</time>
      </trkpt>
      <trkpt lat="45.39051" lon="0.67638">
        <ele>130</ele>
        <time>2012-11-25T09:05:03Z</time>
      </trkpt>
      <trkpt lat="45.39056" lon="0.67625">
        <ele>130</ele>
        <time>2012-11-25T09:05:05Z</time>
      </trkpt>
      <trkpt lat="45.39066" lon="0.676">
        <ele>130</ele>
        <time>2012-11-25T09:05:09Z</time>
      </trkpt>
      <trkpt lat="45.39075" lon="0.67575">
        <ele>130</ele>
        <time>2012-11-25T09:05:13Z</time>
      </trkpt>
      <trkpt lat="45.3909" lon="0.67543">
        <ele>130</ele>
        <time>2012-11-25T09:05:19Z</time>
      </trkpt>
      <trkpt lat="45.39104" lon="0.67547">
        <ele>130</ele>
        <time>2012-11-25T09:05:22Z</time>
      </trkpt>
      <trkpt lat="45.39115" lon="0.67561">
        <ele>130</ele>
        <time>2012-11-25T09:05:25Z</time>
      </trkpt>
      <trkpt lat="45.39135" lon="0.67584">
        <ele>130</ele>
        <time>2012-11-25T09:05:30Z</time>
      </trkpt>
      <trkpt lat="45.39155" lon="0.67608">
        <ele>130</ele>
        <time>2012-11-25T09:05:36Z</time>
      </trkpt>
      <trkpt lat="45.39165" lon="0.6762">
        <ele>130</ele>
        <time>2012-11-25T09:05:39Z</time>
      </trkpt>
      <trkpt lat="45.39184" lon="0.67641">
        <ele>130</ele>
        <time>2012-11-25T09:05:44Z</time>
      </trkpt>
      <trkpt lat="45.39198" lon="0.67659">
        <ele>130</ele>
        <time>2012-11-25T09:05:48Z</time>
      </trkpt>
      <trkpt lat="45.39214" lon="0.67676">
        <ele>131</ele>
        <time>2012-11-25T09:05:52Z</time>
      </trkpt>
      <trkpt lat="45.39222" lon="0.67685">
        <ele>131</ele>
        <time>2012-11-25T09:05:54Z</time>
      </trkpt>
      <trkpt lat="45.39245" lon="0.67711">
        <ele>131</ele>
        <time>2012-11-25T09:06:00Z</time>
      </trkpt>
      <trkpt lat="45.39256" lon="0.67724">
        <ele>131</ele>
        <time>2012-11-25T09:06:03Z</time>
      </trkpt>
      <trkpt lat="45.39264" lon="0.67732">
        <ele>131</ele>
        <time>2012-11-25T09:06:05Z</time>
      </trkpt>
      <trkpt lat="45.3929" lon="0.67763">
        <ele>132</ele>
        <time>2012-11-25T09:06:12Z</time>
      </trkpt>
      <trkpt lat="45.39306" lon="0.6778">
        <ele>132</ele>
        <time>2012-11-25T09:06:16Z</time>
      </trkpt>
      <trkpt lat="45.39318" lon="0.67793">
        <ele>132</ele>
        <time>2012-11-25T09:06:19Z</time>
      </trkpt>
      <trkpt lat="45.39331" lon="0.67805">
        <ele>131</ele>
        <time>2012-11-25T09:06:22Z</time>
      </trkpt>
      <trkpt lat="45.39358" lon="0.67825">
        <ele>130</ele>
        <time>2012-11-25T09:06:28Z</time>
      </trkpt>
      <trkpt lat="45.39375" lon="0.67838">
        <ele>131</ele>
        <time>2012-11-25T09:06:32Z</time>
      </trkpt>
      <trkpt lat="45.39393" lon="0.67851">
        <ele>131</ele>
        <time>2012-11-25T09:06:36Z</time>
      </trkpt>
      <trkpt lat="45.39404" lon="0.6786">
        <ele>131</ele>
        <time>2012-11-25T09:06:39Z</time>
      </trkpt>
      <trkpt lat="45.39422" lon="0.67872">
        <ele>132</ele>
        <time>2012-11-25T09:06:44Z</time>
      </trkpt>
      <trkpt lat="45.3946" lon="0.67886">
        <ele>133</ele>
        <time>2012-11-25T09:06:52Z</time>
      </trkpt>
      <trkpt lat="45.39481" lon="0.67893">
        <ele>134</ele>
        <time>2012-11-25T09:06:56Z</time>
      </trkpt>
      <trkpt lat="45.39509" lon="0.67905">
        <ele>136</ele>
        <time>2012-11-25T09:07:02Z</time>
      </trkpt>
      <trkpt lat="45.39523" lon="0.6791">
        <ele>136</ele>
        <time>2012-11-25T09:07:05Z</time>
      </trkpt>
      <trkpt lat="45.39542" lon="0.67917">
        <ele>139</ele>
        <time>2012-11-25T09:07:09Z</time>
      </trkpt>
      <trkpt lat="45.39564" lon="0.67924">
        <ele>140</ele>
        <time>2012-11-25T09:07:14Z</time>
      </trkpt>
      <trkpt lat="45.39574" lon="0.67933">
        <ele>140</ele>
        <time>2012-11-25T09:07:18Z</time>
      </trkpt>
      <trkpt lat="45.39557" lon="0.67956">
        <ele>140</ele>
        <time>2012-11-25T09:07:24Z</time>
      </trkpt>
      <trkpt lat="45.39553" lon="0.67967">
        <ele>140</ele>
        <time>2012-11-25T09:07:27Z</time>
      </trkpt>
      <trkpt lat="45.39558" lon="0.67976">
        <ele>141</ele>
        <time>2012-11-25T09:07:29Z</time>
      </trkpt>
      <trkpt lat="45.3957" lon="0.67995">
        <ele>142</ele>
        <time>2012-11-25T09:07:34Z</time>
      </trkpt>
      <trkpt lat="45.39599" lon="0.68014">
        <ele>143</ele>
        <time>2012-11-25T09:07:40Z</time>
      </trkpt>
      <trkpt lat="45.39605" lon="0.68018">
        <ele>143</ele>
        <time>2012-11-25T09:07:41Z</time>
      </trkpt>
      <trkpt lat="45.39651" lon="0.68049">
        <ele>141</ele>
        <time>2012-11-25T09:07:49Z</time>
      </trkpt>
      <trkpt lat="45.39656" lon="0.68055">
        <ele>141</ele>
        <time>2012-11-25T09:07:50Z</time>
      </trkpt>
      <trkpt lat="45.39675" lon="0.68078">
        <ele>139</ele>
        <time>2012-11-25T09:07:54Z</time>
      </trkpt>
      <trkpt lat="45.39697" lon="0.68106">
        <ele>136</ele>
        <time>2012-11-25T09:07:59Z</time>
      </trkpt>
      <trkpt lat="45.39718" lon="0.68132">
        <ele>136</ele>
        <time>2012-11-25T09:08:04Z</time>
      </trkpt>
      <trkpt lat="45.3974" lon="0.68157">
        <ele>135</ele>
        <time>2012-11-25T09:08:09Z</time>
      </trkpt>
      <trkpt lat="45.39754" lon="0.6817">
        <ele>135</ele>
        <time>2012-11-25T09:08:12Z</time>
      </trkpt>
      <trkpt lat="45.39764" lon="0.68178">
        <ele>135</ele>
        <time>2012-11-25T09:08:14Z</time>
      </trkpt>
      <trkpt lat="45.3979" lon="0.68199">
        <ele>136</ele>
        <time>2012-11-25T09:08:19Z</time>
      </trkpt>
      <trkpt lat="45.3981" lon="0.68209">
        <ele>136</ele>
        <time>2012-11-25T09:08:23Z</time>
      </trkpt>
      <trkpt lat="45.39823" lon="0.68215">
        <ele>136</ele>
        <time>2012-11-25T09:08:26Z</time>
      </trkpt>
      <trkpt lat="45.39843" lon="0.68225">
        <ele>138</ele>
        <time>2012-11-25T09:08:31Z</time>
      </trkpt>
      <trkpt lat="45.39866" lon="0.68234">
        <ele>138</ele>
        <time>2012-11-25T09:08:36Z</time>
      </trkpt>
      <trkpt lat="45.39889" lon="0.68252">
        <ele>139</ele>
        <time>2012-11-25T09:08:41Z</time>
      </trkpt>
      <trkpt lat="45.39895" lon="0.68257">
        <ele>139</ele>
        <time>2012-11-25T09:08:42Z</time>
      </trkpt>
      <trkpt lat="45.39915" lon="0.68273">
        <ele>139</ele>
        <time>2012-11-25T09:08:46Z</time>
      </trkpt>
      <trkpt lat="45.39939" lon="0.68291">
        <ele>141</ele>
        <time>2012-11-25T09:08:51Z</time>
      </trkpt>
      <trkpt lat="45.39959" lon="0.68306">
        <ele>141</ele>
        <time>2012-11-25T09:08:56Z</time>
      </trkpt>
      <trkpt lat="45.39968" lon="0.68314">
        <ele>141</ele>
        <time>2012-11-25T09:08:58Z</time>
      </trkpt>
      <trkpt lat="45.39987" lon="0.68333">
        <ele>142</ele>
        <time>2012-11-25T09:09:03Z</time>
      </trkpt>
      <trkpt lat="45.39999" lon="0.68342">
        <ele>142</ele>
        <time>2012-11-25T09:09:06Z</time>
      </trkpt>
      <trkpt lat="45.40023" lon="0.68354">
        <ele>144</ele>
        <time>2012-11-25T09:09:13Z</time>
      </trkpt>
      <trkpt lat="45.40037" lon="0.68361">
        <ele>145</ele>
        <time>2012-11-25T09:09:17Z</time>
      </trkpt>
      <trkpt lat="45.40044" lon="0.68365">
        <ele>145</ele>
        <time>2012-11-25T09:09:19Z</time>
      </trkpt>
      <trkpt lat="45.40061" lon="0.68374">
        <ele>145</ele>
        <time>2012-11-25T09:09:24Z</time>
      </trkpt>
      <trkpt lat="45.40074" lon="0.6838">
        <ele>145</ele>
        <time>2012-11-25T09:09:29Z</time>
      </trkpt>
      <trkpt lat="45.40085" lon="0.68384">
        <ele>146</ele>
        <time>2012-11-25T09:09:33Z</time>
      </trkpt>
      <trkpt lat="45.40094" lon="0.68388">
        <ele>146</ele>
        <time>2012-11-25T09:09:36Z</time>
      </trkpt>
      <trkpt lat="45.40109" lon="0.68395">
        <ele>146</ele>
        <time>2012-11-25T09:09:40Z</time>
      </trkpt>
      <trkpt lat="45.40128" lon="0.68405">
        <ele>145</ele>
        <time>2012-11-25T09:09:45Z</time>
      </trkpt>
      <trkpt lat="45.40132" lon="0.68408">
        <ele>145</ele>
        <time>2012-11-25T09:09:50Z</time>
      </trkpt>
      <trkpt lat="45.40136" lon="0.68411">
        <ele>145</ele>
        <time>2012-11-25T09:10:01Z</time>
      </trkpt>
      <trkpt lat="45.40153" lon="0.68422">
        <ele>144</ele>
        <time>2012-11-25T09:10:05Z</time>
      </trkpt>
      <trkpt lat="45.40158" lon="0.68425">
        <ele>144</ele>
        <time>2012-11-25T09:10:06Z</time>
      </trkpt>
      <trkpt lat="45.40195" lon="0.6845">
        <ele>141</ele>
        <time>2012-11-25T09:10:12Z</time>
      </trkpt>
      <trkpt lat="45.40219" lon="0.6846">
        <ele>140</ele>
        <time>2012-11-25T09:10:16Z</time>
      </trkpt>
      <trkpt lat="45.40244" lon="0.68465">
        <ele>139</ele>
        <time>2012-11-25T09:10:20Z</time>
      </trkpt>
      <trkpt lat="45.40268" lon="0.68472">
        <ele>140</ele>
        <time>2012-11-25T09:10:24Z</time>
      </trkpt>
      <trkpt lat="45.40279" lon="0.68475">
        <ele>141</ele>
        <time>2012-11-25T09:10:26Z</time>
      </trkpt>
      <trkpt lat="45.4031" lon="0.68463">
        <ele>143</ele>
        <time>2012-11-25T09:10:33Z</time>
      </trkpt>
      <trkpt lat="45.40319" lon="0.68462">
        <ele>143</ele>
        <time>2012-11-25T09:10:36Z</time>
      </trkpt>
      <trkpt lat="45.40325" lon="0.68461">
        <ele>143</ele>
        <time>2012-11-25T09:10:38Z</time>
      </trkpt>
      <trkpt lat="45.40344" lon="0.68469">
        <ele>148</ele>
        <time>2012-11-25T09:10:45Z</time>
      </trkpt>
      <trkpt lat="45.40361" lon="0.68475">
        <ele>148</ele>
        <time>2012-11-25T09:10:53Z</time>
      </trkpt>
      <trkpt lat="45.40373" lon="0.68477">
        <ele>149</ele>
        <time>2012-11-25T09:11:00Z</time>
      </trkpt>
      <trkpt lat="45.40386" lon="0.6848">
        <ele>150</ele>
        <time>2012-11-25T09:11:09Z</time>
      </trkpt>
      <trkpt lat="45.40395" lon="0.68483">
        <ele>151</ele>
        <time>2012-11-25T09:11:17Z</time>
      </trkpt>
      <trkpt lat="45.40399" lon="0.68485">
        <ele>151</ele>
        <time>2012-11-25T09:11:24Z</time>
      </trkpt>
      <trkpt lat="45.40404" lon="0.68486">
        <ele>152</ele>
        <time>2012-11-25T09:11:30Z</time>
      </trkpt>
      <trkpt lat="45.40411" lon="0.68489">
        <ele>152</ele>
        <time>2012-11-25T09:11:35Z</time>
      </trkpt>
      <trkpt lat="45.40422" lon="0.68494">
        <ele>155</ele>
        <time>2012-11-25T09:11:43Z</time>
      </trkpt>
      <trkpt lat="45.40431" lon="0.68497">
        <ele>155</ele>
        <time>2012-11-25T09:11:53Z</time>
      </trkpt>
      <trkpt lat="45.4044" lon="0.68498">
        <ele>156</ele>
        <time>2012-11-25T09:12:00Z</time>
      </trkpt>
      <trkpt lat="45.40449" lon="0.68501">
        <ele>159</ele>
        <time>2012-11-25T09:12:04Z</time>
      </trkpt>
      <trkpt lat="45.40458" lon="0.68505">
        <ele>159</ele>
        <time>2012-11-25T09:12:08Z</time>
      </trkpt>
      <trkpt lat="45.40467" lon="0.68508">
        <ele>160</ele>
        <time>2012-11-25T09:12:11Z</time>
      </trkpt>
      <trkpt lat="45.40479" lon="0.68511">
        <ele>160</ele>
        <time>2012-11-25T09:12:16Z</time>
      </trkpt>
      <trkpt lat="45.40493" lon="0.68519">
        <ele>161</ele>
        <time>2012-11-25T09:12:22Z</time>
      </trkpt>
      <trkpt lat="45.40505" lon="0.68528">
        <ele>164</ele>
        <time>2012-11-25T09:12:28Z</time>
      </trkpt>
      <trkpt lat="45.40521" lon="0.68539">
        <ele>165</ele>
        <time>2012-11-25T09:12:33Z</time>
      </trkpt>
      <trkpt lat="45.40534" lon="0.68552">
        <ele>165</ele>
        <time>2012-11-25T09:12:37Z</time>
      </trkpt>
      <trkpt lat="45.40544" lon="0.68566">
        <ele>165</ele>
        <time>2012-11-25T09:12:40Z</time>
      </trkpt>
      <trkpt lat="45.40565" lon="0.68599">
        <ele>165</ele>
        <time>2012-11-25T09:12:45Z</time>
      </trkpt>
      <trkpt lat="45.40569" lon="0.68606">
        <ele>165</ele>
        <time>2012-11-25T09:12:46Z</time>
      </trkpt>
      <trkpt lat="45.40585" lon="0.68633">
        <ele>167</ele>
        <time>2012-11-25T09:12:50Z</time>
      </trkpt>
      <trkpt lat="45.40608" lon="0.68677">
        <ele>165</ele>
        <time>2012-11-25T09:12:57Z</time>
      </trkpt>
      <trkpt lat="45.40621" lon="0.68703">
        <ele>165</ele>
        <time>2012-11-25T09:13:01Z</time>
      </trkpt>
      <trkpt lat="45.40629" lon="0.68741">
        <ele>165</ele>
        <time>2012-11-25T09:13:07Z</time>
      </trkpt>
      <trkpt lat="45.40641" lon="0.68768">
        <ele>163</ele>
        <time>2012-11-25T09:13:13Z</time>
      </trkpt>
      <trkpt lat="45.40658" lon="0.68801">
        <ele>162</ele>
        <time>2012-11-25T09:13:20Z</time>
      </trkpt>
      <trkpt lat="45.40673" lon="0.68823">
        <ele>162</ele>
        <time>2012-11-25T09:13:25Z</time>
      </trkpt>
      <trkpt lat="45.40687" lon="0.68852">
        <ele>158</ele>
        <time>2012-11-25T09:13:29Z</time>
      </trkpt>
      <trkpt lat="45.40691" lon="0.6886">
        <ele>158</ele>
        <time>2012-11-25T09:13:30Z</time>
      </trkpt>
      <trkpt lat="45.40711" lon="0.68905">
        <ele>156</ele>
        <time>2012-11-25T09:13:37Z</time>
      </trkpt>
      <trkpt lat="45.40724" lon="0.68934">
        <ele>153</ele>
        <time>2012-11-25T09:13:41Z</time>
      </trkpt>
      <trkpt lat="45.40732" lon="0.68963">
        <ele>153</ele>
        <time>2012-11-25T09:13:45Z</time>
      </trkpt>
      <trkpt lat="45.40738" lon="0.68993">
        <ele>152</ele>
        <time>2012-11-25T09:13:49Z</time>
      </trkpt>
      <trkpt lat="45.40747" lon="0.6902">
        <ele>151</ele>
        <time>2012-11-25T09:13:53Z</time>
      </trkpt>
      <trkpt lat="45.40764" lon="0.69064">
        <ele>150</ele>
        <time>2012-11-25T09:14:01Z</time>
      </trkpt>
      <trkpt lat="45.40769" lon="0.69071">
        <ele>149</ele>
        <time>2012-11-25T09:14:02Z</time>
      </trkpt>
      <trkpt lat="45.408" lon="0.69105">
        <ele>148</ele>
        <time>2012-11-25T09:14:08Z</time>
      </trkpt>
      <trkpt lat="45.40825" lon="0.69128">
        <ele>148</ele>
        <time>2012-11-25T09:14:12Z</time>
      </trkpt>
      <trkpt lat="45.40861" lon="0.69153">
        <ele>145</ele>
        <time>2012-11-25T09:14:17Z</time>
      </trkpt>
      <trkpt lat="45.40875" lon="0.69162">
        <ele>144</ele>
        <time>2012-11-25T09:14:19Z</time>
      </trkpt>
      <trkpt lat="45.40912" lon="0.69185">
        <ele>143</ele>
        <time>2012-11-25T09:14:24Z</time>
      </trkpt>
      <trkpt lat="45.40935" lon="0.692">
        <ele>141</ele>
        <time>2012-11-25T09:14:27Z</time>
      </trkpt>
      <trkpt lat="45.40975" lon="0.69231">
        <ele>140</ele>
        <time>2012-11-25T09:14:32Z</time>
      </trkpt>
      <trkpt lat="45.41014" lon="0.6926">
        <ele>137</ele>
        <time>2012-11-25T09:14:37Z</time>
      </trkpt>
      <trkpt lat="45.41045" lon="0.69269">
        <ele>136</ele>
        <time>2012-11-25T09:14:41Z</time>
      </trkpt>
      <trkpt lat="45.41069" lon="0.69274">
        <ele>135</ele>
        <time>2012-11-25T09:14:45Z</time>
      </trkpt>
      <trkpt lat="45.41078" lon="0.6928">
        <ele>135</ele>
        <time>2012-11-25T09:14:51Z</time>
      </trkpt>
      <trkpt lat="45.41075" lon="0.69298">
        <ele>135</ele>
        <time>2012-11-25T09:14:56Z</time>
      </trkpt>
      <trkpt lat="45.4108" lon="0.69303">
        <ele>135</ele>
        <time>2012-11-25T09:14:58Z</time>
      </trkpt>
      <trkpt lat="45.41107" lon="0.69312">
        <ele>133</ele>
        <time>2012-11-25T09:15:05Z</time>
      </trkpt>
      <trkpt lat="45.41117" lon="0.69312">
        <ele>132</ele>
        <time>2012-11-25T09:15:08Z</time>
      </trkpt>
      <trkpt lat="45.41122" lon="0.6928">
        <ele>132</ele>
        <time>2012-11-25T09:15:13Z</time>
      </trkpt>
      <trkpt lat="45.41136" lon="0.69264">
        <ele>132</ele>
        <time>2012-11-25T09:15:17Z</time>
      </trkpt>
      <trkpt lat="45.4115" lon="0.69263">
        <ele>131</ele>
        <time>2012-11-25T09:15:19Z</time>
      </trkpt>
      <trkpt lat="45.41186" lon="0.6928">
        <ele>131</ele>
        <time>2012-11-25T09:15:25Z</time>
      </trkpt>
      <trkpt lat="45.41191" lon="0.69287">
        <ele>131</ele>
        <time>2012-11-25T09:15:26Z</time>
      </trkpt>
      <trkpt lat="45.4122" lon="0.69338">
        <ele>128</ele>
        <time>2012-11-25T09:15:33Z</time>
      </trkpt>
      <trkpt lat="45.41228" lon="0.69352">
        <ele>128</ele>
        <time>2012-11-25T09:15:35Z</time>
      </trkpt>
      <trkpt lat="45.41242" lon="0.69378">
        <ele>127</ele>
        <time>2012-11-25T09:15:41Z</time>
      </trkpt>
      <trkpt lat="45.41251" lon="0.69389">
        <ele>127</ele>
        <time>2012-11-25T09:15:45Z</time>
      </trkpt>
      <trkpt lat="45.41263" lon="0.69402">
        <ele>127</ele>
        <time>2012-11-25T09:15:51Z</time>
      </trkpt>
      <trkpt lat="45.41281" lon="0.69424">
        <ele>126</ele>
        <time>2012-11-25T09:15:56Z</time>
      </trkpt>
      <trkpt lat="45.41286" lon="0.69435">
        <ele>126</ele>
        <time>2012-11-25T09:15:58Z</time>
      </trkpt>
      <trkpt lat="45.41301" lon="0.69474">
        <ele>126</ele>
        <time>2012-11-25T09:16:04Z</time>
      </trkpt>
      <trkpt lat="45.41309" lon="0.69506">
        <ele>123</ele>
        <time>2012-11-25T09:16:08Z</time>
      </trkpt>
      <trkpt lat="45.41322" lon="0.69516">
        <ele>123</ele>
        <time>2012-11-25T09:16:11Z</time>
      </trkpt>
      <trkpt lat="45.41331" lon="0.69517">
        <ele>123</ele>
        <time>2012-11-25T09:16:13Z</time>
      </trkpt>
      <trkpt lat="45.4135" lon="0.69516">
        <ele>124</ele>
        <time>2012-11-25T09:16:17Z</time>
      </trkpt>
      <trkpt lat="45.4137" lon="0.69522">
        <ele>125</ele>
        <time>2012-11-25T09:16:21Z</time>
      </trkpt>
      <trkpt lat="45.41405" lon="0.69526">
        <ele>126</ele>
        <time>2012-11-25T09:16:28Z</time>
      </trkpt>
      <trkpt lat="45.41441" lon="0.69524">
        <ele>125</ele>
        <time>2012-11-25T09:16:35Z</time>
      </trkpt>
      <trkpt lat="45.41466" lon="0.69519">
        <ele>125</ele>
        <time>2012-11-25T09:16:40Z</time>
      </trkpt>
      <trkpt lat="45.41485" lon="0.69512">
        <ele>125</ele>
        <time>2012-11-25T09:16:44Z</time>
      </trkpt>
      <trkpt lat="45.41517" lon="0.69507">
        <ele>125</ele>
        <time>2012-11-25T09:16:52Z</time>
      </trkpt>
      <trkpt lat="45.41526" lon="0.69509">
        <ele>125</ele>
        <time>2012-11-25T09:16:54Z</time>
      </trkpt>
      <trkpt lat="45.41543" lon="0.69515">
        <ele>125</ele>
        <time>2012-11-25T09:16:58Z</time>
      </trkpt>
      <trkpt lat="45.41555" lon="0.69521">
        <ele>125</ele>
        <time>2012-11-25T09:17:01Z</time>
      </trkpt>
      <trkpt lat="45.41584" lon="0.69542">
        <ele>126</ele>
        <time>2012-11-25T09:17:08Z</time>
      </trkpt>
      <trkpt lat="45.41615" lon="0.6957">
        <ele>125</ele>
        <time>2012-11-25T09:17:16Z</time>
      </trkpt>
      <trkpt lat="45.4163" lon="0.69583">
        <ele>125</ele>
        <time>2012-11-25T09:17:20Z</time>
      </trkpt>
      <trkpt lat="45.41645" lon="0.69591">
        <ele>122</ele>
        <time>2012-11-25T09:17:24Z</time>
      </trkpt>
      <trkpt lat="45.41663" lon="0.6959">
        <ele>124</ele>
        <time>2012-11-25T09:17:28Z</time>
      </trkpt>
      <trkpt lat="45.41671" lon="0.69589">
        <ele>124</ele>
        <time>2012-11-25T09:17:30Z</time>
      </trkpt>
      <trkpt lat="45.41694" lon="0.69587">
        <ele>124</ele>
        <time>2012-11-25T09:17:36Z</time>
      </trkpt>
      <trkpt lat="45.41706" lon="0.69582">
        <ele>127</ele>
        <time>2012-11-25T09:17:39Z</time>
      </trkpt>
      <trkpt lat="45.41716" lon="0.69566">
        <ele>128</ele>
        <time>2012-11-25T09:17:44Z</time>
      </trkpt>
      <trkpt lat="45.41727" lon="0.69536">
        <ele>129</ele>
        <time>2012-11-25T09:17:50Z</time>
      </trkpt>
      <trkpt lat="45.41747" lon="0.6954">
        <ele>129</ele>
        <time>2012-11-25T09:17:54Z</time>
      </trkpt>
      <trkpt lat="45.41759" lon="0.69547">
        <ele>130</ele>
        <time>2012-11-25T09:17:57Z</time>
      </trkpt>
      <trkpt lat="45.41789" lon="0.69572">
        <ele>130</ele>
        <time>2012-11-25T09:18:04Z</time>
      </trkpt>
      <trkpt lat="45.41814" lon="0.69598">
        <ele>126</ele>
        <time>2012-11-25T09:18:10Z</time>
      </trkpt>
      <trkpt lat="45.41839" lon="0.69629">
        <ele>127</ele>
        <time>2012-11-25T09:18:16Z</time>
      </trkpt>
      <trkpt lat="45.41855" lon="0.69653">
        <ele>126</ele>
        <time>2012-11-25T09:18:20Z</time>
      </trkpt>
      <trkpt lat="45.41868" lon="0.69669">
        <ele>122</ele>
        <time>2012-11-25T09:18:23Z</time>
      </trkpt>
      <trkpt lat="45.41888" lon="0.6968">
        <ele>123</ele>
        <time>2012-11-25T09:18:27Z</time>
      </trkpt>
      <trkpt lat="45.41912" lon="0.69685">
        <ele>125</ele>
        <time>2012-11-25T09:18:31Z</time>
      </trkpt>
      <trkpt lat="45.41935" lon="0.69685">
        <ele>127</ele>
        <time>2012-11-25T09:18:35Z</time>
      </trkpt>
      <trkpt lat="45.41962" lon="0.69682">
        <ele>126</ele>
        <time>2012-11-25T09:18:40Z</time>
      </trkpt>
      <trkpt lat="45.41991" lon="0.69689">
        <ele>126</ele>
        <time>2012-11-25T09:18:46Z</time>
      </trkpt>
      <trkpt lat="45.42014" lon="0.697">
        <ele>128</ele>
        <time>2012-11-25T09:18:50Z</time>
      </trkpt>
      <trkpt lat="45.42034" lon="0.69707">
        <ele>128</ele>
        <time>2012-11-25T09:18:54Z</time>
      </trkpt>
      <trkpt lat="45.42054" lon="0.69713">
        <ele>128</ele>
        <time>2012-11-25T09:18:58Z</time>
      </trkpt>
      <trkpt lat="45.42084" lon="0.69715">
        <ele>132</ele>
        <time>2012-11-25T09:19:04Z</time>
      </trkpt>
      <trkpt lat="45.42105" lon="0.69716">
        <ele>133</ele>
        <time>2012-11-25T09:19:08Z</time>
      </trkpt>
      <trkpt lat="45.42115" lon="0.69719">
        <ele>133</ele>
        <time>2012-11-25T09:19:10Z</time>
      </trkpt>
      <trkpt lat="45.4213" lon="0.69726">
        <ele>133</ele>
        <time>2012-11-25T09:19:13Z</time>
      </trkpt>
      <trkpt lat="45.42169" lon="0.69734">
        <ele>134</ele>
        <time>2012-11-25T09:19:20Z</time>
      </trkpt>
      <trkpt lat="45.42174" lon="0.69735">
        <ele>134</ele>
        <time>2012-11-25T09:19:21Z</time>
      </trkpt>
      <trkpt lat="45.42215" lon="0.69735">
        <ele>136</ele>
        <time>2012-11-25T09:19:28Z</time>
      </trkpt>
      <trkpt lat="45.42221" lon="0.69734">
        <ele>136</ele>
        <time>2012-11-25T09:19:29Z</time>
      </trkpt>
      <trkpt lat="45.4226" lon="0.6973">
        <ele>136</ele>
        <time>2012-11-25T09:19:36Z</time>
      </trkpt>
      <trkpt lat="45.42265" lon="0.6973">
        <ele>136</ele>
        <time>2012-11-25T09:19:37Z</time>
      </trkpt>
      <trkpt lat="45.42298" lon="0.69728">
        <ele>137</ele>
        <time>2012-11-25T09:19:43Z</time>
      </trkpt>
      <trkpt lat="45.42324" lon="0.69723">
        <ele>137</ele>
        <time>2012-11-25T09:19:48Z</time>
      </trkpt>
      <trkpt lat="45.42337" lon="0.69718">
        <ele>136</ele>
        <time>2012-11-25T09:19:51Z</time>
      </trkpt>
      <trkpt lat="45.42351" lon="0.69714">
        <ele>137</ele>
        <time>2012-11-25T09:19:55Z</time>
      </trkpt>
      <trkpt lat="45.4236" lon="0.69711">
        <ele>138</ele>
        <time>2012-11-25T09:19:58Z</time>
      </trkpt>
      <trkpt lat="45.42376" lon="0.69707">
        <ele>138</ele>
        <time>2012-11-25T09:20:03Z</time>
      </trkpt>
      <trkpt lat="45.42384" lon="0.69706">
        <ele>138</ele>
        <time>2012-11-25T09:20:05Z</time>
      </trkpt>
      <trkpt lat="45.42416" lon="0.6971">
        <ele>136</ele>
        <time>2012-11-25T09:20:12Z</time>
      </trkpt>
      <trkpt lat="45.4243" lon="0.6971">
        <ele>133</ele>
        <time>2012-11-25T09:20:14Z</time>
      </trkpt>
      <trkpt lat="45.42452" lon="0.69705">
        <ele>133</ele>
        <time>2012-11-25T09:20:17Z</time>
      </trkpt>
      <trkpt lat="45.42479" lon="0.69686">
        <ele>134</ele>
        <time>2012-11-25T09:20:22Z</time>
      </trkpt>
      <trkpt lat="45.42492" lon="0.69663">
        <ele>140</ele>
        <time>2012-11-25T09:20:26Z</time>
      </trkpt>
      <trkpt lat="45.42506" lon="0.6966">
        <ele>138</ele>
        <time>2012-11-25T09:20:30Z</time>
      </trkpt>
      <trkpt lat="45.42512" lon="0.69662">
        <ele>139</ele>
        <time>2012-11-25T09:20:50Z</time>
      </trkpt>
      <trkpt lat="45.42521" lon="0.69664">
        <ele>139</ele>
        <time>2012-11-25T09:20:54Z</time>
      </trkpt>
      <trkpt lat="45.42531" lon="0.69665">
        <ele>139</ele>
        <time>2012-11-25T09:20:57Z</time>
      </trkpt>
      <trkpt lat="45.42544" lon="0.69667">
        <ele>139</ele>
        <time>2012-11-25T09:21:01Z</time>
      </trkpt>
      <trkpt lat="45.42552" lon="0.69669">
        <ele>129</ele>
        <time>2012-11-25T09:21:06Z</time>
      </trkpt>
      <trkpt lat="45.4257" lon="0.69676">
        <ele>129</ele>
        <time>2012-11-25T09:21:11Z</time>
      </trkpt>
      <trkpt lat="45.42578" lon="0.69678">
        <ele>129</ele>
        <time>2012-11-25T09:21:13Z</time>
      </trkpt>
      <trkpt lat="45.42599" lon="0.69683">
        <ele>128</ele>
        <time>2012-11-25T09:21:19Z</time>
      </trkpt>
      <trkpt lat="45.42608" lon="0.69689">
        <ele>127</ele>
        <time>2012-11-25T09:21:22Z</time>
      </trkpt>
      <trkpt lat="45.42618" lon="0.69702">
        <ele>126</ele>
        <time>2012-11-25T09:21:26Z</time>
      </trkpt>
      <trkpt lat="45.42638" lon="0.69722">
        <ele>126</ele>
        <time>2012-11-25T09:21:32Z</time>
      </trkpt>
      <trkpt lat="45.42652" lon="0.69735">
        <ele>126</ele>
        <time>2012-11-25T09:21:36Z</time>
      </trkpt>
      <trkpt lat="45.42666" lon="0.69748">
        <ele>126</ele>
        <time>2012-11-25T09:21:40Z</time>
      </trkpt>
      <trkpt lat="45.42679" lon="0.6976">
        <ele>129</ele>
        <time>2012-11-25T09:21:44Z</time>
      </trkpt>
      <trkpt lat="45.42704" lon="0.69787">
        <ele>131</ele>
        <time>2012-11-25T09:21:51Z</time>
      </trkpt>
      <trkpt lat="45.42711" lon="0.69796">
        <ele>132</ele>
        <time>2012-11-25T09:21:53Z</time>
      </trkpt>
      <trkpt lat="45.42729" lon="0.69831">
        <ele>134</ele>
        <time>2012-11-25T09:22:00Z</time>
      </trkpt>
      <trkpt lat="45.42738" lon="0.69853">
        <ele>131</ele>
        <time>2012-11-25T09:22:04Z</time>
      </trkpt>
      <trkpt lat="45.42769" lon="0.69902">
        <ele>134</ele>
        <time>2012-11-25T09:22:12Z</time>
      </trkpt>
      <trkpt lat="45.42774" lon="0.69907">
        <ele>135</ele>
        <time>2012-11-25T09:22:13Z</time>
      </trkpt>
      <trkpt lat="45.42802" lon="0.69923">
        <ele>130</ele>
        <time>2012-11-25T09:22:18Z</time>
      </trkpt>
      <trkpt lat="45.42824" lon="0.69935">
        <ele>132</ele>
        <time>2012-11-25T09:22:22Z</time>
      </trkpt>
      <trkpt lat="45.4284" lon="0.69945">
        <ele>137</ele>
        <time>2012-11-25T09:22:25Z</time>
      </trkpt>
      <trkpt lat="45.42876" lon="0.69966">
        <ele>136</ele>
        <time>2012-11-25T09:22:32Z</time>
      </trkpt>
      <trkpt lat="45.42881" lon="0.6997">
        <ele>136</ele>
        <time>2012-11-25T09:22:33Z</time>
      </trkpt>
      <trkpt lat="45.42917" lon="0.69994">
        <ele>135</ele>
        <time>2012-11-25T09:22:40Z</time>
      </trkpt>
      <trkpt lat="45.42934" lon="0.70004">
        <ele>131</ele>
        <time>2012-11-25T09:22:43Z</time>
      </trkpt>
      <trkpt lat="45.42958" lon="0.70019">
        <ele>132</ele>
        <time>2012-11-25T09:22:48Z</time>
      </trkpt>
      <trkpt lat="45.42963" lon="0.70022">
        <ele>132</ele>
        <time>2012-11-25T09:22:49Z</time>
      </trkpt>
      <trkpt lat="45.42982" lon="0.70036">
        <ele>132</ele>
        <time>2012-11-25T09:22:53Z</time>
      </trkpt>
      <trkpt lat="45.42999" lon="0.70056">
        <ele>129</ele>
        <time>2012-11-25T09:22:57Z</time>
      </trkpt>
      <trkpt lat="45.42992" lon="0.70108">
        <ele>122</ele>
        <time>2012-11-25T09:23:04Z</time>
      </trkpt>
      <trkpt lat="45.42984" lon="0.70137">
        <ele>121</ele>
        <time>2012-11-25T09:23:08Z</time>
      </trkpt>
      <trkpt lat="45.42977" lon="0.70167">
        <ele>120</ele>
        <time>2012-11-25T09:23:12Z</time>
      </trkpt>
      <trkpt lat="45.42972" lon="0.70189">
        <ele>119</ele>
        <time>2012-11-25T09:23:15Z</time>
      </trkpt>
      <trkpt lat="45.42966" lon="0.70211">
        <ele>119</ele>
        <time>2012-11-25T09:23:18Z</time>
      </trkpt>
      <trkpt lat="45.42951" lon="0.70242">
        <ele>119</ele>
        <time>2012-11-25T09:23:23Z</time>
      </trkpt>
      <trkpt lat="45.42934" lon="0.70258">
        <ele>119</ele>
        <time>2012-11-25T09:23:27Z</time>
      </trkpt>
      <trkpt lat="45.42912" lon="0.70274">
        <ele>120</ele>
        <time>2012-11-25T09:23:32Z</time>
      </trkpt>
      <trkpt lat="45.42872" lon="0.70301">
        <ele>121</ele>
        <time>2012-11-25T09:23:40Z</time>
      </trkpt>
      <trkpt lat="45.42861" lon="0.70306">
        <ele>121</ele>
        <time>2012-11-25T09:23:42Z</time>
      </trkpt>
      <trkpt lat="45.42832" lon="0.70322">
        <ele>122</ele>
        <time>2012-11-25T09:23:48Z</time>
      </trkpt>
      <trkpt lat="45.42798" lon="0.70354">
        <ele>121</ele>
        <time>2012-11-25T09:23:56Z</time>
      </trkpt>
      <trkpt lat="45.42793" lon="0.70367">
        <ele>121</ele>
        <time>2012-11-25T09:23:58Z</time>
      </trkpt>
      <trkpt lat="45.4278" lon="0.70406">
        <ele>121</ele>
        <time>2012-11-25T09:24:04Z</time>
      </trkpt>
      <trkpt lat="45.42773" lon="0.70426">
        <ele>121</ele>
        <time>2012-11-25T09:24:08Z</time>
      </trkpt>
      <trkpt lat="45.42767" lon="0.70443">
        <ele>121</ele>
        <time>2012-11-25T09:24:12Z</time>
      </trkpt>
      <trkpt lat="45.42765" lon="0.70451">
        <ele>121</ele>
        <time>2012-11-25T09:24:14Z</time>
      </trkpt>
      <trkpt lat="45.42758" lon="0.70467">
        <ele>121</ele>
        <time>2012-11-25T09:24:19Z</time>
      </trkpt>
      <trkpt lat="45.42754" lon="0.70476">
        <ele>121</ele>
        <time>2012-11-25T09:24:21Z</time>
      </trkpt>
      <trkpt lat="45.42738" lon="0.70512">
        <ele>123</ele>
        <time>2012-11-25T09:24:28Z</time>
      </trkpt>
      <trkpt lat="45.42729" lon="0.70533">
        <ele>123</ele>
        <time>2012-11-25T09:24:32Z</time>
      </trkpt>
      <trkpt lat="45.42717" lon="0.70579">
        <ele>123</ele>
        <time>2012-11-25T09:24:40Z</time>
      </trkpt>
      <trkpt lat="45.42715" lon="0.70591">
        <ele>124</ele>
        <time>2012-11-25T09:24:42Z</time>
      </trkpt>
      <trkpt lat="45.42708" lon="0.70622">
        <ele>124</ele>
        <time>2012-11-25T09:24:47Z</time>
      </trkpt>
      <trkpt lat="45.42702" lon="0.70652">
        <ele>124</ele>
        <time>2012-11-25T09:24:52Z</time>
      </trkpt>
      <trkpt lat="45.42697" lon="0.70674">
        <ele>124</ele>
        <time>2012-11-25T09:24:56Z</time>
      </trkpt>
      <trkpt lat="45.42695" lon="0.70686">
        <ele>124</ele>
        <time>2012-11-25T09:24:58Z</time>
      </trkpt>
      <trkpt lat="45.42689" lon="0.70715">
        <ele>124</ele>
        <time>2012-11-25T09:25:03Z</time>
      </trkpt>
      <trkpt lat="45.42687" lon="0.70732">
        <ele>124</ele>
        <time>2012-11-25T09:25:06Z</time>
      </trkpt>
      <trkpt lat="45.42698" lon="0.70747">
        <ele>124</ele>
        <time>2012-11-25T09:25:10Z</time>
      </trkpt>
      <trkpt lat="45.42729" lon="0.7075">
        <ele>125</ele>
        <time>2012-11-25T09:25:17Z</time>
      </trkpt>
      <trkpt lat="45.42738" lon="0.7075">
        <ele>125</ele>
        <time>2012-11-25T09:25:19Z</time>
      </trkpt>
      <trkpt lat="45.42768" lon="0.70757">
        <ele>124</ele>
        <time>2012-11-25T09:25:25Z</time>
      </trkpt>
      <trkpt lat="45.42778" lon="0.70761">
        <ele>124</ele>
        <time>2012-11-25T09:25:27Z</time>
      </trkpt>
      <trkpt lat="45.42793" lon="0.70768">
        <ele>125</ele>
        <time>2012-11-25T09:25:30Z</time>
      </trkpt>
      <trkpt lat="45.42813" lon="0.70775">
        <ele>125</ele>
        <time>2012-11-25T09:25:34Z</time>
      </trkpt>
      <trkpt lat="45.4285" lon="0.70784">
        <ele>123</ele>
        <time>2012-11-25T09:25:41Z</time>
      </trkpt>
      <trkpt lat="45.42867" lon="0.7079">
        <ele>123</ele>
        <time>2012-11-25T09:25:44Z</time>
      </trkpt>
      <trkpt lat="45.42877" lon="0.70794">
        <ele>123</ele>
        <time>2012-11-25T09:25:46Z</time>
      </trkpt>
      <trkpt lat="45.42898" lon="0.70803">
        <ele>123</ele>
        <time>2012-11-25T09:25:50Z</time>
      </trkpt>
      <trkpt lat="45.42934" lon="0.70818">
        <ele>122</ele>
        <time>2012-11-25T09:25:57Z</time>
      </trkpt>
      <trkpt lat="45.42954" lon="0.70829">
        <ele>122</ele>
        <time>2012-11-25T09:26:01Z</time>
      </trkpt>
      <trkpt lat="45.42959" lon="0.70832">
        <ele>122</ele>
        <time>2012-11-25T09:26:02Z</time>
      </trkpt>
      <trkpt lat="45.4298" lon="0.70841">
        <ele>122</ele>
        <time>2012-11-25T09:26:06Z</time>
      </trkpt>
      <trkpt lat="45.43001" lon="0.70848">
        <ele>122</ele>
        <time>2012-11-25T09:26:10Z</time>
      </trkpt>
      <trkpt lat="45.43022" lon="0.70856">
        <ele>122</ele>
        <time>2012-11-25T09:26:14Z</time>
      </trkpt>
      <trkpt lat="45.43051" lon="0.70866">
        <ele>122</ele>
        <time>2012-11-25T09:26:20Z</time>
      </trkpt>
      <trkpt lat="45.43076" lon="0.70874">
        <ele>122</ele>
        <time>2012-11-25T09:26:25Z</time>
      </trkpt>
      <trkpt lat="45.43091" lon="0.7088">
        <ele>123</ele>
        <time>2012-11-25T09:26:28Z</time>
      </trkpt>
      <trkpt lat="45.43114" lon="0.70886">
        <ele>123</ele>
        <time>2012-11-25T09:26:33Z</time>
      </trkpt>
      <trkpt lat="45.43142" lon="0.70916">
        <ele>123</ele>
        <time>2012-11-25T09:26:41Z</time>
      </trkpt>
      <trkpt lat="45.43148" lon="0.70926">
        <ele>124</ele>
        <time>2012-11-25T09:26:43Z</time>
      </trkpt>
      <trkpt lat="45.43166" lon="0.70949">
        <ele>124</ele>
        <time>2012-11-25T09:26:49Z</time>
      </trkpt>
      <trkpt lat="45.43165" lon="0.70964">
        <ele>124</ele>
        <time>2012-11-25T09:26:52Z</time>
      </trkpt>
      <trkpt lat="45.43157" lon="0.70993">
        <ele>125</ele>
        <time>2012-11-25T09:26:57Z</time>
      </trkpt>
      <trkpt lat="45.43146" lon="0.71034">
        <ele>125</ele>
        <time>2012-11-25T09:27:04Z</time>
      </trkpt>
      <trkpt lat="45.43138" lon="0.71063">
        <ele>126</ele>
        <time>2012-11-25T09:27:09Z</time>
      </trkpt>
      <trkpt lat="45.43128" lon="0.71091">
        <ele>126</ele>
        <time>2012-11-25T09:27:14Z</time>
      </trkpt>
      <trkpt lat="45.43119" lon="0.71128">
        <ele>126</ele>
        <time>2012-11-25T09:27:20Z</time>
      </trkpt>
      <trkpt lat="45.43115" lon="0.71159">
        <ele>126</ele>
        <time>2012-11-25T09:27:21Z</time>
      </trkpt>
      <trkpt lat="45.43114" lon="0.71184">
        <ele>128</ele>
        <time>2012-11-25T09:27:25Z</time>
      </trkpt>
      <trkpt lat="45.43115" lon="0.71201">
        <ele>128</ele>
        <time>2012-11-25T09:27:28Z</time>
      </trkpt>
      <trkpt lat="45.43116" lon="0.71227">
        <ele>128</ele>
        <time>2012-11-25T09:27:33Z</time>
      </trkpt>
      <trkpt lat="45.43115" lon="0.71237">
        <ele>129</ele>
        <time>2012-11-25T09:27:35Z</time>
      </trkpt>
      <trkpt lat="45.43103" lon="0.71259">
        <ele>131</ele>
        <time>2012-11-25T09:27:40Z</time>
      </trkpt>
      <trkpt lat="45.43092" lon="0.71282">
        <ele>131</ele>
        <time>2012-11-25T09:27:45Z</time>
      </trkpt>
      <trkpt lat="45.43081" lon="0.71303">
        <ele>136</ele>
        <time>2012-11-25T09:27:50Z</time>
      </trkpt>
      <trkpt lat="45.43082" lon="0.7132">
        <ele>135</ele>
        <time>2012-11-25T09:27:54Z</time>
      </trkpt>
      <trkpt lat="45.43091" lon="0.71338">
        <ele>134</ele>
        <time>2012-11-25T09:27:59Z</time>
      </trkpt>
      <trkpt lat="45.43092" lon="0.71363">
        <ele>134</ele>
        <time>2012-11-25T09:28:05Z</time>
      </trkpt>
      <trkpt lat="45.43088" lon="0.71377">
        <ele>134</ele>
        <time>2012-11-25T09:28:09Z</time>
      </trkpt>
      <trkpt lat="45.43085" lon="0.71384">
        <ele>134</ele>
        <time>2012-11-25T09:28:11Z</time>
      </trkpt>
      <trkpt lat="45.43081" lon="0.71393">
        <ele>138</ele>
        <time>2012-11-25T09:28:14Z</time>
      </trkpt>
      <trkpt lat="45.43074" lon="0.71413">
        <ele>137</ele>
        <time>2012-11-25T09:28:20Z</time>
      </trkpt>
      <trkpt lat="45.43067" lon="0.71431">
        <ele>138</ele>
        <time>2012-11-25T09:28:25Z</time>
      </trkpt>
      <trkpt lat="45.43063" lon="0.71441">
        <ele>139</ele>
        <time>2012-11-25T09:28:28Z</time>
      </trkpt>
      <trkpt lat="45.43057" lon="0.71461">
        <ele>139</ele>
        <time>2012-11-25T09:28:34Z</time>
      </trkpt>
      <trkpt lat="45.43049" lon="0.71481">
        <ele>139</ele>
        <time>2012-11-25T09:28:40Z</time>
      </trkpt>
      <trkpt lat="45.43045" lon="0.71492">
        <ele>140</ele>
        <time>2012-11-25T09:28:43Z</time>
      </trkpt>
      <trkpt lat="45.43036" lon="0.71514">
        <ele>141</ele>
        <time>2012-11-25T09:28:49Z</time>
      </trkpt>
      <trkpt lat="45.4303" lon="0.71528">
        <ele>141</ele>
        <time>2012-11-25T09:28:53Z</time>
      </trkpt>
      <trkpt lat="45.43024" lon="0.71545">
        <ele>142</ele>
        <time>2012-11-25T09:28:58Z</time>
      </trkpt>
      <trkpt lat="45.43019" lon="0.71562">
        <ele>143</ele>
        <time>2012-11-25T09:29:03Z</time>
      </trkpt>
      <trkpt lat="45.43012" lon="0.71583">
        <ele>146</ele>
        <time>2012-11-25T09:29:09Z</time>
      </trkpt>
      <trkpt lat="45.43005" lon="0.71598">
        <ele>147</ele>
        <time>2012-11-25T09:29:14Z</time>
      </trkpt>
      <trkpt lat="45.43" lon="0.71619">
        <ele>147</ele>
        <time>2012-11-25T09:29:21Z</time>
      </trkpt>
      <trkpt lat="45.43" lon="0.71629">
        <ele>156</ele>
        <time>2012-11-25T09:29:24Z</time>
      </trkpt>
      <trkpt lat="45.42997" lon="0.71646">
        <ele>156</ele>
        <time>2012-11-25T09:29:29Z</time>
      </trkpt>
      <trkpt lat="45.42994" lon="0.7166">
        <ele>155</ele>
        <time>2012-11-25T09:29:33Z</time>
      </trkpt>
      <trkpt lat="45.42987" lon="0.71678">
        <ele>156</ele>
        <time>2012-11-25T09:29:39Z</time>
      </trkpt>
      <trkpt lat="45.42978" lon="0.71693">
        <ele>158</ele>
        <time>2012-11-25T09:29:44Z</time>
      </trkpt>
      <trkpt lat="45.42975" lon="0.71699">
        <ele>158</ele>
        <time>2012-11-25T09:29:46Z</time>
      </trkpt>
      <trkpt lat="45.42963" lon="0.71722">
        <ele>159</ele>
        <time>2012-11-25T09:29:53Z</time>
      </trkpt>
      <trkpt lat="45.42956" lon="0.71735">
        <ele>159</ele>
        <time>2012-11-25T09:29:57Z</time>
      </trkpt>
      <trkpt lat="45.42941" lon="0.71753">
        <ele>160</ele>
        <time>2012-11-25T09:30:04Z</time>
      </trkpt>
      <trkpt lat="45.42933" lon="0.71762">
        <ele>161</ele>
        <time>2012-11-25T09:30:08Z</time>
      </trkpt>
      <trkpt lat="45.42922" lon="0.71774">
        <ele>161</ele>
        <time>2012-11-25T09:30:13Z</time>
      </trkpt>
      <trkpt lat="45.42921" lon="0.71792">
        <ele>160</ele>
        <time>2012-11-25T09:30:19Z</time>
      </trkpt>
      <trkpt lat="45.42925" lon="0.71799">
        <ele>159</ele>
        <time>2012-11-25T09:30:22Z</time>
      </trkpt>
      <trkpt lat="45.4293" lon="0.71813">
        <ele>159</ele>
        <time>2012-11-25T09:30:26Z</time>
      </trkpt>
      <trkpt lat="45.42934" lon="0.71826">
        <ele>159</ele>
        <time>2012-11-25T09:30:30Z</time>
      </trkpt>
      <trkpt lat="45.42943" lon="0.71852">
        <ele>162</ele>
        <time>2012-11-25T09:30:37Z</time>
      </trkpt>
      <trkpt lat="45.4295" lon="0.71861">
        <ele>162</ele>
        <time>2012-11-25T09:30:40Z</time>
      </trkpt>
      <trkpt lat="45.42961" lon="0.7187">
        <ele>162</ele>
        <time>2012-11-25T09:30:44Z</time>
      </trkpt>
      <trkpt lat="45.42983" lon="0.71876">
        <ele>161</ele>
        <time>2012-11-25T09:30:51Z</time>
      </trkpt>
      <trkpt lat="45.42991" lon="0.71873">
        <ele>161</ele>
        <time>2012-11-25T09:30:54Z</time>
      </trkpt>
      <trkpt lat="45.43004" lon="0.71869">
        <ele>160</ele>
        <time>2012-11-25T09:30:58Z</time>
      </trkpt>
      <trkpt lat="45.43023" lon="0.71863">
        <ele>161</ele>
        <time>2012-11-25T09:31:04Z</time>
      </trkpt>
      <trkpt lat="45.43032" lon="0.71861">
        <ele>161</ele>
        <time>2012-11-25T09:31:07Z</time>
      </trkpt>
      <trkpt lat="45.43044" lon="0.71854">
        <ele>161</ele>
        <time>2012-11-25T09:31:11Z</time>
      </trkpt>
      <trkpt lat="45.43056" lon="0.71845">
        <ele>162</ele>
        <time>2012-11-25T09:31:15Z</time>
      </trkpt>
      <trkpt lat="45.43063" lon="0.71848">
        <ele>162</ele>
        <time>2012-11-25T09:31:20Z</time>
      </trkpt>
      <trkpt lat="45.43076" lon="0.7183">
        <ele>160</ele>
        <time>2012-11-25T09:31:27Z</time>
      </trkpt>
      <trkpt lat="45.43091" lon="0.71824">
        <ele>163</ele>
        <time>2012-11-25T09:31:32Z</time>
      </trkpt>
      <trkpt lat="45.43108" lon="0.71823">
        <ele>164</ele>
        <time>2012-11-25T09:31:38Z</time>
      </trkpt>
      <trkpt lat="45.43117" lon="0.71822">
        <ele>165</ele>
        <time>2012-11-25T09:31:42Z</time>
      </trkpt>
      <trkpt lat="45.43127" lon="0.7182">
        <ele>166</ele>
        <time>2012-11-25T09:31:46Z</time>
      </trkpt>
      <trkpt lat="45.43133" lon="0.7182">
        <ele>167</ele>
        <time>2012-11-25T09:31:49Z</time>
      </trkpt>
      <trkpt lat="45.43143" lon="0.7182">
        <ele>168</ele>
        <time>2012-11-25T09:31:54Z</time>
      </trkpt>
      <trkpt lat="45.43152" lon="0.71816">
        <ele>169</ele>
        <time>2012-11-25T09:31:58Z</time>
      </trkpt>
      <trkpt lat="45.43161" lon="0.71811">
        <ele>169</ele>
        <time>2012-11-25T09:32:02Z</time>
      </trkpt>
      <trkpt lat="45.43165" lon="0.71806">
        <ele>168</ele>
        <time>2012-11-25T09:32:05Z</time>
      </trkpt>
      <trkpt lat="45.43173" lon="0.718">
        <ele>174</ele>
        <time>2012-11-25T09:32:09Z</time>
      </trkpt>
      <trkpt lat="45.43184" lon="0.71787">
        <ele>174</ele>
        <time>2012-11-25T09:32:15Z</time>
      </trkpt>
      <trkpt lat="45.43201" lon="0.71773">
        <ele>174</ele>
        <time>2012-11-25T09:32:23Z</time>
      </trkpt>
      <trkpt lat="45.43208" lon="0.71766">
        <ele>175</ele>
        <time>2012-11-25T09:32:26Z</time>
      </trkpt>
      <trkpt lat="45.43217" lon="0.71758">
        <ele>175</ele>
        <time>2012-11-25T09:32:31Z</time>
      </trkpt>
      <trkpt lat="45.43223" lon="0.7175">
        <ele>173</ele>
        <time>2012-11-25T09:32:35Z</time>
      </trkpt>
      <trkpt lat="45.43228" lon="0.71744">
        <ele>174</ele>
        <time>2012-11-25T09:32:38Z</time>
      </trkpt>
      <trkpt lat="45.43237" lon="0.7174">
        <ele>175</ele>
        <time>2012-11-25T09:32:42Z</time>
      </trkpt>
      <trkpt lat="45.43244" lon="0.71739">
        <ele>176</ele>
        <time>2012-11-25T09:32:45Z</time>
      </trkpt>
      <trkpt lat="45.43258" lon="0.71729">
        <ele>180</ele>
        <time>2012-11-25T09:32:51Z</time>
      </trkpt>
      <trkpt lat="45.43272" lon="0.71721">
        <ele>180</ele>
        <time>2012-11-25T09:33:00Z</time>
      </trkpt>
      <trkpt lat="45.43278" lon="0.71716">
        <ele>181</ele>
        <time>2012-11-25T09:33:04Z</time>
      </trkpt>
      <trkpt lat="45.43286" lon="0.71711">
        <ele>181</ele>
        <time>2012-11-25T09:33:08Z</time>
      </trkpt>
      <trkpt lat="45.43291" lon="0.71708">
        <ele>181</ele>
        <time>2012-11-25T09:33:11Z</time>
      </trkpt>
      <trkpt lat="45.43309" lon="0.71699">
        <ele>182</ele>
        <time>2012-11-25T09:33:20Z</time>
      </trkpt>
      <trkpt lat="45.43315" lon="0.71696">
        <ele>182</ele>
        <time>2012-11-25T09:33:23Z</time>
      </trkpt>
      <trkpt lat="45.43336" lon="0.71695">
        <ele>182</ele>
        <time>2012-11-25T09:33:30Z</time>
      </trkpt>
      <trkpt lat="45.43346" lon="0.71701">
        <ele>182</ele>
        <time>2012-11-25T09:33:33Z</time>
      </trkpt>
      <trkpt lat="45.43364" lon="0.71712">
        <ele>181</ele>
        <time>2012-11-25T09:33:40Z</time>
      </trkpt>
      <trkpt lat="45.43381" lon="0.71722">
        <ele>181</ele>
        <time>2012-11-25T09:33:45Z</time>
      </trkpt>
      <trkpt lat="45.43398" lon="0.71738">
        <ele>180</ele>
        <time>2012-11-25T09:33:50Z</time>
      </trkpt>
      <trkpt lat="45.43405" lon="0.71768">
        <ele>178</ele>
        <time>2012-11-25T09:33:54Z</time>
      </trkpt>
      <trkpt lat="45.43415" lon="0.71806">
        <ele>177</ele>
        <time>2012-11-25T09:34:02Z</time>
      </trkpt>
      <trkpt lat="45.43429" lon="0.71809">
        <ele>171</ele>
        <time>2012-11-25T09:34:04Z</time>
      </trkpt>
      <trkpt lat="45.43478" lon="0.71842">
        <ele>162</ele>
        <time>2012-11-25T09:34:11Z</time>
      </trkpt>
      <trkpt lat="45.43487" lon="0.7185">
        <ele>161</ele>
        <time>2012-11-25T09:34:13Z</time>
      </trkpt>
      <trkpt lat="45.43505" lon="0.71852">
        <ele>157</ele>
        <time>2012-11-25T09:34:16Z</time>
      </trkpt>
      <trkpt lat="45.43547" lon="0.71826">
        <ele>155</ele>
        <time>2012-11-25T09:34:23Z</time>
      </trkpt>
      <trkpt lat="45.43562" lon="0.71792">
        <ele>154</ele>
        <time>2012-11-25T09:34:27Z</time>
      </trkpt>
      <trkpt lat="45.43564" lon="0.71764">
        <ele>153</ele>
        <time>2012-11-25T09:34:31Z</time>
      </trkpt>
      <trkpt lat="45.43571" lon="0.71767">
        <ele>152</ele>
        <time>2012-11-25T09:34:34Z</time>
      </trkpt>
      <trkpt lat="45.43585" lon="0.71788">
        <ele>145</ele>
        <time>2012-11-25T09:34:38Z</time>
      </trkpt>
      <trkpt lat="45.43601" lon="0.71817">
        <ele>146</ele>
        <time>2012-11-25T09:34:42Z</time>
      </trkpt>
      <trkpt lat="45.43616" lon="0.71868">
        <ele>144</ele>
        <time>2012-11-25T09:34:47Z</time>
      </trkpt>
      <trkpt lat="45.43626" lon="0.71882">
        <ele>143</ele>
        <time>2012-11-25T09:34:49Z</time>
      </trkpt>
      <trkpt lat="45.43663" lon="0.71918">
        <ele>138</ele>
        <time>2012-11-25T09:34:54Z</time>
      </trkpt>
      <trkpt lat="45.43682" lon="0.71969">
        <ele>134</ele>
        <time>2012-11-25T09:34:59Z</time>
      </trkpt>
      <trkpt lat="45.43693" lon="0.71985">
        <ele>134</ele>
        <time>2012-11-25T09:35:01Z</time>
      </trkpt>
      <trkpt lat="45.43713" lon="0.72001">
        <ele>133</ele>
        <time>2012-11-25T09:35:04Z</time>
      </trkpt>
      <trkpt lat="45.43722" lon="0.72037">
        <ele>133</ele>
        <time>2012-11-25T09:35:11Z</time>
      </trkpt>
      <trkpt lat="45.4373" lon="0.72085">
        <ele>134</ele>
        <time>2012-11-25T09:35:19Z</time>
      </trkpt>
      <trkpt lat="45.43732" lon="0.72096">
        <ele>134</ele>
        <time>2012-11-25T09:35:21Z</time>
      </trkpt>
      <trkpt lat="45.43735" lon="0.72129">
        <ele>134</ele>
        <time>2012-11-25T09:35:27Z</time>
      </trkpt>
      <trkpt lat="45.43736" lon="0.72152">
        <ele>135</ele>
        <time>2012-11-25T09:35:31Z</time>
      </trkpt>
      <trkpt lat="45.43742" lon="0.72185">
        <ele>136</ele>
        <time>2012-11-25T09:35:37Z</time>
      </trkpt>
      <trkpt lat="45.43752" lon="0.72211">
        <ele>141</ele>
        <time>2012-11-25T09:35:44Z</time>
      </trkpt>
      <trkpt lat="45.43756" lon="0.7222">
        <ele>141</ele>
        <time>2012-11-25T09:35:46Z</time>
      </trkpt>
      <trkpt lat="45.43771" lon="0.72243">
        <ele>141</ele>
        <time>2012-11-25T09:35:52Z</time>
      </trkpt>
      <trkpt lat="45.43776" lon="0.72251">
        <ele>142</ele>
        <time>2012-11-25T09:35:54Z</time>
      </trkpt>
      <trkpt lat="45.43784" lon="0.72263">
        <ele>143</ele>
        <time>2012-11-25T09:35:57Z</time>
      </trkpt>
      <trkpt lat="45.43795" lon="0.72288">
        <ele>144</ele>
        <time>2012-11-25T09:36:03Z</time>
      </trkpt>
      <trkpt lat="45.43802" lon="0.72307">
        <ele>144</ele>
        <time>2012-11-25T09:36:08Z</time>
      </trkpt>
      <trkpt lat="45.43805" lon="0.7232">
        <ele>144</ele>
        <time>2012-11-25T09:36:11Z</time>
      </trkpt>
      <trkpt lat="45.43812" lon="0.72339">
        <ele>144</ele>
        <time>2012-11-25T09:36:15Z</time>
      </trkpt>
      <trkpt lat="45.43817" lon="0.72353">
        <ele>144</ele>
        <time>2012-11-25T09:36:18Z</time>
      </trkpt>
      <trkpt lat="45.43827" lon="0.72374">
        <ele>143</ele>
        <time>2012-11-25T09:36:24Z</time>
      </trkpt>
      <trkpt lat="45.43831" lon="0.72383">
        <ele>143</ele>
        <time>2012-11-25T09:36:26Z</time>
      </trkpt>
      <trkpt lat="45.4384" lon="0.72404">
        <ele>149</ele>
        <time>2012-11-25T09:36:32Z</time>
      </trkpt>
      <trkpt lat="45.43844" lon="0.72413">
        <ele>148</ele>
        <time>2012-11-25T09:36:34Z</time>
      </trkpt>
      <trkpt lat="45.4385" lon="0.72432">
        <ele>149</ele>
        <time>2012-11-25T09:36:39Z</time>
      </trkpt>
      <trkpt lat="45.43855" lon="0.72447">
        <ele>150</ele>
        <time>2012-11-25T09:36:43Z</time>
      </trkpt>
      <trkpt lat="45.43859" lon="0.72464">
        <ele>150</ele>
        <time>2012-11-25T09:36:47Z</time>
      </trkpt>
      <trkpt lat="45.43865" lon="0.72482">
        <ele>150</ele>
        <time>2012-11-25T09:36:52Z</time>
      </trkpt>
      <trkpt lat="45.43875" lon="0.72511">
        <ele>149</ele>
        <time>2012-11-25T09:37:00Z</time>
      </trkpt>
      <trkpt lat="45.43893" lon="0.72544">
        <ele>150</ele>
        <time>2012-11-25T09:37:09Z</time>
      </trkpt>
      <trkpt lat="45.43905" lon="0.72562">
        <ele>150</ele>
        <time>2012-11-25T09:37:14Z</time>
      </trkpt>
      <trkpt lat="45.43916" lon="0.72582">
        <ele>152</ele>
        <time>2012-11-25T09:37:19Z</time>
      </trkpt>
      <trkpt lat="45.43926" lon="0.72597">
        <ele>157</ele>
        <time>2012-11-25T09:37:23Z</time>
      </trkpt>
      <trkpt lat="45.43935" lon="0.72613">
        <ele>159</ele>
        <time>2012-11-25T09:37:28Z</time>
      </trkpt>
      <trkpt lat="45.43943" lon="0.72628">
        <ele>160</ele>
        <time>2012-11-25T09:37:32Z</time>
      </trkpt>
      <trkpt lat="45.43947" lon="0.72637">
        <ele>160</ele>
        <time>2012-11-25T09:37:34Z</time>
      </trkpt>
      <trkpt lat="45.4396" lon="0.72665">
        <ele>162</ele>
        <time>2012-11-25T09:37:41Z</time>
      </trkpt>
      <trkpt lat="45.43966" lon="0.72683">
        <ele>159</ele>
        <time>2012-11-25T09:37:45Z</time>
      </trkpt>
      <trkpt lat="45.43971" lon="0.72697">
        <ele>159</ele>
        <time>2012-11-25T09:37:48Z</time>
      </trkpt>
      <trkpt lat="45.43978" lon="0.72717">
        <ele>158</ele>
        <time>2012-11-25T09:37:52Z</time>
      </trkpt>
      <trkpt lat="45.4398" lon="0.72723">
        <ele>158</ele>
        <time>2012-11-25T09:37:56Z</time>
      </trkpt>
      <trkpt lat="45.43983" lon="0.72735">
        <ele>158</ele>
        <time>2012-11-25T09:38:01Z</time>
      </trkpt>
      <trkpt lat="45.43987" lon="0.72747">
        <ele>159</ele>
        <time>2012-11-25T09:38:04Z</time>
      </trkpt>
      <trkpt lat="45.43993" lon="0.72768">
        <ele>155</ele>
        <time>2012-11-25T09:38:08Z</time>
      </trkpt>
      <trkpt lat="45.43998" lon="0.72785">
        <ele>154</ele>
        <time>2012-11-25T09:38:11Z</time>
      </trkpt>
      <trkpt lat="45.44003" lon="0.72802">
        <ele>163</ele>
        <time>2012-11-25T09:38:14Z</time>
      </trkpt>
      <trkpt lat="45.44005" lon="0.72809">
        <ele>162</ele>
        <time>2012-11-25T09:38:18Z</time>
      </trkpt>
      <trkpt lat="45.44002" lon="0.72793">
        <ele>164</ele>
        <time>2012-11-25T09:38:33Z</time>
      </trkpt>
      <trkpt lat="45.43998" lon="0.72782">
        <ele>154</ele>
        <time>2012-11-25T09:38:37Z</time>
      </trkpt>
      <trkpt lat="45.43993" lon="0.72763">
        <ele>156</ele>
        <time>2012-11-25T09:38:44Z</time>
      </trkpt>
      <trkpt lat="45.4399" lon="0.72753">
        <ele>157</ele>
        <time>2012-11-25T09:38:48Z</time>
      </trkpt>
      <trkpt lat="45.43988" lon="0.72746">
        <ele>159</ele>
        <time>2012-11-25T09:38:52Z</time>
      </trkpt>
      <trkpt lat="45.43986" lon="0.72737">
        <ele>158</ele>
        <time>2012-11-25T09:38:57Z</time>
      </trkpt>
      <trkpt lat="45.43989" lon="0.72734">
        <ele>159</ele>
        <time>2012-11-25T09:40:33Z</time>
      </trkpt>
      <trkpt lat="45.43992" lon="0.72733">
        <ele>159</ele>
        <time>2012-11-25T09:40:49Z</time>
      </trkpt>
      <trkpt lat="45.43988" lon="0.72735">
        <ele>159</ele>
        <time>2012-11-25T09:44:10Z</time>
      </trkpt>
      <trkpt lat="45.43986" lon="0.7274">
        <ele>158</ele>
        <time>2012-11-25T09:46:19Z</time>
      </trkpt>
      <trkpt lat="45.43982" lon="0.72742">
        <ele>158</ele>
        <time>2012-11-25T09:46:29Z</time>
      </trkpt>
      <trkpt lat="45.43989" lon="0.72756">
        <ele>156</ele>
        <time>2012-11-25T09:47:51Z</time>
      </trkpt>
      <trkpt lat="45.43997" lon="0.72779">
        <ele>154</ele>
        <time>2012-11-25T09:47:58Z</time>
      </trkpt>
      <trkpt lat="45.44001" lon="0.72791">
        <ele>164</ele>
        <time>2012-11-25T09:48:01Z</time>
      </trkpt>
      <trkpt lat="45.44007" lon="0.72813">
        <ele>162</ele>
        <time>2012-11-25T09:48:06Z</time>
      </trkpt>
      <trkpt lat="45.4401" lon="0.72832">
        <ele>158</ele>
        <time>2012-11-25T09:48:10Z</time>
      </trkpt>
      <trkpt lat="45.44012" lon="0.72848">
        <ele>158</ele>
        <time>2012-11-25T09:48:13Z</time>
      </trkpt>
      <trkpt lat="45.44013" lon="0.72868">
        <ele>159</ele>
        <time>2012-11-25T09:48:17Z</time>
      </trkpt>
      <trkpt lat="45.44015" lon="0.72898">
        <ele>158</ele>
        <time>2012-11-25T09:48:23Z</time>
      </trkpt>
      <trkpt lat="45.44017" lon="0.72924">
        <ele>157</ele>
        <time>2012-11-25T09:48:28Z</time>
      </trkpt>
      <trkpt lat="45.44015" lon="0.72957">
        <ele>158</ele>
        <time>2012-11-25T09:48:35Z</time>
      </trkpt>
      <trkpt lat="45.44016" lon="0.72969">
        <ele>158</ele>
        <time>2012-11-25T09:48:39Z</time>
      </trkpt>
      <trkpt lat="45.44023" lon="0.72972">
        <ele>158</ele>
        <time>2012-11-25T09:48:42Z</time>
      </trkpt>
      <trkpt lat="45.44031" lon="0.72985">
        <ele>159</ele>
        <time>2012-11-25T09:48:45Z</time>
      </trkpt>
      <trkpt lat="45.44036" lon="0.73014">
        <ele>159</ele>
        <time>2012-11-25T09:48:52Z</time>
      </trkpt>
      <trkpt lat="45.44044" lon="0.73034">
        <ele>160</ele>
        <time>2012-11-25T09:48:57Z</time>
      </trkpt>
      <trkpt lat="45.44052" lon="0.73068">
        <ele>161</ele>
        <time>2012-11-25T09:49:04Z</time>
      </trkpt>
      <trkpt lat="45.44054" lon="0.73085">
        <ele>163</ele>
        <time>2012-11-25T09:49:07Z</time>
      </trkpt>
      <trkpt lat="45.44056" lon="0.73107">
        <ele>163</ele>
        <time>2012-11-25T09:49:11Z</time>
      </trkpt>
      <trkpt lat="45.44058" lon="0.73119">
        <ele>163</ele>
        <time>2012-11-25T09:49:13Z</time>
      </trkpt>
      <trkpt lat="45.44062" lon="0.7316">
        <ele>165</ele>
        <time>2012-11-25T09:49:20Z</time>
      </trkpt>
      <trkpt lat="45.44065" lon="0.73183">
        <ele>167</ele>
        <time>2012-11-25T09:49:24Z</time>
      </trkpt>
      <trkpt lat="45.44068" lon="0.73208">
        <ele>166</ele>
        <time>2012-11-25T09:49:28Z</time>
      </trkpt>
      <trkpt lat="45.44072" lon="0.73245">
        <ele>169</ele>
        <time>2012-11-25T09:49:34Z</time>
      </trkpt>
      <trkpt lat="45.44076" lon="0.73277">
        <ele>169</ele>
        <time>2012-11-25T09:49:39Z</time>
      </trkpt>
      <trkpt lat="45.44078" lon="0.73295">
        <ele>169</ele>
        <time>2012-11-25T09:49:42Z</time>
      </trkpt>
      <trkpt lat="45.44082" lon="0.73323">
        <ele>170</ele>
        <time>2012-11-25T09:49:47Z</time>
      </trkpt>
      <trkpt lat="45.44086" lon="0.7334">
        <ele>173</ele>
        <time>2012-11-25T09:49:50Z</time>
      </trkpt>
      <trkpt lat="45.44094" lon="0.73366">
        <ele>178</ele>
        <time>2012-11-25T09:49:55Z</time>
      </trkpt>
      <trkpt lat="45.44096" lon="0.73376">
        <ele>178</ele>
        <time>2012-11-25T09:49:57Z</time>
      </trkpt>
      <trkpt lat="45.44103" lon="0.73401">
        <ele>178</ele>
        <time>2012-11-25T09:50:02Z</time>
      </trkpt>
      <trkpt lat="45.44106" lon="0.7342">
        <ele>177</ele>
        <time>2012-11-25T09:50:06Z</time>
      </trkpt>
      <trkpt lat="45.44109" lon="0.73444">
        <ele>178</ele>
        <time>2012-11-25T09:50:11Z</time>
      </trkpt>
      <trkpt lat="45.44109" lon="0.73466">
        <ele>178</ele>
        <time>2012-11-25T09:50:16Z</time>
      </trkpt>
      <trkpt lat="45.44107" lon="0.73488">
        <ele>177</ele>
        <time>2012-11-25T09:50:20Z</time>
      </trkpt>
      <trkpt lat="45.44096" lon="0.73523">
        <ele>176</ele>
        <time>2012-11-25T09:50:27Z</time>
      </trkpt>
      <trkpt lat="45.44093" lon="0.73553">
        <ele>177</ele>
        <time>2012-11-25T09:50:32Z</time>
      </trkpt>
      <trkpt lat="45.44094" lon="0.73565">
        <ele>176</ele>
        <time>2012-11-25T09:50:34Z</time>
      </trkpt>
      <trkpt lat="45.44103" lon="0.73594">
        <ele>177</ele>
        <time>2012-11-25T09:50:39Z</time>
      </trkpt>
      <trkpt lat="45.44112" lon="0.73623">
        <ele>178</ele>
        <time>2012-11-25T09:50:44Z</time>
      </trkpt>
      <trkpt lat="45.44116" lon="0.73635">
        <ele>178</ele>
        <time>2012-11-25T09:50:46Z</time>
      </trkpt>
      <trkpt lat="45.44122" lon="0.73659">
        <ele>179</ele>
        <time>2012-11-25T09:50:50Z</time>
      </trkpt>
      <trkpt lat="45.44129" lon="0.73671">
        <ele>181</ele>
        <time>2012-11-25T09:50:53Z</time>
      </trkpt>
      <trkpt lat="45.44141" lon="0.73694">
        <ele>181</ele>
        <time>2012-11-25T09:50:58Z</time>
      </trkpt>
      <trkpt lat="45.44149" lon="0.73715">
        <ele>182</ele>
        <time>2012-11-25T09:51:02Z</time>
      </trkpt>
      <trkpt lat="45.44155" lon="0.73733">
        <ele>182</ele>
        <time>2012-11-25T09:51:06Z</time>
      </trkpt>
      <trkpt lat="45.44162" lon="0.73753">
        <ele>183</ele>
        <time>2012-11-25T09:51:10Z</time>
      </trkpt>
      <trkpt lat="45.44165" lon="0.73787">
        <ele>186</ele>
        <time>2012-11-25T09:51:16Z</time>
      </trkpt>
      <trkpt lat="45.44166" lon="0.73804">
        <ele>187</ele>
        <time>2012-11-25T09:51:19Z</time>
      </trkpt>
      <trkpt lat="45.44162" lon="0.73815">
        <ele>187</ele>
        <time>2012-11-25T09:51:22Z</time>
      </trkpt>
      <trkpt lat="45.44158" lon="0.73832">
        <ele>187</ele>
        <time>2012-11-25T09:51:26Z</time>
      </trkpt>
      <trkpt lat="45.44155" lon="0.73854">
        <ele>190</ele>
        <time>2012-11-25T09:51:31Z</time>
      </trkpt>
      <trkpt lat="45.44152" lon="0.73866">
        <ele>190</ele>
        <time>2012-11-25T09:51:34Z</time>
      </trkpt>
      <trkpt lat="45.44146" lon="0.73894">
        <ele>191</ele>
        <time>2012-11-25T09:51:40Z</time>
      </trkpt>
      <trkpt lat="45.44142" lon="0.73904">
        <ele>191</ele>
        <time>2012-11-25T09:51:43Z</time>
      </trkpt>
      <trkpt lat="45.44141" lon="0.73913">
        <ele>191</ele>
        <time>2012-11-25T09:51:45Z</time>
      </trkpt>
      <trkpt lat="45.44129" lon="0.7393">
        <ele>193</ele>
        <time>2012-11-25T09:51:51Z</time>
      </trkpt>
      <trkpt lat="45.44124" lon="0.73938">
        <ele>193</ele>
        <time>2012-11-25T09:51:54Z</time>
      </trkpt>
      <trkpt lat="45.44113" lon="0.73949">
        <ele>193</ele>
        <time>2012-11-25T09:52:00Z</time>
      </trkpt>
      <trkpt lat="45.44107" lon="0.73954">
        <ele>194</ele>
        <time>2012-11-25T09:52:02Z</time>
      </trkpt>
      <trkpt lat="45.44096" lon="0.73967">
        <ele>194</ele>
        <time>2012-11-25T09:52:07Z</time>
      </trkpt>
      <trkpt lat="45.44095" lon="0.73983">
        <ele>194</ele>
        <time>2012-11-25T09:52:10Z</time>
      </trkpt>
      <trkpt lat="45.44096" lon="0.73999">
        <ele>194</ele>
        <time>2012-11-25T09:52:13Z</time>
      </trkpt>
      <trkpt lat="45.44096" lon="0.74023">
        <ele>195</ele>
        <time>2012-11-25T09:52:18Z</time>
      </trkpt>
      <trkpt lat="45.44099" lon="0.74053">
        <ele>195</ele>
        <time>2012-11-25T09:52:24Z</time>
      </trkpt>
      <trkpt lat="45.441" lon="0.74063">
        <ele>196</ele>
        <time>2012-11-25T09:52:26Z</time>
      </trkpt>
      <trkpt lat="45.44108" lon="0.74094">
        <ele>197</ele>
        <time>2012-11-25T09:52:32Z</time>
      </trkpt>
      <trkpt lat="45.44115" lon="0.74115">
        <ele>198</ele>
        <time>2012-11-25T09:52:36Z</time>
      </trkpt>
      <trkpt lat="45.44118" lon="0.74126">
        <ele>198</ele>
        <time>2012-11-25T09:52:38Z</time>
      </trkpt>
      <trkpt lat="45.44122" lon="0.74142">
        <ele>199</ele>
        <time>2012-11-25T09:52:41Z</time>
      </trkpt>
      <trkpt lat="45.44126" lon="0.74166">
        <ele>199</ele>
        <time>2012-11-25T09:52:47Z</time>
      </trkpt>
      <trkpt lat="45.4413" lon="0.74183">
        <ele>200</ele>
        <time>2012-11-25T09:52:52Z</time>
      </trkpt>
      <trkpt lat="45.44141" lon="0.74201">
        <ele>201</ele>
        <time>2012-11-25T09:52:58Z</time>
      </trkpt>
      <trkpt lat="45.44151" lon="0.74213">
        <ele>201</ele>
        <time>2012-11-25T09:53:03Z</time>
      </trkpt>
      <trkpt lat="45.44152" lon="0.74223">
        <ele>201</ele>
        <time>2012-11-25T09:53:05Z</time>
      </trkpt>
      <trkpt lat="45.44152" lon="0.74244">
        <ele>201</ele>
        <time>2012-11-25T09:53:09Z</time>
      </trkpt>
      <trkpt lat="45.44152" lon="0.74277">
        <ele>203</ele>
        <time>2012-11-25T09:53:15Z</time>
      </trkpt>
      <trkpt lat="45.44152" lon="0.74293">
        <ele>203</ele>
        <time>2012-11-25T09:53:18Z</time>
      </trkpt>
      <trkpt lat="45.44151" lon="0.74306">
        <ele>204</ele>
        <time>2012-11-25T09:53:21Z</time>
      </trkpt>
      <trkpt lat="45.44152" lon="0.74336">
        <ele>206</ele>
        <time>2012-11-25T09:53:27Z</time>
      </trkpt>
      <trkpt lat="45.44152" lon="0.74349">
        <ele>206</ele>
        <time>2012-11-25T09:53:30Z</time>
      </trkpt>
      <trkpt lat="45.44157" lon="0.74358">
        <ele>206</ele>
        <time>2012-11-25T09:53:33Z</time>
      </trkpt>
      <trkpt lat="45.44167" lon="0.74373">
        <ele>206</ele>
        <time>2012-11-25T09:53:38Z</time>
      </trkpt>
      <trkpt lat="45.44176" lon="0.74395">
        <ele>206</ele>
        <time>2012-11-25T09:53:43Z</time>
      </trkpt>
      <trkpt lat="45.44181" lon="0.74404">
        <ele>206</ele>
        <time>2012-11-25T09:53:45Z</time>
      </trkpt>
      <trkpt lat="45.44195" lon="0.7443">
        <ele>206</ele>
        <time>2012-11-25T09:53:50Z</time>
      </trkpt>
      <trkpt lat="45.44217" lon="0.74474">
        <ele>205</ele>
        <time>2012-11-25T09:53:56Z</time>
      </trkpt>
      <trkpt lat="45.44226" lon="0.74491">
        <ele>205</ele>
        <time>2012-11-25T09:53:58Z</time>
      </trkpt>
      <trkpt lat="45.44243" lon="0.74521">
        <ele>204</ele>
        <time>2012-11-25T09:54:02Z</time>
      </trkpt>
      <trkpt lat="45.44261" lon="0.74559">
        <ele>201</ele>
        <time>2012-11-25T09:54:07Z</time>
      </trkpt>
      <trkpt lat="45.44276" lon="0.7459">
        <ele>199</ele>
        <time>2012-11-25T09:54:11Z</time>
      </trkpt>
      <trkpt lat="45.44283" lon="0.74609">
        <ele>198</ele>
        <time>2012-11-25T09:54:13Z</time>
      </trkpt>
      <trkpt lat="45.44301" lon="0.74648">
        <ele>197</ele>
        <time>2012-11-25T09:54:17Z</time>
      </trkpt>
      <trkpt lat="45.44321" lon="0.74682">
        <ele>194</ele>
        <time>2012-11-25T09:54:21Z</time>
      </trkpt>
      <trkpt lat="45.44348" lon="0.74722">
        <ele>192</ele>
        <time>2012-11-25T09:54:27Z</time>
      </trkpt>
      <trkpt lat="45.44353" lon="0.74737">
        <ele>191</ele>
        <time>2012-11-25T09:54:29Z</time>
      </trkpt>
      <trkpt lat="45.44361" lon="0.74765">
        <ele>190</ele>
        <time>2012-11-25T09:54:35Z</time>
      </trkpt>
      <trkpt lat="45.44362" lon="0.74773">
        <ele>190</ele>
        <time>2012-11-25T09:54:37Z</time>
      </trkpt>
      <trkpt lat="45.44358" lon="0.74793">
        <ele>190</ele>
        <time>2012-11-25T09:54:43Z</time>
      </trkpt>
      <trkpt lat="45.44356" lon="0.74803">
        <ele>190</ele>
        <time>2012-11-25T09:54:45Z</time>
      </trkpt>
      <trkpt lat="45.44352" lon="0.74831">
        <ele>189</ele>
        <time>2012-11-25T09:54:52Z</time>
      </trkpt>
      <trkpt lat="45.44351" lon="0.7485">
        <ele>189</ele>
        <time>2012-11-25T09:54:57Z</time>
      </trkpt>
      <trkpt lat="45.44351" lon="0.74883">
        <ele>189</ele>
        <time>2012-11-25T09:55:04Z</time>
      </trkpt>
      <trkpt lat="45.4435" lon="0.74894">
        <ele>189</ele>
        <time>2012-11-25T09:55:07Z</time>
      </trkpt>
      <trkpt lat="45.44347" lon="0.74922">
        <ele>187</ele>
        <time>2012-11-25T09:55:11Z</time>
      </trkpt>
      <trkpt lat="45.44345" lon="0.7495">
        <ele>187</ele>
        <time>2012-11-25T09:55:14Z</time>
      </trkpt>
      <trkpt lat="45.44343" lon="0.74981">
        <ele>186</ele>
        <time>2012-11-25T09:55:18Z</time>
      </trkpt>
      <trkpt lat="45.4434" lon="0.75013">
        <ele>183</ele>
        <time>2012-11-25T09:55:23Z</time>
      </trkpt>
      <trkpt lat="45.4434" lon="0.7504">
        <ele>183</ele>
        <time>2012-11-25T09:55:27Z</time>
      </trkpt>
      <trkpt lat="45.44343" lon="0.75054">
        <ele>182</ele>
        <time>2012-11-25T09:55:29Z</time>
      </trkpt>
      <trkpt lat="45.44364" lon="0.75095">
        <ele>179</ele>
        <time>2012-11-25T09:55:36Z</time>
      </trkpt>
      <trkpt lat="45.44368" lon="0.75126">
        <ele>178</ele>
        <time>2012-11-25T09:55:40Z</time>
      </trkpt>
      <trkpt lat="45.44368" lon="0.7515">
        <ele>178</ele>
        <time>2012-11-25T09:55:43Z</time>
      </trkpt>
      <trkpt lat="45.44368" lon="0.75178">
        <ele>176</ele>
        <time>2012-11-25T09:55:48Z</time>
      </trkpt>
      <trkpt lat="45.4437" lon="0.7519">
        <ele>176</ele>
        <time>2012-11-25T09:55:50Z</time>
      </trkpt>
      <trkpt lat="45.44382" lon="0.75203">
        <ele>176</ele>
        <time>2012-11-25T09:55:56Z</time>
      </trkpt>
      <trkpt lat="45.44396" lon="0.75205">
        <ele>177</ele>
        <time>2012-11-25T09:56:02Z</time>
      </trkpt>
      <trkpt lat="45.44404" lon="0.75208">
        <ele>177</ele>
        <time>2012-11-25T09:56:06Z</time>
      </trkpt>
      <trkpt lat="45.44416" lon="0.75213">
        <ele>178</ele>
        <time>2012-11-25T09:56:12Z</time>
      </trkpt>
      <trkpt lat="45.44423" lon="0.75217">
        <ele>182</ele>
        <time>2012-11-25T09:56:16Z</time>
      </trkpt>
      <trkpt lat="45.44432" lon="0.75222">
        <ele>182</ele>
        <time>2012-11-25T09:56:20Z</time>
      </trkpt>
      <trkpt lat="45.44449" lon="0.75223">
        <ele>183</ele>
        <time>2012-11-25T09:56:27Z</time>
      </trkpt>
      <trkpt lat="45.44462" lon="0.75222">
        <ele>184</ele>
        <time>2012-11-25T09:56:32Z</time>
      </trkpt>
      <trkpt lat="45.44475" lon="0.7522">
        <ele>184</ele>
        <time>2012-11-25T09:56:37Z</time>
      </trkpt>
      <trkpt lat="45.44492" lon="0.75218">
        <ele>185</ele>
        <time>2012-11-25T09:56:44Z</time>
      </trkpt>
      <trkpt lat="45.44503" lon="0.75218">
        <ele>191</ele>
        <time>2012-11-25T09:56:48Z</time>
      </trkpt>
      <trkpt lat="45.44521" lon="0.7522">
        <ele>191</ele>
        <time>2012-11-25T09:56:55Z</time>
      </trkpt>
      <trkpt lat="45.44528" lon="0.75223">
        <ele>192</ele>
        <time>2012-11-25T09:56:58Z</time>
      </trkpt>
      <trkpt lat="45.44542" lon="0.75228">
        <ele>192</ele>
        <time>2012-11-25T09:57:04Z</time>
      </trkpt>
      <trkpt lat="45.4455" lon="0.75231">
        <ele>193</ele>
        <time>2012-11-25T09:57:07Z</time>
      </trkpt>
      <trkpt lat="45.44563" lon="0.7523">
        <ele>194</ele>
        <time>2012-11-25T09:57:12Z</time>
      </trkpt>
      <trkpt lat="45.4457" lon="0.75227">
        <ele>194</ele>
        <time>2012-11-25T09:57:15Z</time>
      </trkpt>
      <trkpt lat="45.44593" lon="0.75213">
        <ele>200</ele>
        <time>2012-11-25T09:57:22Z</time>
      </trkpt>
      <trkpt lat="45.446" lon="0.75213">
        <ele>201</ele>
        <time>2012-11-25T09:57:24Z</time>
      </trkpt>
      <trkpt lat="45.44614" lon="0.75216">
        <ele>201</ele>
        <time>2012-11-25T09:57:28Z</time>
      </trkpt>
      <trkpt lat="45.44627" lon="0.75214">
        <ele>202</ele>
        <time>2012-11-25T09:57:32Z</time>
      </trkpt>
      <trkpt lat="45.44641" lon="0.75204">
        <ele>203</ele>
        <time>2012-11-25T09:57:37Z</time>
      </trkpt>
      <trkpt lat="45.44651" lon="0.75201">
        <ele>203</ele>
        <time>2012-11-25T09:57:41Z</time>
      </trkpt>
      <trkpt lat="45.44664" lon="0.75199">
        <ele>203</ele>
        <time>2012-11-25T09:57:46Z</time>
      </trkpt>
      <trkpt lat="45.44672" lon="0.752">
        <ele>207</ele>
        <time>2012-11-25T09:57:49Z</time>
      </trkpt>
      <trkpt lat="45.44679" lon="0.75203">
        <ele>208</ele>
        <time>2012-11-25T09:57:52Z</time>
      </trkpt>
      <trkpt lat="45.44689" lon="0.75206">
        <ele>208</ele>
        <time>2012-11-25T09:57:56Z</time>
      </trkpt>
      <trkpt lat="45.447" lon="0.75206">
        <ele>208</ele>
        <time>2012-11-25T09:58:01Z</time>
      </trkpt>
      <trkpt lat="45.44716" lon="0.75209">
        <ele>209</ele>
        <time>2012-11-25T09:58:08Z</time>
      </trkpt>
      <trkpt lat="45.44723" lon="0.7521">
        <ele>209</ele>
        <time>2012-11-25T09:58:11Z</time>
      </trkpt>
      <trkpt lat="45.44741" lon="0.75213">
        <ele>209</ele>
        <time>2012-11-25T09:58:18Z</time>
      </trkpt>
      <trkpt lat="45.44749" lon="0.75216">
        <ele>210</ele>
        <time>2012-11-25T09:58:21Z</time>
      </trkpt>
      <trkpt lat="45.44765" lon="0.75221">
        <ele>212</ele>
        <time>2012-11-25T09:58:27Z</time>
      </trkpt>
      <trkpt lat="45.44774" lon="0.75224">
        <ele>212</ele>
        <time>2012-11-25T09:58:31Z</time>
      </trkpt>
      <trkpt lat="45.44794" lon="0.75231">
        <ele>212</ele>
        <time>2012-11-25T09:58:38Z</time>
      </trkpt>
      <trkpt lat="45.44806" lon="0.75237">
        <ele>212</ele>
        <time>2012-11-25T09:58:42Z</time>
      </trkpt>
      <trkpt lat="45.44813" lon="0.75239">
        <ele>212</ele>
        <time>2012-11-25T09:58:44Z</time>
      </trkpt>
      <trkpt lat="45.44828" lon="0.75242">
        <ele>213</ele>
        <time>2012-11-25T09:58:48Z</time>
      </trkpt>
      <trkpt lat="45.44839" lon="0.75244">
        <ele>214</ele>
        <time>2012-11-25T09:58:51Z</time>
      </trkpt>
      <trkpt lat="45.44864" lon="0.75252">
        <ele>215</ele>
        <time>2012-11-25T09:58:56Z</time>
      </trkpt>
      <trkpt lat="45.44879" lon="0.7525">
        <ele>215</ele>
        <time>2012-11-25T09:58:59Z</time>
      </trkpt>
      <trkpt lat="45.44911" lon="0.75259">
        <ele>216</ele>
        <time>2012-11-25T09:59:06Z</time>
      </trkpt>
      <trkpt lat="45.44931" lon="0.75268">
        <ele>215</ele>
        <time>2012-11-25T09:59:10Z</time>
      </trkpt>
      <trkpt lat="45.44971" lon="0.75284">
        <ele>214</ele>
        <time>2012-11-25T09:59:17Z</time>
      </trkpt>
      <trkpt lat="45.44988" lon="0.75293">
        <ele>214</ele>
        <time>2012-11-25T09:59:20Z</time>
      </trkpt>
      <trkpt lat="45.45004" lon="0.7531">
        <ele>212</ele>
        <time>2012-11-25T09:59:24Z</time>
      </trkpt>
      <trkpt lat="45.45018" lon="0.75327">
        <ele>212</ele>
        <time>2012-11-25T09:59:29Z</time>
      </trkpt>
      <trkpt lat="45.45032" lon="0.75345">
        <ele>211</ele>
        <time>2012-11-25T09:59:38Z</time>
      </trkpt>
      <trkpt lat="45.45045" lon="0.7535">
        <ele>210</ele>
        <time>2012-11-25T09:59:41Z</time>
      </trkpt>
      <trkpt lat="45.45054" lon="0.75351">
        <ele>210</ele>
        <time>2012-11-25T09:59:43Z</time>
      </trkpt>
      <trkpt lat="45.45075" lon="0.75351">
        <ele>210</ele>
        <time>2012-11-25T09:59:47Z</time>
      </trkpt>
      <trkpt lat="45.45111" lon="0.75347">
        <ele>209</ele>
        <time>2012-11-25T09:59:53Z</time>
      </trkpt>
      <trkpt lat="45.4513" lon="0.75345">
        <ele>209</ele>
        <time>2012-11-25T09:59:56Z</time>
      </trkpt>
      <trkpt lat="45.45157" lon="0.75346">
        <ele>209</ele>
        <time>2012-11-25T10:00:00Z</time>
      </trkpt>
      <trkpt lat="45.45181" lon="0.75334">
        <ele>209</ele>
        <time>2012-11-25T10:00:04Z</time>
      </trkpt>
      <trkpt lat="45.45205" lon="0.75314">
        <ele>210</ele>
        <time>2012-11-25T10:00:08Z</time>
      </trkpt>
      <trkpt lat="45.45221" lon="0.753">
        <ele>209</ele>
        <time>2012-11-25T10:00:14Z</time>
      </trkpt>
      <trkpt lat="45.45224" lon="0.75292">
        <ele>209</ele>
        <time>2012-11-25T10:00:37Z</time>
      </trkpt>
      <trkpt lat="45.45232" lon="0.75267">
        <ele>209</ele>
        <time>2012-11-25T10:00:42Z</time>
      </trkpt>
      <trkpt lat="45.45236" lon="0.75262">
        <ele>209</ele>
        <time>2012-11-25T10:00:43Z</time>
      </trkpt>
      <trkpt lat="45.4526" lon="0.7524">
        <ele>210</ele>
        <time>2012-11-25T10:00:48Z</time>
      </trkpt>
      <trkpt lat="45.45272" lon="0.75224">
        <ele>210</ele>
        <time>2012-11-25T10:00:52Z</time>
      </trkpt>
      <trkpt lat="45.45289" lon="0.75218">
        <ele>211</ele>
        <time>2012-11-25T10:00:57Z</time>
      </trkpt>
      <trkpt lat="45.45302" lon="0.75213">
        <ele>211</ele>
        <time>2012-11-25T10:01:01Z</time>
      </trkpt>
      <trkpt lat="45.45309" lon="0.75207">
        <ele>211</ele>
        <time>2012-11-25T10:01:03Z</time>
      </trkpt>
      <trkpt lat="45.45322" lon="0.75197">
        <ele>211</ele>
        <time>2012-11-25T10:01:07Z</time>
      </trkpt>
      <trkpt lat="45.45338" lon="0.75184">
        <ele>213</ele>
        <time>2012-11-25T10:01:12Z</time>
      </trkpt>
      <trkpt lat="45.45355" lon="0.75161">
        <ele>213</ele>
        <time>2012-11-25T10:01:18Z</time>
      </trkpt>
      <trkpt lat="45.45382" lon="0.7514">
        <ele>214</ele>
        <time>2012-11-25T10:01:25Z</time>
      </trkpt>
      <trkpt lat="45.45393" lon="0.75123">
        <ele>214</ele>
        <time>2012-11-25T10:01:29Z</time>
      </trkpt>
      <trkpt lat="45.45399" lon="0.75113">
        <ele>214</ele>
        <time>2012-11-25T10:01:31Z</time>
      </trkpt>
      <trkpt lat="45.45414" lon="0.75092">
        <ele>215</ele>
        <time>2012-11-25T10:01:36Z</time>
      </trkpt>
      <trkpt lat="45.45432" lon="0.75071">
        <ele>217</ele>
        <time>2012-11-25T10:01:42Z</time>
      </trkpt>
      <trkpt lat="45.45448" lon="0.75054">
        <ele>217</ele>
        <time>2012-11-25T10:01:47Z</time>
      </trkpt>
      <trkpt lat="45.45467" lon="0.75027">
        <ele>218</ele>
        <time>2012-11-25T10:01:54Z</time>
      </trkpt>
      <trkpt lat="45.45469" lon="0.75016">
        <ele>218</ele>
        <time>2012-11-25T10:01:56Z</time>
      </trkpt>
      <trkpt lat="45.45473" lon="0.74999">
        <ele>219</ele>
        <time>2012-11-25T10:01:59Z</time>
      </trkpt>
      <trkpt lat="45.45474" lon="0.74975">
        <ele>219</ele>
        <time>2012-11-25T10:02:03Z</time>
      </trkpt>
      <trkpt lat="45.45472" lon="0.74955">
        <ele>219</ele>
        <time>2012-11-25T10:02:09Z</time>
      </trkpt>
      <trkpt lat="45.45465" lon="0.74926">
        <ele>219</ele>
        <time>2012-11-25T10:02:15Z</time>
      </trkpt>
      <trkpt lat="45.45461" lon="0.74901">
        <ele>219</ele>
        <time>2012-11-25T10:02:19Z</time>
      </trkpt>
      <trkpt lat="45.45457" lon="0.7487">
        <ele>219</ele>
        <time>2012-11-25T10:02:24Z</time>
      </trkpt>
      <trkpt lat="45.45451" lon="0.74824">
        <ele>219</ele>
        <time>2012-11-25T10:02:31Z</time>
      </trkpt>
      <trkpt lat="45.45447" lon="0.74788">
        <ele>219</ele>
        <time>2012-11-25T10:02:36Z</time>
      </trkpt>
      <trkpt lat="45.45444" lon="0.74765">
        <ele>219</ele>
        <time>2012-11-25T10:02:39Z</time>
      </trkpt>
      <trkpt lat="45.45443" lon="0.74733">
        <ele>217</ele>
        <time>2012-11-25T10:02:43Z</time>
      </trkpt>
      <trkpt lat="45.45443" lon="0.74716">
        <ele>217</ele>
        <time>2012-11-25T10:02:45Z</time>
      </trkpt>
      <trkpt lat="45.45447" lon="0.74684">
        <ele>216</ele>
        <time>2012-11-25T10:02:49Z</time>
      </trkpt>
      <trkpt lat="45.45452" lon="0.74652">
        <ele>214</ele>
        <time>2012-11-25T10:02:53Z</time>
      </trkpt>
      <trkpt lat="45.45456" lon="0.74619">
        <ele>213</ele>
        <time>2012-11-25T10:02:57Z</time>
      </trkpt>
      <trkpt lat="45.4546" lon="0.74576">
        <ele>211</ele>
        <time>2012-11-25T10:03:02Z</time>
      </trkpt>
      <trkpt lat="45.45471" lon="0.74524">
        <ele>210</ele>
        <time>2012-11-25T10:03:08Z</time>
      </trkpt>
      <trkpt lat="45.45473" lon="0.74515">
        <ele>210</ele>
        <time>2012-11-25T10:03:09Z</time>
      </trkpt>
      <trkpt lat="45.45478" lon="0.74466">
        <ele>210</ele>
        <time>2012-11-25T10:03:15Z</time>
      </trkpt>
      <trkpt lat="45.45484" lon="0.74437">
        <ele>210</ele>
        <time>2012-11-25T10:03:20Z</time>
      </trkpt>
      <trkpt lat="45.45487" lon="0.74427">
        <ele>210</ele>
        <time>2012-11-25T10:03:22Z</time>
      </trkpt>
      <trkpt lat="45.45505" lon="0.74437">
        <ele>209</ele>
        <time>2012-11-25T10:03:28Z</time>
      </trkpt>
      <trkpt lat="45.45511" lon="0.74441">
        <ele>208</ele>
        <time>2012-11-25T10:03:29Z</time>
      </trkpt>
      <trkpt lat="45.45563" lon="0.74476">
        <ele>206</ele>
        <time>2012-11-25T10:03:36Z</time>
      </trkpt>
      <trkpt lat="45.4557" lon="0.74483">
        <ele>206</ele>
        <time>2012-11-25T10:03:37Z</time>
      </trkpt>
      <trkpt lat="45.45613" lon="0.74513">
        <ele>202</ele>
        <time>2012-11-25T10:03:42Z</time>
      </trkpt>
      <trkpt lat="45.45643" lon="0.74524">
        <ele>201</ele>
        <time>2012-11-25T10:03:46Z</time>
      </trkpt>
      <trkpt lat="45.45691" lon="0.74514">
        <ele>198</ele>
        <time>2012-11-25T10:03:52Z</time>
      </trkpt>
      <trkpt lat="45.45723" lon="0.74508">
        <ele>197</ele>
        <time>2012-11-25T10:03:56Z</time>
      </trkpt>
      <trkpt lat="45.4575" lon="0.74525">
        <ele>197</ele>
        <time>2012-11-25T10:04:00Z</time>
      </trkpt>
      <trkpt lat="45.45763" lon="0.74531">
        <ele>195</ele>
        <time>2012-11-25T10:04:02Z</time>
      </trkpt>
      <trkpt lat="45.45791" lon="0.74548">
        <ele>196</ele>
        <time>2012-11-25T10:04:07Z</time>
      </trkpt>
      <trkpt lat="45.45809" lon="0.7456">
        <ele>196</ele>
        <time>2012-11-25T10:04:11Z</time>
      </trkpt>
      <trkpt lat="45.45817" lon="0.74566">
        <ele>197</ele>
        <time>2012-11-25T10:04:13Z</time>
      </trkpt>
      <trkpt lat="45.45834" lon="0.74586">
        <ele>198</ele>
        <time>2012-11-25T10:04:20Z</time>
      </trkpt>
      <trkpt lat="45.45838" lon="0.74593">
        <ele>199</ele>
        <time>2012-11-25T10:04:21Z</time>
      </trkpt>
      <trkpt lat="45.45859" lon="0.74624">
        <ele>201</ele>
        <time>2012-11-25T10:04:28Z</time>
      </trkpt>
      <trkpt lat="45.45882" lon="0.7462">
        <ele>200</ele>
        <time>2012-11-25T10:04:36Z</time>
      </trkpt>
      <trkpt lat="45.45888" lon="0.7462">
        <ele>200</ele>
        <time>2012-11-25T10:04:38Z</time>
      </trkpt>
      <trkpt lat="45.45904" lon="0.74621">
        <ele>200</ele>
        <time>2012-11-25T10:04:43Z</time>
      </trkpt>
      <trkpt lat="45.45911" lon="0.74621">
        <ele>200</ele>
        <time>2012-11-25T10:04:45Z</time>
      </trkpt>
      <trkpt lat="45.45924" lon="0.74621">
        <ele>200</ele>
        <time>2012-11-25T10:04:49Z</time>
      </trkpt>
      <trkpt lat="45.45938" lon="0.74626">
        <ele>200</ele>
        <time>2012-11-25T10:04:53Z</time>
      </trkpt>
      <trkpt lat="45.45954" lon="0.74632">
        <ele>201</ele>
        <time>2012-11-25T10:04:58Z</time>
      </trkpt>
      <trkpt lat="45.45975" lon="0.74637">
        <ele>202</ele>
        <time>2012-11-25T10:05:04Z</time>
      </trkpt>
      <trkpt lat="45.45988" lon="0.74643">
        <ele>203</ele>
        <time>2012-11-25T10:05:08Z</time>
      </trkpt>
      <trkpt lat="45.46002" lon="0.74645">
        <ele>202</ele>
        <time>2012-11-25T10:05:13Z</time>
      </trkpt>
      <trkpt lat="45.46018" lon="0.74647">
        <ele>201</ele>
        <time>2012-11-25T10:05:20Z</time>
      </trkpt>
      <trkpt lat="45.46034" lon="0.7463">
        <ele>200</ele>
        <time>2012-11-25T10:05:26Z</time>
      </trkpt>
      <trkpt lat="45.46054" lon="0.74598">
        <ele>197</ele>
        <time>2012-11-25T10:05:32Z</time>
      </trkpt>
      <trkpt lat="45.46071" lon="0.74582">
        <ele>193</ele>
        <time>2012-11-25T10:05:35Z</time>
      </trkpt>
      <trkpt lat="45.46096" lon="0.74571">
        <ele>191</ele>
        <time>2012-11-25T10:05:39Z</time>
      </trkpt>
      <trkpt lat="45.46119" lon="0.74565">
        <ele>189</ele>
        <time>2012-11-25T10:05:43Z</time>
      </trkpt>
      <trkpt lat="45.46145" lon="0.74555">
        <ele>188</ele>
        <time>2012-11-25T10:05:48Z</time>
      </trkpt>
      <trkpt lat="45.46162" lon="0.74549">
        <ele>188</ele>
        <time>2012-11-25T10:05:52Z</time>
      </trkpt>
      <trkpt lat="45.46173" lon="0.7454">
        <ele>185</ele>
        <time>2012-11-25T10:05:55Z</time>
      </trkpt>
      <trkpt lat="45.46186" lon="0.74527">
        <ele>185</ele>
        <time>2012-11-25T10:05:58Z</time>
      </trkpt>
      <trkpt lat="45.46216" lon="0.74496">
        <ele>182</ele>
        <time>2012-11-25T10:06:04Z</time>
      </trkpt>
      <trkpt lat="45.46231" lon="0.74481">
        <ele>181</ele>
        <time>2012-11-25T10:06:07Z</time>
      </trkpt>
      <trkpt lat="45.46254" lon="0.74447">
        <ele>178</ele>
        <time>2012-11-25T10:06:12Z</time>
      </trkpt>
      <trkpt lat="45.46264" lon="0.74434">
        <ele>178</ele>
        <time>2012-11-25T10:06:14Z</time>
      </trkpt>
      <trkpt lat="45.46287" lon="0.74394">
        <ele>178</ele>
        <time>2012-11-25T10:06:20Z</time>
      </trkpt>
      <trkpt lat="45.46297" lon="0.74376">
        <ele>178</ele>
        <time>2012-11-25T10:06:23Z</time>
      </trkpt>
      <trkpt lat="45.46315" lon="0.74348">
        <ele>178</ele>
        <time>2012-11-25T10:06:28Z</time>
      </trkpt>
      <trkpt lat="45.46332" lon="0.7433">
        <ele>180</ele>
        <time>2012-11-25T10:06:32Z</time>
      </trkpt>
      <trkpt lat="45.46348" lon="0.74318">
        <ele>177</ele>
        <time>2012-11-25T10:06:35Z</time>
      </trkpt>
      <trkpt lat="45.46365" lon="0.74306">
        <ele>176</ele>
        <time>2012-11-25T10:06:38Z</time>
      </trkpt>
      <trkpt lat="45.46399" lon="0.74281">
        <ele>174</ele>
        <time>2012-11-25T10:06:44Z</time>
      </trkpt>
      <trkpt lat="45.46413" lon="0.74276">
        <ele>174</ele>
        <time>2012-11-25T10:06:48Z</time>
      </trkpt>
      <trkpt lat="45.46433" lon="0.74271">
        <ele>169</ele>
        <time>2012-11-25T10:06:52Z</time>
      </trkpt>
      <trkpt lat="45.46461" lon="0.74264">
        <ele>167</ele>
        <time>2012-11-25T10:06:56Z</time>
      </trkpt>
      <trkpt lat="45.46478" lon="0.74258">
        <ele>166</ele>
        <time>2012-11-25T10:06:58Z</time>
      </trkpt>
      <trkpt lat="45.46525" lon="0.74244">
        <ele>160</ele>
        <time>2012-11-25T10:07:03Z</time>
      </trkpt>
      <trkpt lat="45.46545" lon="0.74237">
        <ele>160</ele>
        <time>2012-11-25T10:07:05Z</time>
      </trkpt>
      <trkpt lat="45.46619" lon="0.74196">
        <ele>157</ele>
        <time>2012-11-25T10:07:12Z</time>
      </trkpt>
      <trkpt lat="45.46656" lon="0.74168">
        <ele>156</ele>
        <time>2012-11-25T10:07:16Z</time>
      </trkpt>
      <trkpt lat="45.46661" lon="0.74156">
        <ele>155</ele>
        <time>2012-11-25T10:07:17Z</time>
      </trkpt>
      <trkpt lat="45.46684" lon="0.74088">
        <ele>158</ele>
        <time>2012-11-25T10:07:23Z</time>
      </trkpt>
      <trkpt lat="45.46695" lon="0.74026">
        <ele>158</ele>
        <time>2012-11-25T10:07:28Z</time>
      </trkpt>
      <trkpt lat="45.46694" lon="0.73979">
        <ele>157</ele>
        <time>2012-11-25T10:07:32Z</time>
      </trkpt>
      <trkpt lat="45.4669" lon="0.73937">
        <ele>156</ele>
        <time>2012-11-25T10:07:36Z</time>
      </trkpt>
      <trkpt lat="45.46683" lon="0.73916">
        <ele>153</ele>
        <time>2012-11-25T10:07:38Z</time>
      </trkpt>
      <trkpt lat="45.46672" lon="0.73887">
        <ele>154</ele>
        <time>2012-11-25T10:07:41Z</time>
      </trkpt>
      <trkpt lat="45.4669" lon="0.73834">
        <ele>153</ele>
        <time>2012-11-25T10:07:48Z</time>
      </trkpt>
      <trkpt lat="45.46709" lon="0.73807">
        <ele>152</ele>
        <time>2012-11-25T10:07:52Z</time>
      </trkpt>
      <trkpt lat="45.46727" lon="0.73783">
        <ele>152</ele>
        <time>2012-11-25T10:07:56Z</time>
      </trkpt>
      <trkpt lat="45.46731" lon="0.73777">
        <ele>152</ele>
        <time>2012-11-25T10:07:57Z</time>
      </trkpt>
      <trkpt lat="45.46763" lon="0.73736">
        <ele>151</ele>
        <time>2012-11-25T10:08:04Z</time>
      </trkpt>
      <trkpt lat="45.46778" lon="0.73718">
        <ele>152</ele>
        <time>2012-11-25T10:08:07Z</time>
      </trkpt>
      <trkpt lat="45.46795" lon="0.73701">
        <ele>153</ele>
        <time>2012-11-25T10:08:10Z</time>
      </trkpt>
      <trkpt lat="45.46828" lon="0.73666">
        <ele>150</ele>
        <time>2012-11-25T10:08:16Z</time>
      </trkpt>
      <trkpt lat="45.46832" lon="0.73659">
        <ele>150</ele>
        <time>2012-11-25T10:08:17Z</time>
      </trkpt>
      <trkpt lat="45.46848" lon="0.73618">
        <ele>154</ele>
        <time>2012-11-25T10:08:22Z</time>
      </trkpt>
      <trkpt lat="45.46847" lon="0.73565">
        <ele>153</ele>
        <time>2012-11-25T10:08:27Z</time>
      </trkpt>
      <trkpt lat="45.46845" lon="0.73526">
        <ele>153</ele>
        <time>2012-11-25T10:08:31Z</time>
      </trkpt>
      <trkpt lat="45.46854" lon="0.73478">
        <ele>152</ele>
        <time>2012-11-25T10:08:36Z</time>
      </trkpt>
      <trkpt lat="45.46867" lon="0.73443">
        <ele>151</ele>
        <time>2012-11-25T10:08:40Z</time>
      </trkpt>
      <trkpt lat="45.46874" lon="0.73427">
        <ele>151</ele>
        <time>2012-11-25T10:08:42Z</time>
      </trkpt>
      <trkpt lat="45.46895" lon="0.73378">
        <ele>149</ele>
        <time>2012-11-25T10:08:48Z</time>
      </trkpt>
      <trkpt lat="45.46895" lon="0.73369">
        <ele>149</ele>
        <time>2012-11-25T10:08:49Z</time>
      </trkpt>
      <trkpt lat="45.46893" lon="0.73331">
        <ele>148</ele>
        <time>2012-11-25T10:08:53Z</time>
      </trkpt>
      <trkpt lat="45.46877" lon="0.73266">
        <ele>146</ele>
        <time>2012-11-25T10:09:00Z</time>
      </trkpt>
      <trkpt lat="45.46874" lon="0.73245">
        <ele>144</ele>
        <time>2012-11-25T10:09:02Z</time>
      </trkpt>
      <trkpt lat="45.46877" lon="0.73214">
        <ele>144</ele>
        <time>2012-11-25T10:09:05Z</time>
      </trkpt>
      <trkpt lat="45.46902" lon="0.73169">
        <ele>142</ele>
        <time>2012-11-25T10:09:11Z</time>
      </trkpt>
      <trkpt lat="45.46926" lon="0.73151">
        <ele>139</ele>
        <time>2012-11-25T10:09:15Z</time>
      </trkpt>
      <trkpt lat="45.46937" lon="0.73147">
        <ele>139</ele>
        <time>2012-11-25T10:09:17Z</time>
      </trkpt>
      <trkpt lat="45.46968" lon="0.73133">
        <ele>138</ele>
        <time>2012-11-25T10:09:24Z</time>
      </trkpt>
      <trkpt lat="45.46975" lon="0.73121">
        <ele>138</ele>
        <time>2012-11-25T10:09:27Z</time>
      </trkpt>
      <trkpt lat="45.46979" lon="0.731">
        <ele>137</ele>
        <time>2012-11-25T10:09:30Z</time>
      </trkpt>
      <trkpt lat="45.46983" lon="0.73075">
        <ele>135</ele>
        <time>2012-11-25T10:09:33Z</time>
      </trkpt>
      <trkpt lat="45.4699" lon="0.73035">
        <ele>135</ele>
        <time>2012-11-25T10:09:39Z</time>
      </trkpt>
      <trkpt lat="45.46998" lon="0.73022">
        <ele>135</ele>
        <time>2012-11-25T10:09:42Z</time>
      </trkpt>
      <trkpt lat="45.47029" lon="0.73025">
        <ele>136</ele>
        <time>2012-11-25T10:09:48Z</time>
      </trkpt>
      <trkpt lat="45.47035" lon="0.73027">
        <ele>136</ele>
        <time>2012-11-25T10:09:49Z</time>
      </trkpt>
      <trkpt lat="45.47066" lon="0.73039">
        <ele>135</ele>
        <time>2012-11-25T10:09:55Z</time>
      </trkpt>
      <trkpt lat="45.47082" lon="0.73045">
        <ele>135</ele>
        <time>2012-11-25T10:09:58Z</time>
      </trkpt>
      <trkpt lat="45.47099" lon="0.7305">
        <ele>135</ele>
        <time>2012-11-25T10:10:01Z</time>
      </trkpt>
      <trkpt lat="45.47142" lon="0.73059">
        <ele>136</ele>
        <time>2012-11-25T10:10:08Z</time>
      </trkpt>
      <trkpt lat="45.47163" lon="0.73061">
        <ele>136</ele>
        <time>2012-11-25T10:10:12Z</time>
      </trkpt>
      <trkpt lat="45.4718" lon="0.73062">
        <ele>135</ele>
        <time>2012-11-25T10:10:16Z</time>
      </trkpt>
      <trkpt lat="45.47188" lon="0.73052">
        <ele>135</ele>
        <time>2012-11-25T10:10:19Z</time>
      </trkpt>
      <trkpt lat="45.47191" lon="0.73023">
        <ele>134</ele>
        <time>2012-11-25T10:10:24Z</time>
      </trkpt>
      <trkpt lat="45.47193" lon="0.73011">
        <ele>134</ele>
        <time>2012-11-25T10:10:26Z</time>
      </trkpt>
      <trkpt lat="45.47195" lon="0.72993">
        <ele>134</ele>
        <time>2012-11-25T10:10:29Z</time>
      </trkpt>
      <trkpt lat="45.47198" lon="0.72968">
        <ele>134</ele>
        <time>2012-11-25T10:10:33Z</time>
      </trkpt>
      <trkpt lat="45.47202" lon="0.72923">
        <ele>134</ele>
        <time>2012-11-25T10:10:40Z</time>
      </trkpt>
      <trkpt lat="45.47198" lon="0.72906">
        <ele>134</ele>
        <time>2012-11-25T10:10:43Z</time>
      </trkpt>
      <trkpt lat="45.47195" lon="0.72894">
        <ele>134</ele>
        <time>2012-11-25T10:10:45Z</time>
      </trkpt>
      <trkpt lat="45.47181" lon="0.72848">
        <ele>134</ele>
        <time>2012-11-25T10:10:52Z</time>
      </trkpt>
      <trkpt lat="45.47182" lon="0.72839">
        <ele>134</ele>
        <time>2012-11-25T10:10:53Z</time>
      </trkpt>
      <trkpt lat="45.47188" lon="0.72808">
        <ele>134</ele>
        <time>2012-11-25T10:10:57Z</time>
      </trkpt>
      <trkpt lat="45.4719" lon="0.72762">
        <ele>134</ele>
        <time>2012-11-25T10:11:03Z</time>
      </trkpt>
      <trkpt lat="45.4719" lon="0.72749">
        <ele>133</ele>
        <time>2012-11-25T10:11:05Z</time>
      </trkpt>
      <trkpt lat="45.47178" lon="0.727">
        <ele>133</ele>
        <time>2012-11-25T10:11:12Z</time>
      </trkpt>
      <trkpt lat="45.47177" lon="0.7266">
        <ele>132</ele>
        <time>2012-11-25T10:11:19Z</time>
      </trkpt>
      <trkpt lat="45.47177" lon="0.72648">
        <ele>132</ele>
        <time>2012-11-25T10:11:24Z</time>
      </trkpt>
      <trkpt lat="45.47178" lon="0.72639">
        <ele>132</ele>
        <time>2012-11-25T10:11:26Z</time>
      </trkpt>
      <trkpt lat="45.47181" lon="0.72609">
        <ele>132</ele>
        <time>2012-11-25T10:11:31Z</time>
      </trkpt>
      <trkpt lat="45.47182" lon="0.72583">
        <ele>132</ele>
        <time>2012-11-25T10:11:35Z</time>
      </trkpt>
      <trkpt lat="45.47183" lon="0.72557">
        <ele>131</ele>
        <time>2012-11-25T10:11:39Z</time>
      </trkpt>
      <trkpt lat="45.47183" lon="0.7253">
        <ele>131</ele>
        <time>2012-11-25T10:11:43Z</time>
      </trkpt>
      <trkpt lat="45.47179" lon="0.72509">
        <ele>131</ele>
        <time>2012-11-25T10:11:46Z</time>
      </trkpt>
      <trkpt lat="45.4717" lon="0.72467">
        <ele>131</ele>
        <time>2012-11-25T10:11:52Z</time>
      </trkpt>
      <trkpt lat="45.47169" lon="0.72459">
        <ele>131</ele>
        <time>2012-11-25T10:11:53Z</time>
      </trkpt>
      <trkpt lat="45.4716" lon="0.72425">
        <ele>131</ele>
        <time>2012-11-25T10:11:58Z</time>
      </trkpt>
      <trkpt lat="45.47151" lon="0.72393">
        <ele>131</ele>
        <time>2012-11-25T10:12:03Z</time>
      </trkpt>
      <trkpt lat="45.47144" lon="0.72366">
        <ele>131</ele>
        <time>2012-11-25T10:12:07Z</time>
      </trkpt>
      <trkpt lat="45.47136" lon="0.72332">
        <ele>132</ele>
        <time>2012-11-25T10:12:12Z</time>
      </trkpt>
      <trkpt lat="45.47129" lon="0.72304">
        <ele>133</ele>
        <time>2012-11-25T10:12:16Z</time>
      </trkpt>
      <trkpt lat="45.47126" lon="0.7229">
        <ele>133</ele>
        <time>2012-11-25T10:12:18Z</time>
      </trkpt>
      <trkpt lat="45.47122" lon="0.72268">
        <ele>133</ele>
        <time>2012-11-25T10:12:21Z</time>
      </trkpt>
      <trkpt lat="45.47121" lon="0.72218">
        <ele>138</ele>
        <time>2012-11-25T10:12:28Z</time>
      </trkpt>
      <trkpt lat="45.4712" lon="0.72204">
        <ele>139</ele>
        <time>2012-11-25T10:12:30Z</time>
      </trkpt>
      <trkpt lat="45.47121" lon="0.7217">
        <ele>140</ele>
        <time>2012-11-25T10:12:36Z</time>
      </trkpt>
      <trkpt lat="45.4712" lon="0.72149">
        <ele>143</ele>
        <time>2012-11-25T10:12:41Z</time>
      </trkpt>
      <trkpt lat="45.47114" lon="0.72125">
        <ele>144</ele>
        <time>2012-11-25T10:12:48Z</time>
      </trkpt>
      <trkpt lat="45.47112" lon="0.72115">
        <ele>145</ele>
        <time>2012-11-25T10:12:51Z</time>
      </trkpt>
      <trkpt lat="45.47108" lon="0.72098">
        <ele>146</ele>
        <time>2012-11-25T10:12:56Z</time>
      </trkpt>
      <trkpt lat="45.47104" lon="0.72088">
        <ele>147</ele>
        <time>2012-11-25T10:13:00Z</time>
      </trkpt>
      <trkpt lat="45.47101" lon="0.72081">
        <ele>147</ele>
        <time>2012-11-25T10:13:03Z</time>
      </trkpt>
      <trkpt lat="45.47094" lon="0.72073">
        <ele>148</ele>
        <time>2012-11-25T10:13:08Z</time>
      </trkpt>
      <trkpt lat="45.47086" lon="0.72068">
        <ele>148</ele>
        <time>2012-11-25T10:13:12Z</time>
      </trkpt>
      <trkpt lat="45.4708" lon="0.72061">
        <ele>153</ele>
        <time>2012-11-25T10:13:16Z</time>
      </trkpt>
      <trkpt lat="45.4707" lon="0.72045">
        <ele>153</ele>
        <time>2012-11-25T10:13:23Z</time>
      </trkpt>
      <trkpt lat="45.47066" lon="0.72037">
        <ele>153</ele>
        <time>2012-11-25T10:13:26Z</time>
      </trkpt>
      <trkpt lat="45.47057" lon="0.72017">
        <ele>153</ele>
        <time>2012-11-25T10:13:32Z</time>
      </trkpt>
      <trkpt lat="45.47046" lon="0.72002">
        <ele>154</ele>
        <time>2012-11-25T10:13:39Z</time>
      </trkpt>
      <trkpt lat="45.47037" lon="0.71991">
        <ele>152</ele>
        <time>2012-11-25T10:13:48Z</time>
      </trkpt>
      <trkpt lat="45.47032" lon="0.7199">
        <ele>153</ele>
        <time>2012-11-25T10:13:57Z</time>
      </trkpt>
      <trkpt lat="45.47029" lon="0.71993">
        <ele>153</ele>
        <time>2012-11-25T10:14:19Z</time>
      </trkpt>
      <trkpt lat="45.47025" lon="0.71996">
        <ele>154</ele>
        <time>2012-11-25T10:14:41Z</time>
      </trkpt>
      <trkpt lat="45.47027" lon="0.72">
        <ele>156</ele>
        <time>2012-11-25T10:15:04Z</time>
      </trkpt>
      <trkpt lat="45.47021" lon="0.7199">
        <ele>155</ele>
        <time>2012-11-25T10:16:03Z</time>
      </trkpt>
      <trkpt lat="45.47021" lon="0.71984">
        <ele>154</ele>
        <time>2012-11-25T10:16:08Z</time>
      </trkpt>
      <trkpt lat="45.47027" lon="0.71985">
        <ele>153</ele>
        <time>2012-11-25T10:16:16Z</time>
      </trkpt>
      <trkpt lat="45.47032" lon="0.7198">
        <ele>152</ele>
        <time>2012-11-25T10:16:23Z</time>
      </trkpt>
      <trkpt lat="45.47037" lon="0.7199">
        <ele>152</ele>
        <time>2012-11-25T10:16:48Z</time>
      </trkpt>
      <trkpt lat="45.47031" lon="0.71994">
        <ele>153</ele>
        <time>2012-11-25T10:17:03Z</time>
      </trkpt>
      <trkpt lat="45.47028" lon="0.71991">
        <ele>153</ele>
        <time>2012-11-25T10:17:08Z</time>
      </trkpt>
      <trkpt lat="45.47025" lon="0.71995">
        <ele>154</ele>
        <time>2012-11-25T10:17:44Z</time>
      </trkpt>
      <trkpt lat="45.47021" lon="0.71995">
        <ele>155</ele>
        <time>2012-11-25T10:18:08Z</time>
      </trkpt>
      <trkpt lat="45.47025" lon="0.72004">
        <ele>157</ele>
        <time>2012-11-25T10:18:15Z</time>
      </trkpt>
      <trkpt lat="45.47029" lon="0.72005">
        <ele>156</ele>
        <time>2012-11-25T10:18:19Z</time>
      </trkpt>
      <trkpt lat="45.47024" lon="0.72002">
        <ele>157</ele>
        <time>2012-11-25T10:18:40Z</time>
      </trkpt>
      <trkpt lat="45.47025" lon="0.71996">
        <ele>154</ele>
        <time>2012-11-25T10:18:51Z</time>
      </trkpt>
      <trkpt lat="45.47029" lon="0.71997">
        <ele>153</ele>
        <time>2012-11-25T10:19:36Z</time>
      </trkpt>
      <trkpt lat="45.47033" lon="0.71996">
        <ele>153</ele>
        <time>2012-11-25T10:20:07Z</time>
      </trkpt>
      <trkpt lat="45.47037" lon="0.71997">
        <ele>152</ele>
        <time>2012-11-25T10:20:56Z</time>
      </trkpt>
      <trkpt lat="45.47037" lon="0.71991">
        <ele>152</ele>
        <time>2012-11-25T10:21:14Z</time>
      </trkpt>
      <trkpt lat="45.47034" lon="0.71986">
        <ele>152</ele>
        <time>2012-11-25T10:21:21Z</time>
      </trkpt>
      <trkpt lat="45.47038" lon="0.71982">
        <ele>151</ele>
        <time>2012-11-25T10:23:13Z</time>
      </trkpt>
      <trkpt lat="45.47033" lon="0.71984">
        <ele>152</ele>
        <time>2012-11-25T10:25:52Z</time>
      </trkpt>
      <trkpt lat="45.47025" lon="0.71984">
        <ele>153</ele>
        <time>2012-11-25T10:26:40Z</time>
      </trkpt>
      <trkpt lat="45.47016" lon="0.71963">
        <ele>153</ele>
        <time>2012-11-25T10:26:48Z</time>
      </trkpt>
      <trkpt lat="45.47012" lon="0.71947">
        <ele>153</ele>
        <time>2012-11-25T10:26:52Z</time>
      </trkpt>
      <trkpt lat="45.4701" lon="0.71938">
        <ele>153</ele>
        <time>2012-11-25T10:26:54Z</time>
      </trkpt>
      <trkpt lat="45.47006" lon="0.71914">
        <ele>155</ele>
        <time>2012-11-25T10:26:59Z</time>
      </trkpt>
      <trkpt lat="45.47002" lon="0.719">
        <ele>153</ele>
        <time>2012-11-25T10:27:02Z</time>
      </trkpt>
      <trkpt lat="45.46998" lon="0.71889">
        <ele>161</ele>
        <time>2012-11-25T10:27:05Z</time>
      </trkpt>
      <trkpt lat="45.4699" lon="0.71874">
        <ele>162</ele>
        <time>2012-11-25T10:27:09Z</time>
      </trkpt>
      <trkpt lat="45.46982" lon="0.71859">
        <ele>163</ele>
        <time>2012-11-25T10:27:14Z</time>
      </trkpt>
      <trkpt lat="45.46976" lon="0.71849">
        <ele>163</ele>
        <time>2012-11-25T10:27:18Z</time>
      </trkpt>
      <trkpt lat="45.46967" lon="0.71839">
        <ele>164</ele>
        <time>2012-11-25T10:27:20Z</time>
      </trkpt>
      <trkpt lat="45.46962" lon="0.71829">
        <ele>165</ele>
        <time>2012-11-25T10:27:24Z</time>
      </trkpt>
      <trkpt lat="45.46957" lon="0.7182">
        <ele>166</ele>
        <time>2012-11-25T10:27:27Z</time>
      </trkpt>
      <trkpt lat="45.46948" lon="0.71805">
        <ele>166</ele>
        <time>2012-11-25T10:27:32Z</time>
      </trkpt>
      <trkpt lat="45.46942" lon="0.71793">
        <ele>167</ele>
        <time>2012-11-25T10:27:36Z</time>
      </trkpt>
      <trkpt lat="45.46939" lon="0.71786">
        <ele>167</ele>
        <time>2012-11-25T10:27:38Z</time>
      </trkpt>
      <trkpt lat="45.46936" lon="0.71772">
        <ele>168</ele>
        <time>2012-11-25T10:27:42Z</time>
      </trkpt>
      <trkpt lat="45.46932" lon="0.71756">
        <ele>169</ele>
        <time>2012-11-25T10:27:46Z</time>
      </trkpt>
      <trkpt lat="45.46927" lon="0.71727">
        <ele>169</ele>
        <time>2012-11-25T10:27:53Z</time>
      </trkpt>
      <trkpt lat="45.46926" lon="0.71718">
        <ele>169</ele>
        <time>2012-11-25T10:27:55Z</time>
      </trkpt>
      <trkpt lat="45.46925" lon="0.717">
        <ele>170</ele>
        <time>2012-11-25T10:27:59Z</time>
      </trkpt>
      <trkpt lat="45.4692" lon="0.71682">
        <ele>171</ele>
        <time>2012-11-25T10:28:04Z</time>
      </trkpt>
      <trkpt lat="45.46913" lon="0.71663">
        <ele>175</ele>
        <time>2012-11-25T10:28:09Z</time>
      </trkpt>
      <trkpt lat="45.46911" lon="0.71654">
        <ele>177</ele>
        <time>2012-11-25T10:28:11Z</time>
      </trkpt>
      <trkpt lat="45.46912" lon="0.7163">
        <ele>179</ele>
        <time>2012-11-25T10:28:16Z</time>
      </trkpt>
      <trkpt lat="45.46919" lon="0.71611">
        <ele>175</ele>
        <time>2012-11-25T10:28:21Z</time>
      </trkpt>
      <trkpt lat="45.46929" lon="0.71603">
        <ele>175</ele>
        <time>2012-11-25T10:28:25Z</time>
      </trkpt>
      <trkpt lat="45.46939" lon="0.71602">
        <ele>174</ele>
        <time>2012-11-25T10:28:29Z</time>
      </trkpt>
      <trkpt lat="45.46958" lon="0.71602">
        <ele>173</ele>
        <time>2012-11-25T10:28:36Z</time>
      </trkpt>
      <trkpt lat="45.46969" lon="0.71599">
        <ele>172</ele>
        <time>2012-11-25T10:28:39Z</time>
      </trkpt>
      <trkpt lat="45.46987" lon="0.71588">
        <ele>171</ele>
        <time>2012-11-25T10:28:45Z</time>
      </trkpt>
      <trkpt lat="45.47006" lon="0.7157">
        <ele>170</ele>
        <time>2012-11-25T10:28:53Z</time>
      </trkpt>
      <trkpt lat="45.47027" lon="0.71539">
        <ele>171</ele>
        <time>2012-11-25T10:29:01Z</time>
      </trkpt>
      <trkpt lat="45.47039" lon="0.71519">
        <ele>171</ele>
        <time>2012-11-25T10:29:05Z</time>
      </trkpt>
      <trkpt lat="45.4705" lon="0.71501">
        <ele>170</ele>
        <time>2012-11-25T10:29:08Z</time>
      </trkpt>
      <trkpt lat="45.47056" lon="0.71489">
        <ele>170</ele>
        <time>2012-11-25T10:29:10Z</time>
      </trkpt>
      <trkpt lat="45.47062" lon="0.71465">
        <ele>170</ele>
        <time>2012-11-25T10:29:14Z</time>
      </trkpt>
      <trkpt lat="45.4705" lon="0.71426">
        <ele>170</ele>
        <time>2012-11-25T10:29:21Z</time>
      </trkpt>
      <trkpt lat="45.47043" lon="0.71398">
        <ele>170</ele>
        <time>2012-11-25T10:29:27Z</time>
      </trkpt>
      <trkpt lat="45.47038" lon="0.71368">
        <ele>170</ele>
        <time>2012-11-25T10:29:34Z</time>
      </trkpt>
      <trkpt lat="45.47037" lon="0.71358">
        <ele>170</ele>
        <time>2012-11-25T10:29:36Z</time>
      </trkpt>
      <trkpt lat="45.47035" lon="0.71324">
        <ele>169</ele>
        <time>2012-11-25T10:29:42Z</time>
      </trkpt>
      <trkpt lat="45.4703" lon="0.71305">
        <ele>169</ele>
        <time>2012-11-25T10:29:46Z</time>
      </trkpt>
      <trkpt lat="45.4702" lon="0.7127">
        <ele>169</ele>
        <time>2012-11-25T10:29:53Z</time>
      </trkpt>
      <trkpt lat="45.47011" lon="0.71251">
        <ele>171</ele>
        <time>2012-11-25T10:29:57Z</time>
      </trkpt>
      <trkpt lat="45.46998" lon="0.7123">
        <ele>174</ele>
        <time>2012-11-25T10:30:02Z</time>
      </trkpt>
      <trkpt lat="45.4699" lon="0.71214">
        <ele>174</ele>
        <time>2012-11-25T10:30:06Z</time>
      </trkpt>
      <trkpt lat="45.46986" lon="0.71205">
        <ele>174</ele>
        <time>2012-11-25T10:30:08Z</time>
      </trkpt>
      <trkpt lat="45.46979" lon="0.71184">
        <ele>173</ele>
        <time>2012-11-25T10:30:14Z</time>
      </trkpt>
      <trkpt lat="45.46973" lon="0.71174">
        <ele>174</ele>
        <time>2012-11-25T10:30:17Z</time>
      </trkpt>
      <trkpt lat="45.46963" lon="0.71157">
        <ele>171</ele>
        <time>2012-11-25T10:30:21Z</time>
      </trkpt>
      <trkpt lat="45.46949" lon="0.71135">
        <ele>172</ele>
        <time>2012-11-25T10:30:26Z</time>
      </trkpt>
      <trkpt lat="45.46941" lon="0.71121">
        <ele>172</ele>
        <time>2012-11-25T10:30:29Z</time>
      </trkpt>
      <trkpt lat="45.46936" lon="0.71104">
        <ele>173</ele>
        <time>2012-11-25T10:30:32Z</time>
      </trkpt>
      <trkpt lat="45.4693" lon="0.71088">
        <ele>174</ele>
        <time>2012-11-25T10:30:35Z</time>
      </trkpt>
      <trkpt lat="45.46919" lon="0.71055">
        <ele>173</ele>
        <time>2012-11-25T10:30:41Z</time>
      </trkpt>
      <trkpt lat="45.46917" lon="0.71045">
        <ele>180</ele>
        <time>2012-11-25T10:30:43Z</time>
      </trkpt>
      <trkpt lat="45.46917" lon="0.71021">
        <ele>173</ele>
        <time>2012-11-25T10:30:48Z</time>
      </trkpt>
      <trkpt lat="45.46921" lon="0.71002">
        <ele>175</ele>
        <time>2012-11-25T10:30:52Z</time>
      </trkpt>
      <trkpt lat="45.46921" lon="0.70988">
        <ele>174</ele>
        <time>2012-11-25T10:30:55Z</time>
      </trkpt>
      <trkpt lat="45.46918" lon="0.70951">
        <ele>172</ele>
        <time>2012-11-25T10:31:01Z</time>
      </trkpt>
      <trkpt lat="45.46912" lon="0.7092">
        <ele>175</ele>
        <time>2012-11-25T10:31:06Z</time>
      </trkpt>
      <trkpt lat="45.46909" lon="0.70893">
        <ele>176</ele>
        <time>2012-11-25T10:31:10Z</time>
      </trkpt>
      <trkpt lat="45.46907" lon="0.70886">
        <ele>176</ele>
        <time>2012-11-25T10:31:11Z</time>
      </trkpt>
      <trkpt lat="45.469" lon="0.7084">
        <ele>174</ele>
        <time>2012-11-25T10:31:18Z</time>
      </trkpt>
      <trkpt lat="45.46897" lon="0.70826">
        <ele>173</ele>
        <time>2012-11-25T10:31:20Z</time>
      </trkpt>
      <trkpt lat="45.46892" lon="0.70802">
        <ele>174</ele>
        <time>2012-11-25T10:31:24Z</time>
      </trkpt>
      <trkpt lat="45.46887" lon="0.70785">
        <ele>174</ele>
        <time>2012-11-25T10:31:27Z</time>
      </trkpt>
      <trkpt lat="45.46884" lon="0.70759">
        <ele>174</ele>
        <time>2012-11-25T10:31:32Z</time>
      </trkpt>
      <trkpt lat="45.46892" lon="0.70742">
        <ele>172</ele>
        <time>2012-11-25T10:31:37Z</time>
      </trkpt>
      <trkpt lat="45.46909" lon="0.7074">
        <ele>170</ele>
        <time>2012-11-25T10:31:41Z</time>
      </trkpt>
      <trkpt lat="45.46932" lon="0.7074">
        <ele>168</ele>
        <time>2012-11-25T10:31:46Z</time>
      </trkpt>
      <trkpt lat="45.46948" lon="0.70744">
        <ele>168</ele>
        <time>2012-11-25T10:31:50Z</time>
      </trkpt>
      <trkpt lat="45.46968" lon="0.70741">
        <ele>168</ele>
        <time>2012-11-25T10:31:55Z</time>
      </trkpt>
      <trkpt lat="45.46983" lon="0.7074">
        <ele>168</ele>
        <time>2012-11-25T10:31:59Z</time>
      </trkpt>
      <trkpt lat="45.47008" lon="0.70736">
        <ele>168</ele>
        <time>2012-11-25T10:32:06Z</time>
      </trkpt>
      <trkpt lat="45.47019" lon="0.70734">
        <ele>168</ele>
        <time>2012-11-25T10:32:10Z</time>
      </trkpt>
      <trkpt lat="45.4703" lon="0.70734">
        <ele>169</ele>
        <time>2012-11-25T10:32:14Z</time>
      </trkpt>
      <trkpt lat="45.47036" lon="0.70733">
        <ele>169</ele>
        <time>2012-11-25T10:32:16Z</time>
      </trkpt>
      <trkpt lat="45.47054" lon="0.70729">
        <ele>170</ele>
        <time>2012-11-25T10:32:22Z</time>
      </trkpt>
      <trkpt lat="45.47072" lon="0.70722">
        <ele>170</ele>
        <time>2012-11-25T10:32:28Z</time>
      </trkpt>
      <trkpt lat="45.47084" lon="0.70721">
        <ele>174</ele>
        <time>2012-11-25T10:32:32Z</time>
      </trkpt>
      <trkpt lat="45.47093" lon="0.70715">
        <ele>175</ele>
        <time>2012-11-25T10:32:35Z</time>
      </trkpt>
      <trkpt lat="45.47108" lon="0.70704">
        <ele>175</ele>
        <time>2012-11-25T10:32:41Z</time>
      </trkpt>
      <trkpt lat="45.47118" lon="0.70694">
        <ele>175</ele>
        <time>2012-11-25T10:32:46Z</time>
      </trkpt>
      <trkpt lat="45.47126" lon="0.70687">
        <ele>176</ele>
        <time>2012-11-25T10:32:50Z</time>
      </trkpt>
      <trkpt lat="45.47133" lon="0.70682">
        <ele>176</ele>
        <time>2012-11-25T10:32:53Z</time>
      </trkpt>
      <trkpt lat="45.47147" lon="0.70669">
        <ele>178</ele>
        <time>2012-11-25T10:33:01Z</time>
      </trkpt>
      <trkpt lat="45.47156" lon="0.70659">
        <ele>177</ele>
        <time>2012-11-25T10:33:06Z</time>
      </trkpt>
      <trkpt lat="45.47164" lon="0.70648">
        <ele>176</ele>
        <time>2012-11-25T10:33:10Z</time>
      </trkpt>
      <trkpt lat="45.47175" lon="0.70628">
        <ele>181</ele>
        <time>2012-11-25T10:33:17Z</time>
      </trkpt>
      <trkpt lat="45.47182" lon="0.70619">
        <ele>180</ele>
        <time>2012-11-25T10:33:21Z</time>
      </trkpt>
      <trkpt lat="45.47187" lon="0.70614">
        <ele>181</ele>
        <time>2012-11-25T10:33:24Z</time>
      </trkpt>
      <trkpt lat="45.47192" lon="0.7061">
        <ele>181</ele>
        <time>2012-11-25T10:33:27Z</time>
      </trkpt>
      <trkpt lat="45.47201" lon="0.70606">
        <ele>181</ele>
        <time>2012-11-25T10:33:31Z</time>
      </trkpt>
      <trkpt lat="45.47211" lon="0.70606">
        <ele>182</ele>
        <time>2012-11-25T10:33:36Z</time>
      </trkpt>
      <trkpt lat="45.47217" lon="0.70613">
        <ele>183</ele>
        <time>2012-11-25T10:33:40Z</time>
      </trkpt>
      <trkpt lat="45.47224" lon="0.70622">
        <ele>184</ele>
        <time>2012-11-25T10:33:46Z</time>
      </trkpt>
      <trkpt lat="45.47232" lon="0.70632">
        <ele>184</ele>
        <time>2012-11-25T10:33:52Z</time>
      </trkpt>
      <trkpt lat="45.47239" lon="0.70638">
        <ele>185</ele>
        <time>2012-11-25T10:33:57Z</time>
      </trkpt>
      <trkpt lat="45.47245" lon="0.7064">
        <ele>185</ele>
        <time>2012-11-25T10:34:00Z</time>
      </trkpt>
      <trkpt lat="45.47253" lon="0.7064">
        <ele>191</ele>
        <time>2012-11-25T10:34:04Z</time>
      </trkpt>
      <trkpt lat="45.47261" lon="0.70641">
        <ele>192</ele>
        <time>2012-11-25T10:34:08Z</time>
      </trkpt>
      <trkpt lat="45.4727" lon="0.7064">
        <ele>192</ele>
        <time>2012-11-25T10:34:12Z</time>
      </trkpt>
      <trkpt lat="45.4728" lon="0.70639">
        <ele>192</ele>
        <time>2012-11-25T10:34:17Z</time>
      </trkpt>
      <trkpt lat="45.47286" lon="0.70638">
        <ele>193</ele>
        <time>2012-11-25T10:34:21Z</time>
      </trkpt>
      <trkpt lat="45.47293" lon="0.70636">
        <ele>193</ele>
        <time>2012-11-25T10:34:25Z</time>
      </trkpt>
      <trkpt lat="45.47301" lon="0.70635">
        <ele>194</ele>
        <time>2012-11-25T10:34:29Z</time>
      </trkpt>
      <trkpt lat="45.47309" lon="0.70635">
        <ele>194</ele>
        <time>2012-11-25T10:34:32Z</time>
      </trkpt>
      <trkpt lat="45.4732" lon="0.70623">
        <ele>195</ele>
        <time>2012-11-25T10:34:38Z</time>
      </trkpt>
      <trkpt lat="45.47327" lon="0.70604">
        <ele>196</ele>
        <time>2012-11-25T10:34:45Z</time>
      </trkpt>
      <trkpt lat="45.4733" lon="0.70595">
        <ele>197</ele>
        <time>2012-11-25T10:34:48Z</time>
      </trkpt>
      <trkpt lat="45.47335" lon="0.70583">
        <ele>200</ele>
        <time>2012-11-25T10:34:53Z</time>
      </trkpt>
      <trkpt lat="45.47341" lon="0.70572">
        <ele>201</ele>
        <time>2012-11-25T10:34:57Z</time>
      </trkpt>
      <trkpt lat="45.47349" lon="0.70558">
        <ele>202</ele>
        <time>2012-11-25T10:35:01Z</time>
      </trkpt>
      <trkpt lat="45.47357" lon="0.70544">
        <ele>202</ele>
        <time>2012-11-25T10:35:05Z</time>
      </trkpt>
      <trkpt lat="45.47365" lon="0.70525">
        <ele>202</ele>
        <time>2012-11-25T10:35:10Z</time>
      </trkpt>
      <trkpt lat="45.4738" lon="0.70495">
        <ele>202</ele>
        <time>2012-11-25T10:35:18Z</time>
      </trkpt>
      <trkpt lat="45.47392" lon="0.70467">
        <ele>203</ele>
        <time>2012-11-25T10:35:24Z</time>
      </trkpt>
      <trkpt lat="45.47401" lon="0.70443">
        <ele>203</ele>
        <time>2012-11-25T10:35:29Z</time>
      </trkpt>
      <trkpt lat="45.47409" lon="0.70424">
        <ele>204</ele>
        <time>2012-11-25T10:35:33Z</time>
      </trkpt>
      <trkpt lat="45.47413" lon="0.70416">
        <ele>205</ele>
        <time>2012-11-25T10:35:35Z</time>
      </trkpt>
      <trkpt lat="45.47426" lon="0.70395">
        <ele>207</ele>
        <time>2012-11-25T10:35:40Z</time>
      </trkpt>
      <trkpt lat="45.47438" lon="0.70367">
        <ele>208</ele>
        <time>2012-11-25T10:35:46Z</time>
      </trkpt>
      <trkpt lat="45.47449" lon="0.70334">
        <ele>208</ele>
        <time>2012-11-25T10:35:52Z</time>
      </trkpt>
      <trkpt lat="45.4746" lon="0.70302">
        <ele>209</ele>
        <time>2012-11-25T10:35:58Z</time>
      </trkpt>
      <trkpt lat="45.47464" lon="0.70292">
        <ele>209</ele>
        <time>2012-11-25T10:36:00Z</time>
      </trkpt>
      <trkpt lat="45.47473" lon="0.70273">
        <ele>210</ele>
        <time>2012-11-25T10:36:04Z</time>
      </trkpt>
      <trkpt lat="45.47485" lon="0.70249">
        <ele>210</ele>
        <time>2012-11-25T10:36:09Z</time>
      </trkpt>
      <trkpt lat="45.47496" lon="0.70228">
        <ele>210</ele>
        <time>2012-11-25T10:36:14Z</time>
      </trkpt>
      <trkpt lat="45.47509" lon="0.702">
        <ele>214</ele>
        <time>2012-11-25T10:36:22Z</time>
      </trkpt>
      <trkpt lat="45.47515" lon="0.70188">
        <ele>214</ele>
        <time>2012-11-25T10:36:25Z</time>
      </trkpt>
      <trkpt lat="45.47522" lon="0.70171">
        <ele>214</ele>
        <time>2012-11-25T10:36:29Z</time>
      </trkpt>
      <trkpt lat="45.47528" lon="0.70158">
        <ele>213</ele>
        <time>2012-11-25T10:36:32Z</time>
      </trkpt>
      <trkpt lat="45.47533" lon="0.70135">
        <ele>213</ele>
        <time>2012-11-25T10:36:37Z</time>
      </trkpt>
      <trkpt lat="45.47536" lon="0.70116">
        <ele>213</ele>
        <time>2012-11-25T10:36:41Z</time>
      </trkpt>
      <trkpt lat="45.47537" lon="0.70092">
        <ele>212</ele>
        <time>2012-11-25T10:36:46Z</time>
      </trkpt>
      <trkpt lat="45.47539" lon="0.70069">
        <ele>212</ele>
        <time>2012-11-25T10:36:50Z</time>
      </trkpt>
      <trkpt lat="45.47541" lon="0.70041">
        <ele>212</ele>
        <time>2012-11-25T10:36:55Z</time>
      </trkpt>
      <trkpt lat="45.47543" lon="0.70014">
        <ele>212</ele>
        <time>2012-11-25T10:37:00Z</time>
      </trkpt>
      <trkpt lat="45.47541" lon="0.7">
        <ele>212</ele>
        <time>2012-11-25T10:37:03Z</time>
      </trkpt>
      <trkpt lat="45.4754" lon="0.69974">
        <ele>212</ele>
        <time>2012-11-25T10:37:08Z</time>
      </trkpt>
      <trkpt lat="45.47541" lon="0.69943">
        <ele>212</ele>
        <time>2012-11-25T10:37:14Z</time>
      </trkpt>
      <trkpt lat="45.47541" lon="0.69927">
        <ele>212</ele>
        <time>2012-11-25T10:37:17Z</time>
      </trkpt>
      <trkpt lat="45.47544" lon="0.69905">
        <ele>213</ele>
        <time>2012-11-25T10:37:21Z</time>
      </trkpt>
      <trkpt lat="45.47549" lon="0.69877">
        <ele>213</ele>
        <time>2012-11-25T10:37:26Z</time>
      </trkpt>
      <trkpt lat="45.47551" lon="0.69862">
        <ele>213</ele>
        <time>2012-11-25T10:37:29Z</time>
      </trkpt>
      <trkpt lat="45.47554" lon="0.69837">
        <ele>214</ele>
        <time>2012-11-25T10:37:34Z</time>
      </trkpt>
      <trkpt lat="45.47561" lon="0.69814">
        <ele>214</ele>
        <time>2012-11-25T10:37:38Z</time>
      </trkpt>
      <trkpt lat="45.47567" lon="0.69788">
        <ele>214</ele>
        <time>2012-11-25T10:37:42Z</time>
      </trkpt>
      <trkpt lat="45.4757" lon="0.6977">
        <ele>215</ele>
        <time>2012-11-25T10:37:45Z</time>
      </trkpt>
      <trkpt lat="45.47573" lon="0.6975">
        <ele>215</ele>
        <time>2012-11-25T10:37:48Z</time>
      </trkpt>
      <trkpt lat="45.47577" lon="0.6973">
        <ele>214</ele>
        <time>2012-11-25T10:37:51Z</time>
      </trkpt>
      <trkpt lat="45.47582" lon="0.69705">
        <ele>214</ele>
        <time>2012-11-25T10:37:55Z</time>
      </trkpt>
      <trkpt lat="45.47589" lon="0.69662">
        <ele>216</ele>
        <time>2012-11-25T10:38:02Z</time>
      </trkpt>
      <trkpt lat="45.47592" lon="0.69642">
        <ele>217</ele>
        <time>2012-11-25T10:38:05Z</time>
      </trkpt>
      <trkpt lat="45.47595" lon="0.69622">
        <ele>217</ele>
        <time>2012-11-25T10:38:08Z</time>
      </trkpt>
      <trkpt lat="45.47597" lon="0.69603">
        <ele>217</ele>
        <time>2012-11-25T10:38:11Z</time>
      </trkpt>
      <trkpt lat="45.47598" lon="0.6958">
        <ele>216</ele>
        <time>2012-11-25T10:38:15Z</time>
      </trkpt>
      <trkpt lat="45.47599" lon="0.69538">
        <ele>217</ele>
        <time>2012-11-25T10:38:22Z</time>
      </trkpt>
      <trkpt lat="45.47602" lon="0.69511">
        <ele>216</ele>
        <time>2012-11-25T10:38:26Z</time>
      </trkpt>
      <trkpt lat="45.47607" lon="0.69472">
        <ele>217</ele>
        <time>2012-11-25T10:38:32Z</time>
      </trkpt>
      <trkpt lat="45.476" lon="0.69442">
        <ele>217</ele>
        <time>2012-11-25T10:38:38Z</time>
      </trkpt>
      <trkpt lat="45.47595" lon="0.69406">
        <ele>217</ele>
        <time>2012-11-25T10:38:44Z</time>
      </trkpt>
      <trkpt lat="45.47598" lon="0.69381">
        <ele>218</ele>
        <time>2012-11-25T10:38:48Z</time>
      </trkpt>
      <trkpt lat="45.47602" lon="0.69356">
        <ele>218</ele>
        <time>2012-11-25T10:38:52Z</time>
      </trkpt>
      <trkpt lat="45.47609" lon="0.69324">
        <ele>220</ele>
        <time>2012-11-25T10:38:57Z</time>
      </trkpt>
      <trkpt lat="45.47613" lon="0.69311">
        <ele>220</ele>
        <time>2012-11-25T10:38:59Z</time>
      </trkpt>
      <trkpt lat="45.47624" lon="0.69268">
        <ele>221</ele>
        <time>2012-11-25T10:39:06Z</time>
      </trkpt>
      <trkpt lat="45.47621" lon="0.69237">
        <ele>224</ele>
        <time>2012-11-25T10:39:11Z</time>
      </trkpt>
      <trkpt lat="45.47611" lon="0.69191">
        <ele>224</ele>
        <time>2012-11-25T10:39:18Z</time>
      </trkpt>
      <trkpt lat="45.47609" lon="0.69164">
        <ele>225</ele>
        <time>2012-11-25T10:39:22Z</time>
      </trkpt>
      <trkpt lat="45.47609" lon="0.6915">
        <ele>225</ele>
        <time>2012-11-25T10:39:24Z</time>
      </trkpt>
      <trkpt lat="45.47606" lon="0.6913">
        <ele>226</ele>
        <time>2012-11-25T10:39:27Z</time>
      </trkpt>
      <trkpt lat="45.47601" lon="0.69104">
        <ele>225</ele>
        <time>2012-11-25T10:39:31Z</time>
      </trkpt>
      <trkpt lat="45.47589" lon="0.69048">
        <ele>224</ele>
        <time>2012-11-25T10:39:38Z</time>
      </trkpt>
      <trkpt lat="45.47581" lon="0.69021">
        <ele>220</ele>
        <time>2012-11-25T10:39:41Z</time>
      </trkpt>
      <trkpt lat="45.47572" lon="0.68986">
        <ele>220</ele>
        <time>2012-11-25T10:39:46Z</time>
      </trkpt>
      <trkpt lat="45.47565" lon="0.68972">
        <ele>220</ele>
        <time>2012-11-25T10:39:48Z</time>
      </trkpt>
      <trkpt lat="45.47548" lon="0.6893">
        <ele>220</ele>
        <time>2012-11-25T10:39:54Z</time>
      </trkpt>
      <trkpt lat="45.47545" lon="0.68922">
        <ele>220</ele>
        <time>2012-11-25T10:39:55Z</time>
      </trkpt>
      <trkpt lat="45.47531" lon="0.6888">
        <ele>223</ele>
        <time>2012-11-25T10:40:02Z</time>
      </trkpt>
      <trkpt lat="45.47522" lon="0.68858">
        <ele>224</ele>
        <time>2012-11-25T10:40:07Z</time>
      </trkpt>
      <trkpt lat="45.47514" lon="0.68836">
        <ele>225</ele>
        <time>2012-11-25T10:40:12Z</time>
      </trkpt>
      <trkpt lat="45.47506" lon="0.68817">
        <ele>226</ele>
        <time>2012-11-25T10:40:17Z</time>
      </trkpt>
      <trkpt lat="45.47501" lon="0.68801">
        <ele>226</ele>
        <time>2012-11-25T10:40:21Z</time>
      </trkpt>
      <trkpt lat="45.47493" lon="0.68779">
        <ele>228</ele>
        <time>2012-11-25T10:40:26Z</time>
      </trkpt>
      <trkpt lat="45.47477" lon="0.68757">
        <ele>228</ele>
        <time>2012-11-25T10:40:33Z</time>
      </trkpt>
      <trkpt lat="45.4747" lon="0.68746">
        <ele>229</ele>
        <time>2012-11-25T10:40:38Z</time>
      </trkpt>
      <trkpt lat="45.47467" lon="0.68736">
        <ele>229</ele>
        <time>2012-11-25T10:40:43Z</time>
      </trkpt>
      <trkpt lat="45.4747" lon="0.68721">
        <ele>229</ele>
        <time>2012-11-25T10:41:02Z</time>
      </trkpt>
      <trkpt lat="45.47475" lon="0.6871">
        <ele>229</ele>
        <time>2012-11-25T10:41:05Z</time>
      </trkpt>
      <trkpt lat="45.47487" lon="0.687">
        <ele>229</ele>
        <time>2012-11-25T10:41:09Z</time>
      </trkpt>
      <trkpt lat="45.47493" lon="0.68694">
        <ele>229</ele>
        <time>2012-11-25T10:41:11Z</time>
      </trkpt>
      <trkpt lat="45.4751" lon="0.68678">
        <ele>230</ele>
        <time>2012-11-25T10:41:16Z</time>
      </trkpt>
      <trkpt lat="45.47532" lon="0.68661">
        <ele>230</ele>
        <time>2012-11-25T10:41:22Z</time>
      </trkpt>
      <trkpt lat="45.47547" lon="0.6865">
        <ele>231</ele>
        <time>2012-11-25T10:41:26Z</time>
      </trkpt>
      <trkpt lat="45.47561" lon="0.6864">
        <ele>231</ele>
        <time>2012-11-25T10:41:30Z</time>
      </trkpt>
      <trkpt lat="45.47576" lon="0.68631">
        <ele>231</ele>
        <time>2012-11-25T10:41:34Z</time>
      </trkpt>
      <trkpt lat="45.47597" lon="0.68614">
        <ele>232</ele>
        <time>2012-11-25T10:41:40Z</time>
      </trkpt>
      <trkpt lat="45.47609" lon="0.68603">
        <ele>232</ele>
        <time>2012-11-25T10:41:43Z</time>
      </trkpt>
      <trkpt lat="45.47636" lon="0.68578">
        <ele>232</ele>
        <time>2012-11-25T10:41:50Z</time>
      </trkpt>
      <trkpt lat="45.47651" lon="0.68559">
        <ele>232</ele>
        <time>2012-11-25T10:41:54Z</time>
      </trkpt>
      <trkpt lat="45.47671" lon="0.68535">
        <ele>233</ele>
        <time>2012-11-25T10:41:59Z</time>
      </trkpt>
      <trkpt lat="45.47688" lon="0.68521">
        <ele>232</ele>
        <time>2012-11-25T10:42:03Z</time>
      </trkpt>
      <trkpt lat="45.47713" lon="0.68503">
        <ele>233</ele>
        <time>2012-11-25T10:42:09Z</time>
      </trkpt>
      <trkpt lat="45.47729" lon="0.68494">
        <ele>233</ele>
        <time>2012-11-25T10:42:13Z</time>
      </trkpt>
      <trkpt lat="45.47736" lon="0.6849">
        <ele>233</ele>
        <time>2012-11-25T10:42:15Z</time>
      </trkpt>
      <trkpt lat="45.4776" lon="0.68476">
        <ele>234</ele>
        <time>2012-11-25T10:42:22Z</time>
      </trkpt>
      <trkpt lat="45.4777" lon="0.68471">
        <ele>234</ele>
        <time>2012-11-25T10:42:25Z</time>
      </trkpt>
      <trkpt lat="45.47785" lon="0.68461">
        <ele>234</ele>
        <time>2012-11-25T10:42:29Z</time>
      </trkpt>
      <trkpt lat="45.47795" lon="0.68454">
        <ele>234</ele>
        <time>2012-11-25T10:42:32Z</time>
      </trkpt>
      <trkpt lat="45.47817" lon="0.68442">
        <ele>234</ele>
        <time>2012-11-25T10:42:38Z</time>
      </trkpt>
      <trkpt lat="45.47845" lon="0.6842">
        <ele>235</ele>
        <time>2012-11-25T10:42:46Z</time>
      </trkpt>
      <trkpt lat="45.47852" lon="0.68416">
        <ele>236</ele>
        <time>2012-11-25T10:42:48Z</time>
      </trkpt>
      <trkpt lat="45.47867" lon="0.68409">
        <ele>237</ele>
        <time>2012-11-25T10:42:52Z</time>
      </trkpt>
      <trkpt lat="45.47882" lon="0.684">
        <ele>238</ele>
        <time>2012-11-25T10:42:56Z</time>
      </trkpt>
      <trkpt lat="45.47897" lon="0.68394">
        <ele>238</ele>
        <time>2012-11-25T10:43:00Z</time>
      </trkpt>
      <trkpt lat="45.47914" lon="0.68385">
        <ele>238</ele>
        <time>2012-11-25T10:43:05Z</time>
      </trkpt>
      <trkpt lat="45.47927" lon="0.68379">
        <ele>239</ele>
        <time>2012-11-25T10:43:09Z</time>
      </trkpt>
      <trkpt lat="45.47938" lon="0.68377">
        <ele>239</ele>
        <time>2012-11-25T10:43:12Z</time>
      </trkpt>
      <trkpt lat="45.4796" lon="0.68371">
        <ele>240</ele>
        <time>2012-11-25T10:43:17Z</time>
      </trkpt>
      <trkpt lat="45.47978" lon="0.68365">
        <ele>240</ele>
        <time>2012-11-25T10:43:21Z</time>
      </trkpt>
      <trkpt lat="45.47996" lon="0.68359">
        <ele>240</ele>
        <time>2012-11-25T10:43:25Z</time>
      </trkpt>
      <trkpt lat="45.48014" lon="0.68354">
        <ele>241</ele>
        <time>2012-11-25T10:43:29Z</time>
      </trkpt>
      <trkpt lat="45.48023" lon="0.6835">
        <ele>240</ele>
        <time>2012-11-25T10:43:31Z</time>
      </trkpt>
      <trkpt lat="45.48046" lon="0.68338">
        <ele>241</ele>
        <time>2012-11-25T10:43:37Z</time>
      </trkpt>
      <trkpt lat="45.4806" lon="0.6833">
        <ele>242</ele>
        <time>2012-11-25T10:43:41Z</time>
      </trkpt>
      <trkpt lat="45.48067" lon="0.68326">
        <ele>242</ele>
        <time>2012-11-25T10:43:43Z</time>
      </trkpt>
      <trkpt lat="45.48076" lon="0.68317">
        <ele>242</ele>
        <time>2012-11-25T10:43:47Z</time>
      </trkpt>
      <trkpt lat="45.48087" lon="0.6831">
        <ele>241</ele>
        <time>2012-11-25T10:43:51Z</time>
      </trkpt>
      <trkpt lat="45.48095" lon="0.68302">
        <ele>241</ele>
        <time>2012-11-25T10:43:54Z</time>
      </trkpt>
      <trkpt lat="45.48109" lon="0.68292">
        <ele>241</ele>
        <time>2012-11-25T10:44:00Z</time>
      </trkpt>
      <trkpt lat="45.48116" lon="0.68281">
        <ele>241</ele>
        <time>2012-11-25T10:44:04Z</time>
      </trkpt>
      <trkpt lat="45.48126" lon="0.68268">
        <ele>241</ele>
        <time>2012-11-25T10:44:08Z</time>
      </trkpt>
      <trkpt lat="45.48138" lon="0.68254">
        <ele>241</ele>
        <time>2012-11-25T10:44:13Z</time>
      </trkpt>
      <trkpt lat="45.48142" lon="0.68248">
        <ele>240</ele>
        <time>2012-11-25T10:44:15Z</time>
      </trkpt>
      <trkpt lat="45.48148" lon="0.6824">
        <ele>240</ele>
        <time>2012-11-25T10:44:18Z</time>
      </trkpt>
      <trkpt lat="45.48164" lon="0.68243">
        <ele>241</ele>
        <time>2012-11-25T10:44:25Z</time>
      </trkpt>
      <trkpt lat="45.4817" lon="0.68249">
        <ele>241</ele>
        <time>2012-11-25T10:44:27Z</time>
      </trkpt>
      <trkpt lat="45.48182" lon="0.68262">
        <ele>241</ele>
        <time>2012-11-25T10:44:31Z</time>
      </trkpt>
      <trkpt lat="45.48198" lon="0.68283">
        <ele>241</ele>
        <time>2012-11-25T10:44:37Z</time>
      </trkpt>
      <trkpt lat="45.48214" lon="0.68301">
        <ele>242</ele>
        <time>2012-11-25T10:44:42Z</time>
      </trkpt>
      <trkpt lat="45.48226" lon="0.68316">
        <ele>242</ele>
        <time>2012-11-25T10:44:46Z</time>
      </trkpt>
      <trkpt lat="45.48232" lon="0.68322">
        <ele>242</ele>
        <time>2012-11-25T10:44:48Z</time>
      </trkpt>
      <trkpt lat="45.48249" lon="0.68342">
        <ele>242</ele>
        <time>2012-11-25T10:44:54Z</time>
      </trkpt>
      <trkpt lat="45.48254" lon="0.68349">
        <ele>243</ele>
        <time>2012-11-25T10:44:56Z</time>
      </trkpt>
      <trkpt lat="45.48262" lon="0.6836">
        <ele>243</ele>
        <time>2012-11-25T10:44:59Z</time>
      </trkpt>
      <trkpt lat="45.48271" lon="0.6837">
        <ele>244</ele>
        <time>2012-11-25T10:45:02Z</time>
      </trkpt>
      <trkpt lat="45.48285" lon="0.68388">
        <ele>244</ele>
        <time>2012-11-25T10:45:07Z</time>
      </trkpt>
      <trkpt lat="45.48299" lon="0.68408">
        <ele>244</ele>
        <time>2012-11-25T10:45:12Z</time>
      </trkpt>
      <trkpt lat="45.48308" lon="0.6842">
        <ele>244</ele>
        <time>2012-11-25T10:45:15Z</time>
      </trkpt>
      <trkpt lat="45.48315" lon="0.6843">
        <ele>244</ele>
        <time>2012-11-25T10:45:18Z</time>
      </trkpt>
      <trkpt lat="45.48332" lon="0.68455">
        <ele>244</ele>
        <time>2012-11-25T10:45:24Z</time>
      </trkpt>
      <trkpt lat="45.48346" lon="0.68474">
        <ele>245</ele>
        <time>2012-11-25T10:45:29Z</time>
      </trkpt>
      <trkpt lat="45.48352" lon="0.68481">
        <ele>245</ele>
        <time>2012-11-25T10:45:31Z</time>
      </trkpt>
      <trkpt lat="45.48367" lon="0.68499">
        <ele>245</ele>
        <time>2012-11-25T10:45:36Z</time>
      </trkpt>
      <trkpt lat="45.48376" lon="0.6851">
        <ele>243</ele>
        <time>2012-11-25T10:45:39Z</time>
      </trkpt>
      <trkpt lat="45.48391" lon="0.68526">
        <ele>243</ele>
        <time>2012-11-25T10:45:43Z</time>
      </trkpt>
      <trkpt lat="45.48406" lon="0.6854">
        <ele>243</ele>
        <time>2012-11-25T10:45:47Z</time>
      </trkpt>
      <trkpt lat="45.48422" lon="0.68551">
        <ele>243</ele>
        <time>2012-11-25T10:45:51Z</time>
      </trkpt>
      <trkpt lat="45.48438" lon="0.68562">
        <ele>243</ele>
        <time>2012-11-25T10:45:55Z</time>
      </trkpt>
      <trkpt lat="45.48466" lon="0.68579">
        <ele>243</ele>
        <time>2012-11-25T10:46:01Z</time>
      </trkpt>
      <trkpt lat="45.48486" lon="0.68592">
        <ele>243</ele>
        <time>2012-11-25T10:46:05Z</time>
      </trkpt>
      <trkpt lat="45.48507" lon="0.6861">
        <ele>244</ele>
        <time>2012-11-25T10:46:09Z</time>
      </trkpt>
      <trkpt lat="45.48524" lon="0.68633">
        <ele>244</ele>
        <time>2012-11-25T10:46:13Z</time>
      </trkpt>
      <trkpt lat="45.48534" lon="0.68654">
        <ele>244</ele>
        <time>2012-11-25T10:46:16Z</time>
      </trkpt>
      <trkpt lat="45.48542" lon="0.68676">
        <ele>243</ele>
        <time>2012-11-25T10:46:19Z</time>
      </trkpt>
      <trkpt lat="45.48549" lon="0.68707">
        <ele>242</ele>
        <time>2012-11-25T10:46:23Z</time>
      </trkpt>
      <trkpt lat="45.48554" lon="0.68754">
        <ele>242</ele>
        <time>2012-11-25T10:46:29Z</time>
      </trkpt>
      <trkpt lat="45.48555" lon="0.68761">
        <ele>242</ele>
        <time>2012-11-25T10:46:30Z</time>
      </trkpt>
      <trkpt lat="45.48556" lon="0.68807">
        <ele>242</ele>
        <time>2012-11-25T10:46:36Z</time>
      </trkpt>
      <trkpt lat="45.48555" lon="0.68838">
        <ele>243</ele>
        <time>2012-11-25T10:46:40Z</time>
      </trkpt>
      <trkpt lat="45.48553" lon="0.68861">
        <ele>243</ele>
        <time>2012-11-25T10:46:43Z</time>
      </trkpt>
      <trkpt lat="45.48551" lon="0.68883">
        <ele>243</ele>
        <time>2012-11-25T10:46:46Z</time>
      </trkpt>
      <trkpt lat="45.48543" lon="0.68932">
        <ele>242</ele>
        <time>2012-11-25T10:46:53Z</time>
      </trkpt>
      <trkpt lat="45.48541" lon="0.68946">
        <ele>242</ele>
        <time>2012-11-25T10:46:55Z</time>
      </trkpt>
      <trkpt lat="45.48537" lon="0.68972">
        <ele>242</ele>
        <time>2012-11-25T10:46:59Z</time>
      </trkpt>
      <trkpt lat="45.48534" lon="0.68989">
        <ele>242</ele>
        <time>2012-11-25T10:47:02Z</time>
      </trkpt>
      <trkpt lat="45.48528" lon="0.69026">
        <ele>242</ele>
        <time>2012-11-25T10:47:09Z</time>
      </trkpt>
      <trkpt lat="45.48526" lon="0.69036">
        <ele>242</ele>
        <time>2012-11-25T10:47:11Z</time>
      </trkpt>
      <trkpt lat="45.48531" lon="0.69053">
        <ele>241</ele>
        <time>2012-11-25T10:47:16Z</time>
      </trkpt>
      <trkpt lat="45.48536" lon="0.69055">
        <ele>241</ele>
        <time>2012-11-25T10:47:20Z</time>
      </trkpt>
      <trkpt lat="45.48542" lon="0.69057">
        <ele>241</ele>
        <time>2012-11-25T10:47:26Z</time>
      </trkpt>
      <trkpt lat="45.48545" lon="0.69052">
        <ele>241</ele>
        <time>2012-11-25T10:47:41Z</time>
      </trkpt>
      <trkpt lat="45.48539" lon="0.69066">
        <ele>241</ele>
        <time>2012-11-25T10:48:05Z</time>
      </trkpt>
      <trkpt lat="45.48539" lon="0.69066">
        <ele>241</ele>
        <time>2012-11-25T10:48:09Z</time>
      </trkpt>
    </trkseg>
  </trk>
</gpx>